[[{"header":{"parameterUnit":"m.s-1","parameterCategory":1,"la1":30.6,"la2":29.2853,"lo1":-89.7004,"lo2":-87.6739,"dy":0.0162,"dx":0.0183,"nx":112,"ny":82,"refTime":"2024-09-11T18:00:00:Z","depth":0,"parameterNumber":2,"parameterNumberName":"U-component_of_WINDS"},"data":[0.0,0.0,0.0,0.0,0.0,0.0,0.0,0.0,0.0,0.0,0.0,0.0,0.0,0.0,0.0,0.0,0.0,0.0,0.0,0.0,0.0,0.0,0.0,0.0,0.0,0.0,0.0,0.0,0.0,0.0,0.0,0.0,0.0,0.0,0.0,0.0,0.0,0.0,0.0,0.0,0.0,0.0,0.0,0.0,0.0,0.0,0.0,0.0,0.0,0.0,0.0,0.0,0.0,0.0,0.0,0.0,0.0,0.0,0.0,0.0,0.0,0.0,0.0,0.0,0.0,0.0,0.0,0.0,0.0,0.0,0.0,0.0,0.0,0.0,0.0,0.0,0.0,0.0,0.0,0.0,0.0,0.0,0.0,0.0,0.0,0.0,0.0,0.0,0.0,0.0,-3.925,-4.4138,-4.8808,-5.1433,-5.1207,-5.0492,-4.7384,-4.1141,0.0,0.0,0.0,0.0,0.0,0.0,0.0,0.0,0.0,0.0,0.0,0.0,0.0,0.0,0.0,0.0,0.0,0.0,0.0,0.0,0.0,0.0,0.0,0.0,0.0,0.0,0.0,0.0,0.0,0.0,0.0,0.0,0.0,0.0,0.0,0.0,0.0,0.0,0.0,0.0,0.0,0.0,0.0,0.0,0.0,0.0,0.0,0.0,0.0,0.0,0.0,0.0,0.0,0.0,0.0,0.0,0.0,0.0,0.0,0.0,0.0,0.0,0.0,0.0,0.0,0.0,0.0,0.0,0.0,0.0,0.0,0.0,0.0,0.0,0.0,0.0,0.0,0.0,0.0,0.0,0.0,0.0,0.0,0.0,0.0,0.0,0.0,0.0,0.0,0.0,0.0,0.0,0.0,0.0,0.0,0.0,0.0,0.0,0.0,0.0,0.0,0.0,0.0,0.0,-3.8511,-4.6395,-4.9695,-5.1172,-5.0805,-4.9005,-4.6165,-4.2167,0.0,0.0,0.0,0.0,0.0,0.0,0.0,0.0,0.0,0.0,0.0,0.0,0.0,0.0,0.0,0.0,0.0,0.0,0.0,0.0,0.0,0.0,0.0,0.0,0.0,0.0,0.0,0.0,0.0,0.0,0.0,0.0,0.0,0.0,0.0,0.0,0.0,0.0,0.0,0.0,0.0,0.0,0.0,0.0,0.0,0.0,0.0,0.0,0.0,0.0,0.0,0.0,0.0,0.0,0.0,0.0,0.0,0.0,0.0,0.0,0.0,0.0,0.0,0.0,0.0,0.0,0.0,0.0,0.0,0.0,0.0,0.0,0.0,0.0,0.0,0.0,0.0,0.0,0.0,0.0,0.0,0.0,0.0,0.0,0.0,0.0,0.0,0.0,0.0,0.0,0.0,0.0,0.0,0.0,0.0,0.0,0.0,0.0,0.0,0.0,0.0,0.0,0.0,-3.7257,-4.0861,-4.7215,-4.9413,-5.0462,-5.0607,-4.8714,-4.5723,-4.1485,-3.8425,0.0,0.0,0.0,0.0,0.0,0.0,0.0,0.0,0.0,0.0,0.0,0.0,0.0,0.0,0.0,0.0,0.0,0.0,0.0,0.0,0.0,0.0,0.0,0.0,0.0,0.0,0.0,0.0,0.0,0.0,0.0,0.0,0.0,0.0,0.0,0.0,0.0,0.0,0.0,0.0,0.0,0.0,0.0,0.0,0.0,0.0,0.0,0.0,0.0,0.0,0.0,0.0,0.0,0.0,0.0,0.0,0.0,0.0,0.0,0.0,0.0,0.0,0.0,0.0,0.0,0.0,0.0,0.0,0.0,0.0,0.0,0.0,0.0,0.0,0.0,0.0,0.0,0.0,0.0,0.0,0.0,0.0,0.0,0.0,0.0,0.0,0.0,0.0,0.0,0.0,0.0,0.0,0.0,0.0,0.0,0.0,0.0,0.0,0.0,0.0,0.0,0.0,-4.1398,-4.3799,-4.7631,-4.895,-4.9722,-5.0067,-4.7796,-4.4541,-4.0464,-3.6162,0.0,0.0,0.0,0.0,0.0,0.0,0.0,0.0,0.0,0.0,0.0,0.0,0.0,0.0,0.0,0.0,0.0,0.0,0.0,0.0,0.0,0.0,0.0,0.0,0.0,0.0,0.0,0.0,0.0,0.0,0.0,0.0,0.0,0.0,0.0,0.0,0.0,0.0,0.0,0.0,0.0,0.0,0.0,0.0,0.0,0.0,0.0,0.0,0.0,0.0,0.0,0.0,0.0,0.0,0.0,0.0,0.0,0.0,0.0,0.0,0.0,0.0,0.0,0.0,0.0,0.0,0.0,0.0,0.0,0.0,0.0,0.0,0.0,0.0,0.0,0.0,0.0,0.0,0.0,0.0,0.0,0.0,0.0,0.0,0.0,0.0,0.0,0.0,0.0,0.0,0.0,0.0,0.0,0.0,0.0,0.0,0.0,0.0,0.0,0.0,0.0,0.0,-4.2266,-4.6171,-4.7961,-4.89,-4.9299,-4.894,-4.4949,-4.1657,-3.9692,-3.3429,0.0,0.0,0.0,0.0,0.0,0.0,0.0,0.0,0.0,0.0,0.0,0.0,0.0,0.0,0.0,0.0,0.0,0.0,0.0,0.0,0.0,0.0,0.0,0.0,0.0,0.0,0.0,0.0,0.0,0.0,0.0,0.0,0.0,0.0,0.0,0.0,0.0,0.0,0.0,0.0,0.0,0.0,0.0,0.0,0.0,0.0,0.0,0.0,0.0,0.0,0.0,0.0,0.0,0.0,0.0,0.0,0.0,0.0,0.0,0.0,0.0,0.0,0.0,0.0,0.0,0.0,0.0,0.0,0.0,0.0,0.0,0.0,0.0,0.0,0.0,0.0,0.0,0.0,0.0,0.0,0.0,0.0,0.0,0.0,0.0,0.0,0.0,0.0,0.0,0.0,0.0,0.0,0.0,0.0,0.0,0.0,0.0,0.0,0.0,0.0,0.0,0.0,-4.0354,-4.4158,-4.7054,-4.8136,-4.8471,-4.7989,-4.6041,-4.2821,-3.8108,0.0,0.0,0.0,0.0,0.0,0.0,0.0,0.0,0.0,0.0,0.0,0.0,0.0,0.0,0.0,0.0,0.0,0.0,0.0,0.0,0.0,0.0,0.0,0.0,0.0,0.0,0.0,0.0,0.0,0.0,0.0,0.0,0.0,0.0,0.0,0.0,0.0,0.0,0.0,0.0,0.0,0.0,0.0,0.0,0.0,0.0,0.0,0.0,0.0,0.0,0.0,0.0,0.0,0.0,0.0,0.0,0.0,0.0,0.0,0.0,0.0,0.0,0.0,0.0,0.0,0.0,0.0,0.0,0.0,0.0,0.0,0.0,0.0,0.0,0.0,0.0,0.0,0.0,0.0,0.0,0.0,0.0,0.0,0.0,0.0,0.0,0.0,0.0,0.0,0.0,0.0,0.0,0.0,0.0,0.0,0.0,0.0,0.0,0.0,0.0,0.0,0.0,-3.5134,-3.9714,-4.3595,-4.6576,-4.7666,-4.7944,-4.7417,-4.5479,-4.2156,-3.7047,0.0,0.0,0.0,0.0,0.0,0.0,0.0,0.0,0.0,0.0,0.0,0.0,0.0,0.0,0.0,0.0,0.0,0.0,0.0,0.0,0.0,0.0,0.0,0.0,0.0,0.0,0.0,0.0,0.0,0.0,0.0,0.0,0.0,0.0,0.0,0.0,0.0,0.0,0.0,0.0,0.0,0.0,0.0,0.0,0.0,0.0,0.0,0.0,0.0,0.0,0.0,0.0,0.0,0.0,0.0,0.0,0.0,0.0,0.0,0.0,0.0,0.0,0.0,0.0,0.0,0.0,0.0,0.0,0.0,0.0,0.0,0.0,0.0,0.0,0.0,0.0,0.0,0.0,0.0,0.0,0.0,0.0,0.0,0.0,0.0,0.0,0.0,0.0,0.0,0.0,0.0,0.0,0.0,0.0,0.0,0.0,0.0,0.0,0.0,0.0,0.0,0.0,-3.5169,-4.0965,-4.5268,-4.6742,-4.7666,-4.7944,-4.7228,-4.2579,-3.874,0.0,0.0,0.0,0.0,0.0,0.0,0.0,0.0,0.0,0.0,0.0,0.0,0.0,0.0,0.0,0.0,0.0,0.0,0.0,0.0,0.0,0.0,0.0,0.0,0.0,0.0,0.0,0.0,0.0,0.0,0.0,0.0,0.0,0.0,0.0,0.0,0.0,0.0,0.0,0.0,0.0,0.0,0.0,0.0,0.0,0.0,0.0,0.0,0.0,0.0,0.0,0.0,0.0,0.0,0.0,0.0,0.0,0.0,0.0,0.0,0.0,0.0,0.0,0.0,0.0,0.0,0.0,0.0,0.0,0.0,0.0,0.0,0.0,0.0,0.0,0.0,0.0,0.0,0.0,0.0,0.0,0.0,0.0,0.0,0.0,0.0,0.0,0.0,0.0,0.0,0.0,0.0,0.0,0.0,0.0,0.0,0.0,0.0,0.0,0.0,0.0,0.0,0.0,-3.5825,-4.1493,-4.5579,-4.6792,-4.7618,-4.7616,-4.6462,-4.448,-4.0942,-3.5237,0.0,0.0,0.0,0.0,0.0,0.0,0.0,0.0,0.0,0.0,0.0,0.0,0.0,0.0,0.0,0.0,0.0,0.0,0.0,0.0,0.0,0.0,0.0,0.0,0.0,0.0,0.0,0.0,0.0,0.0,0.0,0.0,0.0,0.0,0.0,0.0,0.0,0.0,0.0,0.0,0.0,0.0,0.0,0.0,0.0,0.0,0.0,0.0,0.0,0.0,0.0,0.0,0.0,0.0,0.0,0.0,0.0,0.0,0.0,0.0,0.0,0.0,0.0,0.0,0.0,0.0,0.0,0.0,0.0,0.0,0.0,0.0,0.0,0.0,0.0,0.0,0.0,0.0,0.0,0.0,0.0,0.0,0.0,0.0,0.0,0.0,0.0,0.0,0.0,0.0,0.0,0.0,0.0,0.0,0.0,0.0,0.0,0.0,0.0,0.0,0.0,0.0,-3.5558,-4.1278,-4.537,-4.6728,-4.7554,-4.7469,-4.6022,-4.5225,-4.2109,-3.5799,0.0,0.0,0.0,0.0,0.0,0.0,0.0,0.0,0.0,0.0,0.0,0.0,0.0,0.0,0.0,0.0,0.0,0.0,0.0,0.0,0.0,0.0,0.0,0.0,0.0,0.0,0.0,0.0,0.0,0.0,0.0,0.0,0.0,0.0,0.0,0.0,0.0,0.0,0.0,0.0,0.0,0.0,0.0,0.0,0.0,0.0,0.0,0.0,0.0,0.0,0.0,0.0,0.0,0.0,0.0,0.0,0.0,0.0,0.0,0.0,0.0,0.0,0.0,0.0,0.0,0.0,0.0,0.0,0.0,0.0,0.0,0.0,0.0,0.0,0.0,0.0,0.0,0.0,0.0,0.0,0.0,0.0,0.0,0.0,0.0,0.0,0.0,0.0,0.0,0.0,0.0,0.0,0.0,0.0,0.0,0.0,0.0,0.0,0.0,0.0,0.0,0.0,-3.4961,-4.0629,-4.4849,-4.6697,-4.7538,-4.7404,-4.5914,-4.5102,-4.256,-3.7536,0.0,0.0,0.0,0.0,0.0,0.0,0.0,0.0,0.0,0.0,0.0,0.0,0.0,0.0,0.0,0.0,0.0,0.0,0.0,0.0,0.0,0.0,0.0,0.0,0.0,0.0,0.0,0.0,0.0,0.0,0.0,0.0,0.0,0.0,0.0,0.0,0.0,0.0,0.0,0.0,0.0,0.0,0.0,0.0,0.0,0.0,0.0,0.0,0.0,0.0,0.0,0.0,0.0,0.0,0.0,0.0,0.0,0.0,0.0,0.0,-2.6891,-2.5147,0.0,0.0,0.0,0.0,0.0,0.0,0.0,0.0,0.0,0.0,0.0,0.0,0.0,0.0,0.0,0.0,0.0,0.0,0.0,0.0,0.0,0.0,0.0,0.0,0.0,0.0,0.0,0.0,0.0,0.0,0.0,0.0,0.0,0.0,0.0,0.0,0.0,0.0,0.0,0.0,-3.6111,-4.1007,-4.4696,-4.6439,-4.7456,-4.7404,-4.5914,-4.5102,-4.2518,-3.7417,-3.5461,0.0,0.0,0.0,0.0,0.0,0.0,0.0,0.0,0.0,0.0,0.0,0.0,0.0,0.0,0.0,0.0,0.0,0.0,0.0,0.0,0.0,0.0,0.0,0.0,0.0,0.0,0.0,0.0,0.0,0.0,0.0,0.0,0.0,0.0,0.0,0.0,0.0,0.0,0.0,0.0,0.0,0.0,0.0,0.0,0.0,0.0,0.0,0.0,0.0,0.0,0.0,0.0,0.0,0.0,0.0,0.0,0.0,0.0,0.0,-3.0006,-2.8556,0.0,0.0,0.0,0.0,0.0,0.0,0.0,0.0,0.0,0.0,0.0,0.0,0.0,0.0,0.0,0.0,0.0,0.0,0.0,0.0,0.0,0.0,0.0,0.0,0.0,0.0,0.0,0.0,0.0,0.0,0.0,0.0,0.0,0.0,0.0,0.0,0.0,0.0,0.0,0.0,-3.6133,-4.0544,-4.3976,-4.5707,-4.6742,-4.6748,-4.5341,-4.523,-4.3495,-3.9437,-3.7849,0.0,0.0,0.0,0.0,0.0,0.0,0.0,0.0,0.0,0.0,0.0,0.0,0.0,0.0,0.0,0.0,0.0,0.0,0.0,0.0,0.0,0.0,0.0,0.0,0.0,0.0,0.0,0.0,0.0,0.0,0.0,0.0,0.0,0.0,0.0,0.0,0.0,0.0,0.0,0.0,0.0,0.0,0.0,0.0,0.0,0.0,0.0,0.0,0.0,0.0,0.0,0.0,0.0,-3.3035,-3.3832,-3.4748,-3.5264,-3.5894,-3.6463,-3.3401,-3.2718,-3.3467,-2.9669,0.0,0.0,0.0,0.0,0.0,0.0,0.0,0.0,0.0,0.0,0.0,0.0,0.0,0.0,0.0,0.0,0.0,0.0,0.0,0.0,0.0,0.0,-3.5184,-3.5221,-3.6476,-3.6428,-3.1649,0.0,0.0,0.0,0.0,0.0,0.0,0.0,0.0,0.0,0.0,0.0,-3.6041,-4.0109,-4.3152,-4.4834,-4.5921,-4.5938,-4.4639,-4.529,-4.4589,-4.1789,-4.042,-3.8548,0.0,0.0,0.0,0.0,0.0,0.0,0.0,0.0,0.0,0.0,0.0,0.0,0.0,0.0,0.0,0.0,0.0,0.0,0.0,0.0,0.0,0.0,0.0,0.0,0.0,0.0,0.0,0.0,0.0,0.0,0.0,0.0,-1.9915,-2.0949,0.0,0.0,0.0,0.0,0.0,0.0,0.0,0.0,0.0,0.0,0.0,0.0,0.0,-3.0068,-3.1998,-3.4552,-3.5758,-3.5779,-3.7194,-3.7818,-3.7448,-3.7551,-3.7927,-3.8476,-3.7895,0.0,-3.3801,-3.1428,0.0,0.0,0.0,0.0,0.0,0.0,0.0,0.0,0.0,0.0,0.0,0.0,0.0,0.0,0.0,0.0,0.0,0.0,0.0,0.0,0.0,0.0,-4.0168,-4.0153,-4.0808,-4.088,-3.9022,-3.5193,-3.1672,-3.0028,-2.8929,-2.752,0.0,0.0,0.0,0.0,0.0,0.0,-3.7282,-4.0544,-4.2849,-4.3667,-4.54,-4.5938,-4.4423,-4.5226,-4.4804,-4.2518,-4.1591,-4.0398,-3.8811,-3.6771,0.0,0.0,0.0,0.0,0.0,0.0,0.0,0.0,0.0,0.0,0.0,0.0,0.0,0.0,0.0,0.0,0.0,0.0,0.0,0.0,0.0,0.0,0.0,0.0,0.0,0.0,0.0,0.0,0.0,-1.9861,-2.1656,-2.272,-2.2621,-2.2078,0.0,0.0,0.0,0.0,0.0,0.0,0.0,0.0,0.0,-3.1529,-3.2509,-3.3823,-3.5557,-3.7139,-3.8019,-3.8214,-3.9224,-3.9573,-3.9357,-3.9645,-3.9922,-4.0138,-3.9838,-3.8912,-3.7397,-3.4667,-3.2478,-3.0687,0.0,0.0,0.0,0.0,-3.0193,-3.0996,-3.2606,-3.3193,-3.3143,-3.2123,0.0,0.0,0.0,0.0,0.0,0.0,0.0,-3.5169,-3.7433,-3.9828,-4.1744,-4.2078,-4.2673,-4.3007,-4.2411,-4.0237,-3.7443,-3.3956,-3.3054,-3.1718,-2.7944,-2.772,0.0,0.0,0.0,-3.5121,-3.8267,-4.0459,-4.208,-4.2812,-4.4159,-4.4658,-4.3747,-4.4511,-4.4561,-4.3203,-4.2811,-4.1993,-4.0547,-3.9226,-3.7136,0.0,0.0,0.0,0.0,0.0,0.0,0.0,0.0,0.0,0.0,0.0,0.0,0.0,0.0,0.0,0.0,0.0,0.0,0.0,0.0,0.0,0.0,0.0,0.0,0.0,0.0,0.0,0.0,-2.1921,-2.3532,-2.447,-2.5264,-2.5131,0.0,0.0,0.0,0.0,0.0,0.0,-3.0615,-3.1589,-3.3068,-3.5196,-3.6158,-3.7264,-3.8587,-3.9152,-3.9621,-4.0018,-4.0415,-4.0595,-4.0607,-4.1004,-4.1184,-4.116,-4.0763,-4.0595,-4.0379,-3.7433,-3.5545,-3.4342,-3.2863,-3.2135,-3.2007,-3.3216,-3.4206,-3.5123,-3.6459,-3.7207,-3.733,-3.5467,-3.4767,-3.4242,-3.1928,0.0,0.0,0.0,0.0,-3.8304,-4.0525,-4.1947,-4.2963,-4.3587,-4.411,-4.4429,-4.4255,-4.3834,-4.2252,-3.8115,-3.7302,-3.6025,-3.2063,-3.1496,0.0,-3.2425,-3.4298,-3.662,-3.9334,-4.0655,-4.1622,-4.2266,-4.3284,-4.3685,-4.3107,-4.3821,-4.4071,-4.3378,-4.3137,-4.265,-4.1732,-4.1066,-3.9457,-3.6887,0.0,0.0,0.0,0.0,0.0,0.0,0.0,0.0,0.0,0.0,0.0,0.0,0.0,0.0,0.0,0.0,0.0,0.0,0.0,0.0,0.0,0.0,0.0,0.0,0.0,0.0,0.0,0.0,0.0,-2.6707,-2.8126,0.0,0.0,0.0,0.0,-2.8943,-3.005,-3.1817,-3.4414,-3.5076,-3.6362,-3.8515,-3.9116,-3.9681,-4.027,-4.08,-4.1076,-4.11,-4.1136,-4.1148,-4.1148,-4.1172,-4.1184,-4.1184,-4.1148,-4.1148,-4.0968,-3.8767,-3.7817,-3.7637,-3.6555,-3.611,-3.6098,-3.6182,-3.6937,-3.7836,-3.7329,-3.7556,-3.8088,-3.8541,-3.7973,-3.7064,-3.6444,-3.6713,0.0,0.0,-4.0028,-4.2107,-4.3442,-4.4269,-4.4922,-4.559,-4.5764,-4.5619,-4.498,-4.4821,-4.4356,-4.289,-4.1149,-3.9639,-3.8812,0.0,-3.7128,-3.7723,-3.8463,-3.945,-4.0829,-4.1613,-4.2063,-4.2092,-4.322,-4.3608,-4.2849,-4.3314,-4.3342,-4.26,-4.1936,-4.1868,-4.2534,-4.1837,-4.0694,-3.9139,-3.6887,0.0,0.0,0.0,0.0,0.0,0.0,0.0,0.0,0.0,0.0,0.0,0.0,0.0,0.0,0.0,0.0,0.0,0.0,0.0,0.0,0.0,0.0,0.0,0.0,0.0,0.0,0.0,0.0,-2.9833,-3.1096,0.0,-3.0098,-3.0783,-3.1733,-3.2779,-3.415,-3.5653,-3.7312,-3.7902,-3.8527,-3.9296,-3.9838,-4.021,-4.0391,-4.092,-4.1184,-4.1184,-4.1533,-4.1689,-4.1689,-4.1689,-4.1689,-4.1677,-4.1329,-4.1184,-4.1124,-4.0355,-3.9838,-3.9465,-3.8743,-3.8467,-3.8467,-3.8467,-3.8922,-3.9603,-3.9406,-3.9637,-4.0074,-3.9572,-3.8592,-3.764,-3.8295,-3.9133,-4.0082,-4.1383,-4.2796,-4.4095,-4.498,-4.5372,-4.559,-4.5822,-4.588,-4.5822,-4.559,-4.5532,-4.5401,-4.4937,-4.3297,-4.1628,-4.0597,-4.0046,-3.9668,-3.945,-3.9987,-4.0742,-4.1628,-4.1947,-4.2092,-4.2092,-4.2622,-4.2892,-4.2733,-4.262,-4.2539,-4.2441,-4.1426,-4.0736,-4.0546,-4.0768,-4.0144,-3.8694,-3.736,-3.4767,0.0,0.0,0.0,0.0,0.0,0.0,0.0,0.0,0.0,0.0,0.0,0.0,0.0,0.0,0.0,0.0,0.0,0.0,0.0,0.0,0.0,0.0,0.0,0.0,0.0,-2.857,-3.0771,-3.1817,-3.3368,-3.3921,-3.2839,-3.403,-3.5232,-3.611,-3.7312,-3.8322,-3.9044,-3.9585,-3.9874,-3.9874,-4.0559,-4.092,-4.092,-4.1449,-4.1713,-4.1713,-4.2074,-4.2242,-4.2242,-4.2242,-4.2242,-4.2218,-4.187,-4.1713,-4.1701,-4.1521,-4.1244,-4.0872,-4.0455,-4.0238,-4.0238,-4.0362,-4.0807,-4.1225,-4.1149,-4.1056,-4.094,-4.0212,-3.9231,-3.8555,-3.9803,-4.0853,-4.1881,-4.3398,-4.4467,-4.5329,-4.5764,-4.588,-4.588,-4.588,-4.588,-4.588,-4.588,-4.588,-4.588,-4.588,-4.4661,-4.3355,-4.2528,-4.2208,-4.1918,-4.1482,-4.1787,-4.215,-4.2368,-4.2397,-4.2324,-4.2121,-4.2242,-4.2386,-4.2379,-4.1725,-4.1474,-4.1693,-4.0329,-3.9545,-3.9755,-3.9777,-3.9408,-3.8678,-3.7129,-3.5164,-3.2713,0.0,0.0,0.0,0.0,0.0,0.0,0.0,0.0,0.0,0.0,0.0,0.0,0.0,0.0,0.0,0.0,0.0,0.0,0.0,0.0,0.0,0.0,0.0,-2.7705,-3.0603,-3.2611,-3.2647,-3.4907,-3.6086,-3.5052,-3.6819,-3.8262,-3.8827,-3.932,-3.9621,-3.9657,-4.0138,-4.0415,-4.0415,-4.1449,-4.199,-4.1978,-4.2495,-4.276,-4.276,-4.2772,-4.2784,-4.2784,-4.2784,-4.2784,-4.2784,-4.2772,-4.276,-4.2723,-4.2206,-4.2002,-4.2059,-4.171,-4.1606,-4.1606,-4.1972,-4.2199,-4.2451,-4.2248,-4.1467,-4.0563,-4.0563,-4.0187,-3.9903,-4.0971,-4.1914,-4.2985,-4.4031,-4.5095,-4.588,-4.588,-4.588,-4.588,-4.588,-4.588,-4.588,-4.588,-4.588,-4.588,-4.588,-4.5358,-4.4922,-4.4922,-4.4414,-4.4023,-4.4023,-4.4008,0.0,-4.3079,-4.2992,-4.276,-4.2165,-4.2242,-4.221,-4.1724,-4.0734,-4.0219,-4.0397,-3.8512,-3.8272,-4.0291,-3.9093,-3.8723,-3.9322,-3.6473,-3.4982,-3.4965,0.0,0.0,0.0,0.0,0.0,0.0,0.0,0.0,0.0,0.0,0.0,0.0,0.0,0.0,0.0,0.0,0.0,0.0,0.0,0.0,0.0,-2.6441,-2.9442,-3.1005,-3.3248,-3.504,-3.5809,-3.724,-3.8034,-3.7745,-3.8599,-3.9381,-3.9922,-3.9741,-3.9934,-4.0715,-4.0884,-4.0968,-4.0968,-4.199,-4.2363,-4.1978,-4.2495,-4.276,-4.276,-4.3132,-4.3313,-4.3313,-4.3313,-4.3313,-4.3289,-4.2916,-4.276,-4.2747,-4.2603,-4.265,-4.2777,-4.1752,-4.1287,-4.1287,-4.1618,-4.2073,-4.25,-4.2687,-4.2296,-4.1706,-4.1706,-4.1065,-4.0496,-4.1581,-4.2259,-4.2985,-4.4031,-4.5095,-4.588,-4.588,-4.588,-4.588,-4.588,-4.588,-4.588,-4.588,-4.588,-4.588,-4.588,-4.5735,-4.5619,-4.5619,-4.5068,-4.4632,-4.4632,-4.4269,-4.3747,-4.3079,-4.2992,-4.276,-4.2165,-4.2175,-4.217,-4.2225,-4.1087,-4.0285,-4.0219,-3.8314,-3.7752,-3.897,-3.8654,-3.9007,-4.0083,-3.8245,-3.7036,0.0,0.0,0.0,0.0,0.0,0.0,0.0,0.0,0.0,0.0,0.0,0.0,0.0,0.0,0.0,0.0,0.0,0.0,0.0,0.0,0.0,0.0,-2.8158,-3.0866,-3.2677,-3.4887,-3.6675,-3.7745,-3.8431,-3.8996,-3.9441,-3.9561,-3.9922,-4.0667,-3.9848,-3.9931,-4.1148,-4.1115,-4.1129,-4.1521,-4.2531,-4.2928,-4.2615,-4.3156,-4.3421,-4.3421,-4.3721,-4.3866,-4.3866,-4.3866,-4.3866,-4.3842,-4.3553,-4.3421,-4.3409,-4.318,-4.3192,-4.3191,0.0,0.0,0.0,0.0,-4.2413,-4.275,-4.2974,-4.2622,-4.2158,-4.2158,-4.1568,-4.1064,-4.2074,-4.2751,-4.3353,-4.4422,-4.531,-4.588,-4.588,-4.588,-4.588,-4.588,-4.588,-4.588,-4.588,-4.588,-4.588,-4.588,-4.588,0.0,-4.588,-4.5561,-4.53,-4.53,-4.501,-4.4545,-4.3863,-4.3573,-4.3166,-4.2542,-4.2237,-4.2058,-4.2026,-4.1032,0.0,0.0,0.0,-3.7775,-3.8432,-3.9285,0.0,0.0,0.0,-4.0564,0.0,-4.0498,0.0,0.0,-4.0267,-4.0327,0.0,0.0,0.0,0.0,0.0,0.0,0.0,0.0,0.0,0.0,0.0,0.0,0.0,0.0,0.0,0.0,-2.9642,-3.1493,-3.3289,-3.5504,-3.7298,-3.825,-3.8585,-3.899,-3.9861,-3.9522,-3.97,-4.0743,-3.9721,-3.965,-4.1109,-4.0948,0.0,0.0,0.0,-4.3433,-4.3433,-4.3974,-4.4251,-4.4251,-4.4323,-4.4347,-4.4347,-4.4347,-4.4347,-4.4347,-4.4347,-4.4347,-4.4311,-4.3806,-4.3565,-4.3542,-4.3154,-4.3074,-4.332,-4.315,-4.3037,-4.2974,-4.2974,0.0,0.0,-4.2246,-4.1882,-4.1525,-4.2564,-4.3158,-4.367,-4.4609,-4.5359,-4.5786,-4.5714,-4.579,-4.588,-4.588,-4.588,-4.588,-4.588,-4.588,-4.588,-4.588,-4.588,-4.588,-4.588,-4.588,-4.588,-4.588,-4.588,-4.5648,-4.498,-4.4414,-4.3834,-4.3181,-4.2557,0.0,-4.1624,-4.0894,-4.0363,-4.0112,-3.9045,-3.8546,-3.8701,-4.0745,-4.1873,-4.1774,-4.3304,-4.4754,-4.6046,-4.7454,-4.8216,-4.8249,-4.314,-4.2862,0.0,0.0,0.0,0.0,0.0,0.0,0.0,0.0,0.0,0.0,0.0,0.0,0.0,0.0,0.0,-2.8483,-3.0455,-3.2124,-3.3174,-3.4556,-3.5524,-3.5836,-3.7349,-3.8,-3.6853,-3.7339,-3.7829,-3.8018,-3.8744,-3.9702,-4.0773,-4.1365,-4.2018,-4.2603,-4.2796,-4.2904,-4.2904,-4.3409,-4.3673,-4.3673,-4.413,0.0,-4.4347,-4.4347,-4.4347,-4.4347,-4.4347,-4.4347,-4.4335,-4.4239,-4.4061,-4.3844,-4.3308,-4.3278,-4.3358,-4.3373,-4.315,-4.2974,-4.2974,-4.2911,-4.2823,-4.2823,-4.2446,-4.2104,-4.2309,-4.2638,0.0,-4.2748,-4.4012,-4.527,-4.4747,-4.5293,-4.588,-4.588,-4.588,-4.588,-4.588,-4.588,-4.588,-4.588,-4.588,-4.588,-4.588,-4.588,-4.588,-4.588,-4.588,-4.5648,-4.498,-4.4792,-4.4472,-4.3863,-4.321,-4.276,-4.2727,-4.1651,-4.0785,-4.0363,-4.0441,-4.0588,-4.0801,-4.3403,-4.4561,-4.3977,-4.6042,-4.7289,-4.7587,-4.8465,-4.9491,-5.0601,-4.9044,-4.8508,0.0,0.0,0.0,0.0,0.0,0.0,0.0,0.0,0.0,0.0,0.0,-2.3224,-2.4689,0.0,-2.8183,-2.9697,-3.0993,-3.1989,-3.2673,-3.3994,-3.5061,-3.5762,-3.6562,-3.7027,-3.6695,-3.6806,-3.7134,-3.7614,-3.8365,-3.9453,-4.0586,-4.1376,-4.2124,-4.276,-4.3012,-4.3132,-4.3132,-4.3661,-4.3926,-4.3926,-4.4214,-4.4347,-4.4347,-4.4347,-4.4347,-4.4347,-4.4347,-4.4347,-4.4347,-4.4347,-4.4437,-4.4646,-4.4365,-4.4015,-4.3743,-4.3457,-4.3412,-4.335,-4.3074,-4.2974,-4.2974,-4.2974,-4.2785,-4.2572,-4.2572,-4.292,-4.3231,-4.2958,-4.3647,-4.4401,-4.4685,-4.4939,-4.5187,-4.579,-4.588,-4.588,-4.588,-4.588,-4.588,-4.588,-4.588,-4.588,-4.588,-4.588,-4.588,-4.588,-4.588,-4.5764,-4.543,-4.5097,-4.4763,-4.4472,-4.3863,-4.3485,-4.3485,-4.2378,-4.1653,-4.1571,-4.1896,-4.2544,-4.3519,-4.5591,-4.6786,-4.6864,-4.8678,-4.9641,-4.9641,-5.0386,-5.1115,-5.181,-5.1639,-5.1393,0.0,0.0,0.0,0.0,0.0,0.0,0.0,-2.0338,-2.0885,-2.3392,-2.4334,-2.5254,-2.7304,-2.8414,-2.9472,-3.083,-3.1299,-3.1699,-3.2217,-3.3528,-3.4724,-3.5763,-3.5725,-3.5854,-3.6367,-3.6065,-3.6235,-3.7079,-3.8081,-3.9136,-4.0377,-4.1303,-4.2052,-4.2772,-4.3156,-4.3361,-4.3361,-4.3902,-4.419,-4.419,-4.4299,-4.4347,-4.4347,-4.4347,-4.4347,-4.4347,-4.4347,-4.4347,-4.4347,-4.4347,-4.4594,-4.5086,-4.5086,-4.4802,-4.4321,-4.3867,-4.3762,-4.374,-4.3288,-4.3074,-4.2974,-4.2974,-4.2974,-4.2974,-4.2974,-4.3296,-4.3549,-4.3446,-4.3661,-4.4085,-4.4886,-4.4973,-4.4975,-4.5873,-4.5982,-4.588,-4.588,-4.588,-4.588,-4.588,-4.588,-4.588,-4.588,-4.588,-4.588,-4.588,-4.588,-4.588,-4.588,-4.5416,-4.5082,-4.5082,-4.4531,-4.4124,-4.4008,-4.3175,-4.2728,-4.3057,-4.3259,-4.4022,-4.5559,-4.718,-4.8301,-4.8997,-5.0529,-5.1347,-5.1496,-5.1943,-5.2241,-5.239,-5.2703,-5.2827,-1.7651,-1.7825,-1.8357,-2.0182,-2.0438,-2.1388,0.0,-2.5815,-2.5312,-2.7409,-2.8315,-2.8728,-2.8959,-2.986,-3.084,-3.1367,-3.1484,-3.1807,-3.2607,-3.2878,-3.3168,-3.3668,-3.4411,-3.442,-3.345,-3.3519,-3.3915,-3.4536,-3.7076,-3.8903,-3.9467,-4.1545,-4.27,-4.276,-4.2808,-4.2844,-4.2844,-4.3349,-4.3601,-4.3613,-4.4106,-4.4347,-4.4347,-4.4347,-4.4347,-4.4347,-4.4347,-4.4347,-4.4347,-4.4347,-4.4347,-4.447,-4.447,-4.4767,-4.5206,-4.526,-4.4669,-4.379,-4.3727,-4.3388,-4.2974,-4.2974,-4.2974,-4.2974,-4.2974,-4.3048,-4.2995,-4.2503,-4.3702,-4.5126,-4.4797,-4.5605,-4.6524,-4.663,-4.6301,-4.588,-4.588,-4.588,-4.588,-4.588,-4.588,-4.588,-4.588,-4.588,-4.588,-4.588,-4.588,-4.588,-4.588,-4.5822,-4.5779,-4.5779,-4.5184,-4.4574,-4.4037,-4.3848,-4.4018,-4.4398,-4.4408,-4.4727,-4.5296,-4.7481,-4.8694,-4.8847,-5.0478,-5.1595,-5.2258,-5.1678,-5.1744,-5.239,-5.3219,-5.3311,-2.02,-2.0915,-2.1539,-2.2797,-2.357,-2.4738,-2.7144,-2.7253,-2.7229,-2.8895,-2.947,-2.9726,-3.0151,-3.0287,-3.0632,-3.1787,-3.1774,-3.1954,-3.3037,-3.2949,-3.2861,-3.3037,-3.293,-3.2933,-3.3086,-3.3555,-3.3984,-3.4404,-3.737,-3.9253,-3.9332,-4.1533,-4.276,-4.276,-4.3361,-4.3685,-4.3685,-4.4503,-4.4912,-4.4924,-4.5152,-4.5261,-4.5261,-4.5261,-4.5261,-4.5249,-4.4936,-4.4804,-4.478,-4.4479,-4.447,-4.4594,-4.4594,-4.4963,-4.5513,-4.5089,-4.483,-4.4681,-4.4028,-4.3652,-4.3401,-4.3087,-4.2974,-4.2974,-4.2974,-4.2974,-4.2924,-4.2698,-4.3137,-4.3742,-4.4832,-4.5338,-4.5884,-4.7081,-4.6896,-4.6432,-4.6432,-4.6142,-4.588,-4.588,-4.588,-4.588,-4.588,-4.588,-4.588,-4.588,-4.588,-4.588,-4.588,-4.588,-4.588,-4.588,-4.5634,-4.5213,-4.456,-4.4516,-4.4676,-4.5179,-4.5179,-4.5769,-4.7137,-4.8136,-4.9158,-5.0105,-5.0814,-5.1596,-5.2373,-5.2075,-5.2291,-5.2986,-5.3357,-5.3773,-2.1961,-2.3088,-2.4113,-2.493,-2.611,-2.7271,-2.8024,-2.8144,-2.8502,-2.969,-2.983,-2.9922,-3.0528,-3.0284,-3.0443,-3.1789,-3.1934,-3.2176,-3.3144,-3.2988,-3.2754,-3.2637,-3.207,-3.2109,-3.3144,-3.3428,-3.3818,-3.4482,-3.6871,-3.8676,-3.9322,-4.1153,-4.252,-4.318,-4.4082,-4.4635,-4.478,-4.5537,-4.5922,-4.5922,-4.5922,-4.5922,-4.5922,-4.5922,-4.5922,-4.5898,-4.5369,-4.514,-4.5092,-4.4563,-4.447,-4.4717,-4.4717,-4.5086,-4.5537,-4.5009,-4.5015,-4.5372,-4.4556,-4.4066,-4.374,-4.3338,-4.3099,-4.2974,-4.2974,-4.2974,-4.2974,-4.2974,-4.3212,-4.3734,-4.5267,-4.5655,-4.6111,-4.7635,-4.755,-4.71,-4.71,-4.6592,-4.6142,-4.6142,-4.5996,-4.588,-4.588,-4.588,-4.588,-4.588,-4.588,-4.588,-4.588,-4.588,-4.588,-4.588,-4.588,-4.5692,-4.5213,-4.5169,-4.5332,-4.5857,-4.5857,-4.6569,-4.8157,-4.8723,-4.9503,-5.0707,-5.0999,-5.1647,-5.2672,-5.2473,-5.2837,-5.3732,-5.393,-5.4532,-2.2419,-2.351,-2.5034,-2.6036,-2.7269,-2.8408,-2.9498,-2.9562,-2.963,-3.0246,-2.9912,-2.9568,-2.9922,-3.0157,-3.0671,-3.1546,-3.1924,-3.2314,-3.2754,-3.2803,-3.2646,-3.2236,-3.2158,-3.2324,-3.2773,-3.2461,-3.2744,-3.3994,-3.4946,-3.6634,-3.9245,-4.0366,-4.1941,-4.4139,-4.4828,-4.5357,-4.5874,-4.591,-4.5922,-4.5922,-4.5922,-4.5922,-4.5922,-4.5922,-4.5922,-4.5898,-4.5369,-4.514,-4.5092,-4.4563,-4.4347,-4.4347,-4.4347,-4.4717,-4.5331,-4.5306,-4.5337,-4.5485,-4.5447,-4.4719,-4.3802,-4.3777,-4.3413,-4.2974,-4.2974,-4.2974,-4.2974,-4.2974,-4.4535,-4.6201,-4.6306,-4.7415,-4.86,-4.8696,-4.8217,-4.7753,-4.7753,-4.7245,-4.6795,-4.6795,-4.6301,-4.588,-4.588,-4.588,-4.588,-4.588,-4.588,-4.588,-4.588,-4.588,-4.588,-4.588,-4.588,-4.588,-4.5851,-4.5851,-4.6031,-4.6565,-4.6565,-4.6829,-4.7309,-4.8872,-4.9805,-4.9805,-5.0807,-5.1993,-5.3384,-5.2705,-5.3102,-5.4494,-5.5222,-5.5796,-2.3694,-2.5133,-2.6608,-2.7685,-2.8549,-2.931,-3.0287,-3.0296,-3.0071,-3.0036,-2.9642,-2.9136,-2.8738,-2.9022,-2.9508,-3.0315,-3.0992,-3.1721,-3.2695,-3.2559,-3.2324,-3.2187,-3.2168,-3.2109,-3.1963,-3.2588,-3.3408,-3.4414,-3.6476,-3.8237,-3.9886,-4.1971,-4.3624,-4.484,-4.573,-4.6271,-4.6451,-4.6788,-4.6968,-4.6968,-4.6968,-4.6968,-4.6968,-4.6968,-4.6968,-4.6944,-4.6415,-4.6187,-4.6114,-4.5237,-4.4864,-4.484,-4.4479,-4.4594,-4.4963,-4.5208,-4.5228,-4.5248,-4.5366,-4.5234,-4.4794,-4.4041,-4.3677,-4.3451,-4.3087,-4.2974,-4.2974,-4.2974,-4.3504,-4.4235,-4.5088,-4.6184,-4.7281,-4.8027,-4.8359,-4.8406,-4.8406,-4.7579,-4.6824,-4.6824,-4.6316,-4.588,-4.588,-4.588,-4.588,-4.588,-4.588,-4.588,-4.588,-4.588,-4.588,-4.588,-4.588,-4.588,-4.588,-4.588,-4.606,-4.6594,-4.6594,-4.6771,-4.7309,-4.8407,-4.9262,-4.9805,-5.0709,-5.1917,-5.3417,-5.3185,-5.3814,-5.5256,-5.5504,-5.6096,-2.4986,-2.6279,-2.7455,-2.8709,-2.9282,-2.9686,-3.0411,-3.0159,-2.964,-2.9079,-2.8642,-2.8075,-2.729,-2.7625,-2.8357,-2.9316,-3.0113,-3.1091,-3.2217,-3.2109,-3.1934,-3.1934,-3.1934,-3.1943,-3.1973,-3.2715,-3.3555,-3.4414,-3.6445,-3.8355,-4.0378,-4.25,-4.4242,-4.5669,-4.6355,-4.68,-4.6992,-4.7329,-4.7497,-4.7497,-4.7497,-4.7497,-4.7497,-4.7497,-4.7497,-4.7473,-4.6944,-4.6716,-4.6643,-4.5778,-4.5309,-4.5104,-4.4768,-4.4639,-4.484,-4.5086,-4.5231,-4.5296,-4.5654,-4.551,-4.5058,-4.433,-4.3966,-4.3689,-4.3137,-4.2974,-4.2936,-4.2735,-4.3144,-4.3733,-4.448,-4.5813,-4.7108,-4.8055,-4.8689,-4.9074,-4.9074,-4.8246,-4.7448,-4.7216,-4.6664,-4.6142,-4.5924,-4.588,-4.588,-4.588,-4.588,-4.588,-4.588,-4.588,-4.588,-4.588,-4.588,-4.588,-4.588,-4.588,-4.606,-4.6403,-4.6594,-4.6771,-4.7121,-4.8392,-4.9262,-4.9805,-5.1177,-5.254,-5.3814,-5.408,-5.4825,-5.6001,-5.6001,-5.6462,-2.6188,-2.694,-2.7658,-2.9151,-2.944,-2.9558,-2.9776,-2.931,-2.8527,-2.767,-2.6957,-2.6206,-2.5372,-2.6048,-2.7204,-2.848,-2.9553,-3.0537,-3.1426,-3.1553,-3.1562,-3.1582,-3.1601,-3.1924,-3.2715,-3.2832,-3.3203,-3.4043,-3.5092,-3.7318,-4.0793,-4.1972,-4.3834,-4.6668,-4.674,-4.6992,-4.7497,-4.7497,-4.7497,-4.7497,-4.7497,-4.7497,-4.7497,-4.7497,-4.7497,-4.7473,-4.6968,-4.6752,-4.6716,-4.6187,-4.5657,-4.5176,-4.514,-4.4941,-4.484,-4.484,-4.5196,-4.578,-4.618,-4.561,-4.4706,-4.4669,-4.4292,-4.374,-4.3187,-4.2999,-4.2873,-4.2346,-4.34,-4.4597,-4.463,-4.6165,-4.7998,-4.8499,-4.9204,-4.964,-4.9669,-4.9175,-4.8551,-4.7941,-4.7288,-4.6635,-4.6026,-4.5938,-4.5924,-4.588,-4.5924,-4.5924,-4.588,-4.588,-4.588,-4.588,-4.588,-4.588,-4.588,-4.588,-4.597,-4.621,-4.6403,-4.6683,-4.6916,-4.8692,-4.9757,-4.9852,-5.2193,-5.3724,-5.4576,-5.5289,-5.6001,-5.668,-5.668,-5.6911,-2.6747,-2.7765,-2.8707,-2.9366,-2.944,-2.9484,-2.9515,-2.889,-2.7927,-2.6564,-2.5666,-2.4737,-2.3308,-2.517,-2.6921,-2.6931,-2.9051,-3.1016,-3.1885,-3.2002,-3.2119,-3.2432,-3.2744,-3.29,-3.2803,-3.3369,-3.3965,-3.4502,-3.7126,-3.9354,-4.0979,-4.3886,-4.5894,-4.6704,-4.7088,-4.7365,-4.7497,-4.7497,-4.7497,-4.7497,-4.7497,-4.7497,-4.7497,-4.7497,-4.7497,-4.7497,-4.7365,-4.7305,-4.7257,-4.6728,-4.6199,-4.5694,-4.5297,-4.4941,-4.484,-4.5086,-4.5073,-4.5031,-4.5922,-4.6125,-4.5811,-4.5397,-4.4882,-4.4317,-4.3765,-4.3313,-4.2949,-4.2798,-4.278,-4.3125,-4.4306,-4.5052,-4.5917,-4.7714,-4.8577,-4.9088,-4.9567,-4.9175,-4.8667,-4.8522,-4.7593,-4.678,-4.6621,-4.6592,-4.6432,-4.5953,-4.6287,-4.6417,-4.5953,-4.588,-4.588,-4.588,-4.588,-4.588,-4.588,-4.588,-4.597,-4.621,-4.6403,-4.6683,-4.6916,-4.8225,-4.9431,-5.0579,-5.1888,-5.3416,-5.5338,-5.5537,-5.6001,-5.668,-5.668,-5.6911,-2.749,-2.8333,-2.9103,-2.945,-2.931,-2.8867,-2.8418,-2.761,-2.6358,-2.417,-2.3558,-2.2741,-2.0805,-2.3122,-2.5314,-2.5486,-2.8074,-3.0568,-3.1728,-3.2051,-3.2324,-3.2744,-3.3008,-3.3203,-3.334,-3.3789,-3.4414,-3.5215,-3.8203,-4.0322,-4.1308,-4.4778,-4.6812,-4.7052,-4.7341,-4.7497,-4.7497,-4.7497,-4.7497,-4.7497,-4.7497,-4.7497,-4.7497,-4.7497,-4.7497,-4.7497,-4.7497,-4.7497,-4.7473,-4.7185,-4.6607,-4.5898,-4.5597,-4.5146,-4.484,-4.4963,-4.5134,-4.5167,-4.5839,-4.603,-4.5899,-4.5585,-4.5095,-4.4518,-4.3966,-4.3589,-4.3237,-4.2748,-4.2396,-4.2531,-4.3901,-4.4358,-4.5066,-4.7009,-4.8071,-4.8827,-4.9175,-4.9204,-4.9059,-4.8783,-4.7927,-4.7245,-4.7245,-4.7245,-4.7129,-4.6766,-4.7013,-4.7114,-4.6766,-4.6229,-4.588,-4.588,-4.588,-4.588,-4.588,-4.588,-4.597,-4.6046,-4.6592,-4.68,-4.6771,-4.8364,-4.9786,-5.0864,-5.2363,-5.3966,-5.562,-5.5935,-5.6299,-5.668,-5.668,-5.6668,-2.8269,-2.8718,-2.9103,-2.9331,-2.8871,-2.8109,-2.7085,-2.5903,-2.4207,-2.1502,-2.1117,-2.0613,-1.8513,-2.0828,-2.3514,-2.4412,-2.7084,-2.9621,-3.1328,-3.1894,-3.2324,-3.2744,-3.2891,-3.3252,-3.4004,-3.418,-3.4746,-3.5928,-3.8611,-4.0639,-4.1801,-4.5034,-4.7028,-4.7485,-4.7497,-4.7497,-4.7497,-4.7497,-4.7497,-4.7497,-4.7497,-4.7497,-4.7497,-4.7497,-4.7497,-4.7497,-4.7497,-4.7497,-4.7497,-4.7497,-4.692,-4.6018,-4.5958,-4.5573,-4.4938,-4.4988,-4.5331,-4.5817,-4.5817,-4.571,-4.5497,-4.5573,-4.5158,-4.4531,-4.4053,-4.3865,-4.3589,-4.2559,-4.2208,-4.2474,-4.3477,-4.413,-4.4851,-4.6475,-4.7688,-4.8493,-4.858,-4.9103,-4.9407,-4.8943,-4.8348,-4.7912,-4.7912,-4.7912,-4.7869,-4.7796,-4.7854,-4.7869,-4.7796,-4.6824,-4.6142,-4.6142,-4.6142,-4.6142,-4.6142,-4.6142,-4.6142,-4.6142,-4.6938,-4.7178,-4.6874,-4.8992,-5.0453,-5.0985,-5.3166,-5.4754,-5.56,-5.6305,-5.668,-5.668,-5.6597,-5.6293,-2.8755,-2.8929,-2.8984,-2.9103,-2.8542,-2.7554,-2.6442,-2.44,-2.2337,-2.0512,-1.9393,-1.8623,-1.8201,-2.0458,-2.2941,-2.4688,-2.7017,-2.9405,-3.1279,-3.1894,-3.2324,-3.2744,-3.3418,-3.3906,-3.4062,-3.4736,-3.54,-3.5976,-3.8269,-4.0392,-4.218,-4.5559,-4.7401,-4.7497,-4.7497,-4.7497,-4.7497,-4.7497,-4.7497,-4.7497,-4.7497,-4.7497,-4.7497,-4.7497,-4.7497,-4.7497,-4.7497,-4.7497,-4.7497,-4.7497,-4.7136,-4.6535,-4.6347,-4.617,-4.5809,-4.5735,-4.5696,-4.5817,-4.6072,-4.571,-4.5204,-4.5905,-4.5472,-4.4606,-4.4505,-4.4166,-4.3664,-4.3024,-4.2509,-4.2524,-4.416,-4.4153,-4.4351,-4.6574,-4.7076,-4.7303,-4.7825,-4.8435,-4.9016,-4.9422,-4.9001,-4.8551,-4.8551,-4.8551,-4.8377,-4.7869,-4.8217,-4.8362,-4.784,-4.7593,-4.7448,-4.7448,-4.7448,-4.7448,-4.7448,-4.7448,-4.7448,-4.7448,-4.8014,-4.8213,-4.8186,-4.9652,-5.0845,-5.1481,-5.3419,-5.4744,-5.5376,-5.627,-5.668,-5.668,-5.6084,-5.5812,-2.8874,-2.8984,-2.9057,-2.9081,-2.8131,-2.6774,-2.5219,-2.3019,-2.075,-1.8513,-1.7752,-1.7238,-1.6395,-1.881,-2.1388,-2.2447,-2.4985,-2.7496,-2.9747,-3.0762,-3.1553,-3.2419,-3.3428,-3.416,-3.4375,-3.5,-3.5752,-3.6621,-3.8401,-4.033,-4.23,-4.5687,-4.7497,-4.7497,-4.7497,-4.7497,-4.7497,-4.7497,-4.7497,-4.7497,-4.7497,-4.7497,-4.7497,-4.7497,-4.7497,-4.7497,-4.7497,-4.7497,-4.7497,-4.7497,-4.7185,-4.6655,-4.6255,-4.6105,-4.6068,-4.565,-4.5817,-4.6059,-4.618,-4.583,-4.5285,-4.5799,-4.5309,-4.4618,-4.4618,-4.4242,-4.374,-4.3476,-4.2798,-4.2536,-4.3851,-4.4106,-4.4502,-4.579,-4.6481,-4.71,-4.8058,-4.8522,-4.8914,-4.9553,-4.9422,-4.9219,-4.9219,-4.9219,-4.9117,-4.8812,-4.903,-4.9117,-4.8812,-4.8769,-4.8508,-4.7854,-4.7782,-4.7782,-4.7782,-4.7782,-4.7782,-4.7782,-4.8463,-4.8679,-4.854,-4.9944,-5.0999,-5.159,-5.3297,-5.4581,-5.5296,-5.6241,-5.668,-5.6663,-5.5951,-5.5421,-2.8746,-2.892,-2.9002,-2.9072,-2.7753,-2.5918,-2.3946,-2.177,-1.9384,-1.6734,-1.6294,-1.6083,-1.5084,-1.7303,-1.9556,-2.0492,-2.2909,-2.5566,-2.8287,-2.9563,-3.0801,-3.2111,-3.3447,-3.4336,-3.4668,-3.5205,-3.6025,-3.7207,-3.9085,-4.1124,-4.2875,-4.5891,-4.7497,-4.7497,-4.7497,-4.7497,-4.7497,-4.7497,-4.7497,-4.7497,-4.7497,-4.7497,-4.7497,-4.7497,-4.7497,-4.7497,-4.7497,-4.7497,-4.7497,-4.7497,-4.7257,-4.6812,-4.6303,-4.6178,-4.6228,-4.5699,-4.5817,-4.6313,-4.6313,-4.6024,-4.5648,-4.5535,-4.5095,-4.4606,-4.448,-4.4141,-4.3777,-4.3664,-4.2999,-4.2541,-4.3385,-4.3979,-4.4569,-4.5052,-4.5952,-4.694,-4.8072,-4.8435,-4.8711,-4.9349,-4.948,-4.9524,-4.9654,-4.9553,-4.9524,-4.9654,-4.9669,-4.9669,-4.9669,-4.9669,-4.9291,-4.829,-4.8188,-4.8188,-4.8188,-4.8188,-4.8188,-4.8188,-4.8924,-4.9172,-4.8968,-5.0218,-5.106,-5.1252,-5.2833,-5.3871,-5.4599,-5.5545,-5.6062,-5.62,-5.5487,-5.4841,-2.8333,-2.8709,-2.8893,-2.8615,-2.7308,-2.5381,-2.3027,-2.0567,-1.8284,-1.6184,-1.5203,-1.5019,-1.5982,-1.6716,-1.8101,-2.1025,-2.2625,-2.4588,-2.7631,-2.9466,-3.0926,-3.2119,-3.3652,-3.4658,-3.4697,-3.5459,-3.6338,-3.7226,-4.0619,-4.3338,-4.4925,-4.6638,-4.7497,-4.7497,-4.7497,-4.7497,-4.7497,-4.7497,-4.7497,-4.7497,-4.7497,-4.7497,-4.7497,-4.7497,-4.7497,-4.7497,-4.7497,-4.7497,-4.7497,-4.7497,-4.7473,-4.7329,-4.6963,-4.679,-4.6744,-4.6325,-4.6313,-4.6313,-4.6313,-4.6276,-4.615,-4.5648,-4.5095,-4.4531,-4.4028,-4.384,-4.3689,-4.3187,-4.2974,-4.2898,-4.301,-4.3444,-4.3978,-4.4955,-4.5624,-4.6156,-4.6853,-4.7462,-4.8058,-4.8682,-4.8812,-4.9001,-4.9582,-4.9204,-4.9016,-4.9596,-4.9669,-4.9669,-4.9669,-4.9669,-4.964,-4.9509,-4.9494,-4.9494,-4.9494,-4.9494,-4.9494,-4.9494,-4.9858,-5.0066,-5.0324,-5.0864,-5.0939,-5.0318,-5.1553,-5.2179,-5.2245,-5.3165,-5.3994,-5.4692,-5.3964,-5.3583,-2.7554,-2.8306,-2.8828,-2.8408,-2.6912,-2.5071,-2.2797,-2.0255,-1.7853,-1.6056,-1.5065,-1.4735,-1.545,-1.6111,-1.7238,-1.9497,-2.0541,-2.1966,-2.4543,-2.6626,-2.8343,-2.9959,-3.2332,-3.4131,-3.4648,-3.5498,-3.6377,-3.7236,-4.0011,-4.1912,-4.2624,-4.5685,-4.7497,-4.7497,-4.7497,-4.7497,-4.7497,-4.7497,-4.7497,-4.7497,-4.7497,-4.7497,-4.7497,-4.7497,-4.7497,-4.7497,-4.7497,-4.7497,-4.7497,-4.7497,-4.7497,-4.7401,-4.6847,-4.6687,-4.6806,-4.6215,-4.6193,-4.6313,-4.6313,-4.6313,-4.6225,-4.566,-4.5334,-4.5033,-4.4468,-4.3827,-4.3401,-4.384,-4.3489,-4.3049,-4.3388,-4.408,-4.494,-4.5609,-4.6124,-4.6519,-4.678,-4.7027,-4.739,-4.8029,-4.8159,-4.8232,-4.8493,-4.8638,-4.8812,-4.9074,-4.9103,-4.9248,-4.9625,-4.9001,-4.8827,-4.9596,-4.9669,-4.9669,-4.9669,-4.9669,-4.9509,-4.9132,-4.9391,-4.9406,-4.9321,-4.9642,-4.9779,-4.9643,-5.1142,-5.1907,-5.1891,-5.3302,-5.4194,-5.4494,-5.3765,-5.3649,-2.6545,-2.7536,-2.8256,-2.7789,-2.6406,-2.4592,-2.2073,-1.9765,-1.7596,-1.5725,-1.49,-1.4565,-1.4772,-1.5533,-1.6547,-1.7812,-1.8898,-2.0338,-2.2695,-2.4688,-2.6693,-2.8687,-3.1046,-3.2991,-3.4219,-3.5469,-3.6514,-3.7246,-3.9344,-4.0665,-4.08,-4.4709,-4.6808,-4.6808,-4.7232,-4.7497,-4.7497,-4.7497,-4.7497,-4.7497,-4.7497,-4.7497,-4.7497,-4.7497,-4.7497,-4.7497,-4.7497,-4.7497,-4.7485,-4.7341,-4.7269,-4.7161,-4.6616,-4.6455,-4.6597,-4.6165,-4.6072,-4.6313,-4.6313,-4.6313,-4.625,-4.5861,-4.5623,-4.5384,-4.4794,-4.3966,-4.335,-4.3966,-4.3576,-4.3074,-4.3463,-4.4431,-4.5431,-4.5813,-4.6324,-4.6824,-4.6824,-4.6824,-4.6969,-4.7404,-4.7491,-4.7564,-4.7753,-4.7999,-4.8232,-4.842,-4.8435,-4.8609,-4.9059,-4.8333,-4.8116,-4.9016,-4.9117,-4.9262,-4.964,-4.9669,-4.9407,-4.8769,-4.8902,-4.8908,-4.854,-4.8608,-4.8775,-4.897,-5.0012,-5.0892,-5.1591,-5.2822,-5.3813,-5.451,-5.398,-5.4146,-2.5317,-2.6289,-2.6609,-2.6609,-2.5683,-2.3941,-2.0686,-1.8999,-1.744,-1.5019,-1.4515,-1.4445,-1.4178,-1.496,-1.5894,-1.6445,-1.8056,-2.0237,-2.2973,-2.4833,-2.6701,-2.8949,-3.0043,-3.1302,-3.3185,-3.5391,-3.6846,-3.7266,-3.907,-4.0334,-4.0779,-4.3736,-4.5278,-4.5278,-4.6808,-4.7497,-4.7497,-4.7497,-4.7497,-4.7497,-4.7497,-4.7497,-4.7497,-4.7497,-4.7497,-4.7497,-4.7497,-4.7497,-4.7461,-4.6932,-4.6716,-4.6619,-4.6308,-4.6142,-4.6068,-4.6272,-4.6313,-4.6313,-4.6313,-4.6313,-4.6313,-4.6301,-4.5937,-4.5384,-4.4794,-4.4229,-4.3677,-4.3137,-4.2986,-4.2974,-4.2986,-4.4238,-4.5438,-4.5438,-4.6139,-4.6824,-4.6824,-4.6824,-4.6824,-4.6838,-4.6838,-4.7042,-4.768,-4.7259,-4.7056,-4.7695,-4.7796,-4.7796,-4.7796,-4.7796,-4.7782,-4.7796,-4.7796,-4.8304,-4.9567,-4.9669,-4.9407,-4.8769,-4.8931,-4.8922,-4.8555,-4.8163,-4.8001,-4.8297,-4.7653,-4.8523,-5.0879,-5.0944,-5.22,-5.4527,-5.451,-5.4908,-2.1704,-2.2951,-2.3904,-2.3052,-2.2557,-2.1649,-1.9237,-1.8174,-1.7015,-1.47,-1.4378,-1.4264,-1.3559,-1.4705,-1.6328,-1.8241,-1.9677,-2.1291,-2.3657,-2.5919,-2.7659,-2.8411,-3.1465,-3.3824,-3.5098,-3.6094,-3.6728,-3.6855,-3.7667,-3.8236,-3.8375,-4.0295,-4.2502,-4.5255,-4.6662,-4.7497,-4.7497,-4.7497,-4.7497,-4.7497,-4.7497,-4.7497,-4.7497,-4.7497,-4.7305,-4.6968,-4.6968,-4.6764,-4.6415,-4.6235,-4.6175,-4.6102,-4.591,-4.5881,-4.6068,-4.6016,-4.6072,-4.6313,-4.6313,-4.6313,-4.6313,-4.6313,-4.62,-4.5874,-4.4907,-4.4242,-4.3689,-4.3137,-4.325,-4.3451,-4.3074,-4.4526,-4.594,-4.5546,-4.6785,-4.7883,-4.7013,-4.6824,-4.6708,-4.6258,-4.6185,-4.6243,-4.6446,-4.6679,-4.6896,-4.71,-4.7129,-4.7288,-4.7724,-4.7027,-4.6824,-4.7695,-4.739,-4.7477,-4.8319,-4.8377,-4.8116,-4.7462,-4.7634,-4.7618,-4.7228,-4.717,-4.7331,-4.7608,-4.8499,-4.9279,-4.9962,-5.112,-5.2372,-5.3661,-5.4721,-5.5405,-1.9131,-2.0503,-2.1429,-2.0814,-2.0539,-1.9943,-1.8082,-1.7348,-1.6419,-1.4325,-1.3987,-1.3778,-1.2688,-1.4025,-1.589,-1.7492,-1.9154,-2.0961,-2.3153,-2.5489,-2.7592,-2.8956,-3.2083,-3.4502,-3.5082,-3.584,-3.6494,-3.666,-3.6914,-3.7129,-3.7295,-3.8644,-4.0668,-4.3034,-4.5302,-4.6644,-4.7209,-4.7209,-4.7209,-4.7209,-4.7004,-4.6908,-4.6908,-4.6908,-4.6728,-4.6415,-4.6415,-4.6235,0.0,-4.5706,-4.5621,-4.5573,-4.5421,-4.5463,-4.5785,-4.582,-4.6059,-4.6313,-4.6313,-4.6313,-4.6313,-4.6313,-4.6175,-4.5824,-4.4907,-4.4091,-4.3426,-4.3074,-4.3225,-4.3413,-4.3074,-4.4657,-4.6238,-4.5872,-4.7249,-4.8508,-4.7709,-4.7172,-4.678,-4.6635,-4.6403,-4.6243,-4.6243,-4.6563,-4.6751,-4.6505,-4.6475,-4.6621,-4.7013,-4.6374,-4.6185,-4.6983,-4.6708,-4.6635,-4.7027,-4.7506,-4.7521,-4.6974,-4.7205,-4.7093,-4.6697,-4.6931,-4.7121,-4.7309,-4.8569,-4.9418,-4.9928,-5.1862,-5.3182,-5.4033,-5.5058,-5.5693,0.0,-1.8537,-1.9045,-1.9412,-1.9167,-1.8528,-1.7012,-1.636,0.0,-1.3742,-1.339,-1.305,-1.1788,-1.3252,-1.4782,-1.5129,-1.7316,-1.9752,-2.2208,-2.43,-2.6984,-3.0467,-3.2391,-3.3554,-3.3743,-3.5159,-3.6182,-3.6592,-3.6621,-3.6797,-3.7187,-3.8553,-3.9361,-3.9351,-4.2514,-4.4972,-4.6513,-4.6513,-4.6513,-4.6655,-4.6162,-4.5922,-4.5922,-4.5922,-4.5898,-4.5862,-4.5862,-4.585,-4.5778,-4.5285,-4.508,-4.5032,-4.4787,-4.4963,-4.5331,-4.5696,-4.5951,-4.6313,-4.6313,-4.6313,-4.6313,-4.6313,-4.5937,-4.5384,-4.4844,-4.3915,-4.3024,-4.2986,-4.2974,-4.2974,-4.2974,-4.4657,-4.6333,-4.6333,-4.7572,-4.8783,-4.874,-4.7796,-4.7129,-4.768,-4.7303,-4.6896,-4.6896,-4.6896,-4.6693,-4.6113,-4.6026,-4.6026,-4.6026,-4.5982,-4.5967,-4.6011,-4.5982,-4.5967,-4.6011,-4.7013,-4.7497,-4.7175,-4.7313,-4.7318,-4.7005,-4.7195,-4.7399,-4.7444,-4.8102,-4.9201,-5.0706,-5.2801,-5.4301,-5.5215,-5.5296,-5.5845,-1.2597,0.0,-1.5588,-1.5359,-1.5292,-1.5151,0.0,-1.4281,-1.386,-1.232,-1.2397,-1.2585,-1.2207,-1.3207,-1.5033,-1.7714,-1.9711,-2.1804,-2.429,-2.7116,-3.0014,-3.2923,-3.3895,-3.458,-3.4906,-3.5654,-3.6064,-3.6172,-3.6172,-3.6211,-3.6318,-3.6573,-3.738,-3.8429,-3.9664,-4.1549,-4.4472,-4.4484,-4.5018,-4.6102,-4.5982,-4.5922,-4.5922,-4.5922,-4.5706,-4.5321,-4.5321,-4.5092,-4.4708,-4.4587,-4.4539,-4.4515,-4.4395,-4.4594,-4.4963,-4.5331,-4.5574,-4.5939,-4.6193,-4.6313,-4.6313,-4.6313,-4.5937,-4.546,-4.5321,-4.4493,-4.3526,-4.3099,-4.2974,-4.2974,-4.2974,-4.4657,-4.6333,-4.6333,-4.7881,-4.932,-4.8827,-4.8493,-4.8174,-4.7854,-4.7666,-4.755,-4.755,-4.755,-4.7506,-4.7361,-4.7332,-4.7332,-4.7332,-4.6911,-4.6795,-4.7288,-4.6896,-4.6809,-4.7303,-4.6891,-4.6515,-4.6459,-4.6801,-4.7214,-4.7644,-4.7954,-4.8297,-4.879,-4.9449,-5.0261,-5.1256,-5.2352,-5.3371,-5.4317,-5.4968,-5.6123,-1.0656,-1.2356,-1.4036,-1.4276,-1.4153,-1.4007,-1.426,-1.3733,-1.2845,-1.1737,-1.1907,-1.226,-1.2145,-1.3673,-1.5723,-1.8272,-2.0506,-2.3044,-2.6231,-2.8765,-3.115,-3.3582,-3.4313,-3.4883,-3.5342,-3.5771,-3.6016,-3.6016,-3.6016,-3.6016,-3.6016,-3.6016,-3.6413,-3.7069,-3.7425,-3.9216,-4.2489,-4.3157,-4.382,-4.463,-4.4928,-4.5201,-4.5201,-4.5201,-4.5044,-4.4768,-4.4768,-4.4611,-4.4347,-4.4347,-4.4347,-4.4347,-4.4347,-4.447,-4.484,-4.4963,-4.5331,-4.5817,-4.6059,-4.618,-4.6313,-4.6313,-4.61,-4.5811,-4.556,-4.5058,-4.4405,-4.3589,-4.3363,-4.33,-4.3037,-4.4235,-4.5714,-4.6228,-4.7689,-4.8964,-4.9122,-4.8928,-4.8711,-4.8667,-4.8406,-4.8217,-4.8217,-4.8217,-4.8116,-4.7825,-4.7782,-4.7782,-4.7782,-4.7477,-4.7404,-4.7738,-4.7477,-4.7404,-4.7753,-4.7512,-4.7151,-4.6858,-4.6816,-4.7228,-4.806,-4.8193,-4.873,-4.9688,-5.0047,-5.0545,-5.1364,-5.1729,-5.2695,-5.3976,-5.4469,-5.5621,-1.0212,-1.1774,-1.3447,-1.425,-1.4055,-1.3893,-1.4712,-1.3631,-1.2325,-1.171,-1.1905,-1.2147,-1.2297,-1.4249,-1.6508,-1.8177,-2.0985,-2.427,-2.8155,-2.9832,-3.1464,-3.3277,-3.4274,-3.4853,-3.5244,-3.5732,-3.6016,-3.6016,-3.6016,-3.6016,-3.6016,-3.6016,-3.6016,-3.6016,-3.6016,-3.7375,-4.0274,-4.1581,-4.2514,-4.3053,-4.3663,-4.4087,-4.4347,-4.4347,-4.4347,-4.4347,-4.4347,-4.4347,-4.4347,-4.4347,-4.4347,-4.4347,-4.4347,-4.447,-4.4717,-4.484,-4.5208,-4.5696,-4.5817,-4.6059,-4.6313,-4.6313,-4.6313,-4.6225,-4.5748,-4.5547,-4.5271,-4.4217,-4.3865,-4.3677,-4.3124,-4.3823,-4.4993,-4.6018,-4.7177,-4.8338,-4.9473,-4.9248,-4.903,-4.9567,-4.9233,-4.887,-4.887,-4.887,-4.8696,-4.8159,-4.8072,-4.8072,-4.8072,-4.7985,-4.797,-4.8058,-4.7985,-4.797,-4.8058,-4.8439,-4.8437,-4.7877,-4.7496,-4.7702,-4.8551,-4.8686,-4.9254,-5.0361,-5.0391,-5.0661,-5.1214,-5.1214,-5.2078,-5.3821,-5.3891,-5.4966,-1.0,-1.133,-1.2424,-1.236,-1.2595,-1.2924,-1.3197,-1.2799,-1.2312,-1.2175,-1.2412,-1.2966,-1.3908,-1.4885,-1.6528,-1.9532,-2.3331,-2.6948,-2.9823,-3.0736,-3.1674,-3.3282,-3.4219,-3.4726,-3.4795,-3.5547,-3.6016,-3.6016,-3.6016,-3.6016,-3.6016,-3.6016,-3.6016,-3.6016,-3.6016,-3.6317,-3.6773,-3.8212,-4.0051,-4.2408,-4.2581,-4.3189,-4.4347,-4.4347,-4.4347,-4.4347,-4.4347,-4.4347,-4.4347,-4.4347,-4.4347,-4.4347,-4.4347,-4.4347,-4.447,-4.4717,-4.5074,-4.5453,-4.6072,-4.6313,-4.6313,-4.6313,-4.6313,-4.6288,-4.6213,-4.5861,-4.5347,-4.4681,-4.4166,-4.3677,-4.3124,-4.3823,-4.4993,-4.6018,-4.7177,-4.8338,-4.9473,-4.9596,-4.9553,-4.9654,-4.9596,-4.9538,-4.9538,-4.9538,-4.9494,-4.9393,-4.9378,-4.9378,-4.9378,-4.8914,-4.8783,-4.932,-4.8899,-4.8798,-4.9335,-4.9362,-4.9292,-4.9189,-4.9042,-4.9254,-4.9912,-5.0466,-5.087,-5.1065,-5.1065,-5.1124,-5.1214,-5.1214,-5.1742,-5.2858,-5.3632,-5.4889,-0.9421,-1.0509,-1.151,-1.1668,-1.2687,-1.3808,-1.4256,-1.353,-1.2792,-1.2792,-1.3026,-1.3547,0.0,-1.5817,-1.8044,-2.2086,-2.5785,-2.8626,-3.0156,-3.1228,-3.2104,-3.2971,-3.3856,-3.4365,-3.4365,-3.4932,-3.541,-3.5664,-3.5684,-3.5781,-3.6006,-3.6016,-3.6016,-3.6016,-3.6016,-3.6016,-3.6016,-3.6674,-3.7986,-4.0073,-4.1633,-4.2673,-4.3189,-4.3962,-4.4347,-4.4347,-4.4347,-4.4347,-4.4347,-4.4347,-4.4347,-4.4347,-4.4347,-4.4347,-4.4347,-4.4717,-4.4963,-4.5331,-4.5817,-4.6193,-4.6313,-4.6313,-4.61,-4.5861,-4.5861,-4.5472,-4.4907,-4.4342,-4.4003,-4.3677,-4.3124,-4.3406,-4.4248,-4.5913,-4.675,-4.7587,-4.936,-4.9669,-4.9669,-4.9669,-4.9669,-4.9669,-4.9669,-4.9669,-4.9669,-4.9669,-4.9669,-4.9669,-4.9669,-4.9422,-4.9349,-4.964,-4.9407,-4.9364,-4.9654,-4.9904,-4.9814,-4.9382,-4.9672,-4.9927,-5.0227,-5.087,-5.1214,-5.1214,-5.1214,-5.1214,-5.1214,-5.1214,-5.165,-5.2606,-5.3545,-5.4661,-0.9079,-1.0004,-1.0992,-1.1559,-1.2995,-1.4406,-1.5362,-1.4559,-1.3721,-1.4062,-1.4309,-1.4689,-1.5438,-1.7599,-2.0349,-2.4128,-2.7544,-2.997,-3.0298,-3.1541,-3.2565,-3.3009,-3.3681,-3.4072,-3.4072,-3.4453,-3.4853,-3.5205,-3.5234,-3.5371,-3.5693,-3.581,-3.5869,-3.5869,-3.5967,-3.6016,-3.6016,-3.6016,-3.6674,-3.8109,-4.0592,-4.2027,-4.2293,-4.3701,-4.4347,-4.4347,-4.4347,-4.4347,-4.4347,-4.4347,-4.4347,-4.4347,-4.4347,-4.4347,-4.4347,-4.4717,-4.4963,-4.5331,-4.5696,-4.6059,-4.6288,-4.6163,-4.5836,-4.546,-4.5321,-4.4882,-4.4342,-4.3915,-4.3714,-4.3514,-4.3087,-4.2974,-4.3504,-4.5502,-4.6123,-4.6854,-4.8838,-4.9473,-4.9669,-4.9669,-4.9669,-4.9669,-4.9669,-4.9669,-4.9669,-4.9669,-4.9669,-4.9669,-4.9669,-4.9669,-4.9669,-4.9669,-4.9669,-4.9781,-4.9878,-5.0279,-5.0342,-4.9793,-5.0197,-5.0466,-5.0466,-5.0945,-5.1214,-5.1214,-5.1214,-5.1214,-5.1214,-5.1214,-5.1557,-5.2245,-5.3196,-5.4147,-0.9555,-1.0337,-1.1128,-1.1966,-1.2694,-1.3654,-1.5087,-1.5147,-1.5224,-1.6587,-1.6881,-1.7001,-1.7328,-2.0479,-2.3303,-2.4475,-2.8043,-3.0728,-3.1115,-3.2085,-3.3009,-3.3292,-3.3809,-3.4072,-3.4072,-3.4453,-3.4707,-3.4746,-3.4746,-3.4766,-3.4795,-3.5205,-3.5439,-3.5439,-3.582,-3.6016,-3.6016,-3.6016,-3.6674,-3.8109,-3.9681,-4.098,-4.2293,-4.3701,-4.4347,-4.4347,-4.4347,-4.4347,-4.4347,-4.4347,-4.4347,-4.4347,-4.4347,-4.4347,-4.4347,-4.4717,-4.4963,-4.5331,-4.5696,-4.6059,-4.6225,-4.5711,-4.5522,-4.5384,-4.4844,-4.4305,-4.3853,-4.3815,-4.3426,-4.3024,-4.2986,-4.2974,-4.3295,-4.4574,-4.5608,-4.6646,-4.7819,-4.8951,-4.9669,-4.9669,-4.9669,-4.9669,-4.9669,-4.9669,-4.9669,-4.9669,-4.9669,-4.9669,-4.9669,-4.9669,-4.9669,-4.9669,-4.9669,-4.9878,-5.039,-5.0647,-5.0872,-5.1079,-5.1124,-5.1154,-5.1154,-5.1184,-5.1214,-5.1214,-5.1214,-5.1214,-5.1214,-5.1214,-5.1214,-5.1293,-5.226,-5.3212,-0.8932,-0.9993,-1.1112,-1.1608,-1.2775,-1.4084,-1.5184,-1.5498,-1.5893,-1.7188,-1.7422,-1.7569,-1.8056,-2.0892,-2.3456,-2.418,-2.7697,-3.0464,-3.1096,-3.2161,-3.3009,-3.3389,-3.3574,-3.3672,-3.3672,-3.3809,-3.4014,-3.4287,-3.4316,-3.4424,-3.4687,-3.4863,-3.4961,-3.4961,-3.5117,-3.5195,-3.5195,-3.5195,-3.5451,-3.597,-3.7961,-3.9681,-4.098,-4.242,-4.3451,-4.4347,-4.4347,-4.4347,-4.4347,-4.4347,-4.4347,-4.4311,-4.3962,-4.383,-4.3782,-4.359,-4.3711,-4.4059,-4.4442,-4.468,-4.501,-4.4903,-4.4719,-4.4392,-4.4179,-4.3727,-4.3288,-4.3288,-4.3137,-4.2974,-4.2974,-4.2974,-4.3295,-4.4466,-4.4993,-4.582,-4.7601,-4.8338,-4.8852,-4.9571,-4.9669,-4.9669,-4.9669,-4.9669,-4.9669,-4.9669,-4.9669,-4.9669,-4.9669,-4.9669,-4.9669,-4.9669,-4.9878,-5.0086,-5.0501,-5.0647,-5.0917,-5.1214,-5.1214,-5.1214,-5.1214,-5.1214,-5.1214,-5.1214,-5.1214,-5.1214,-5.1214,-5.1214,-5.1214,-5.1214,-5.217,-5.3124,-0.8775,-0.9888,-1.1144,-1.1589,-1.2807,-1.4251,-1.5563,-1.5894,-1.6485,-1.8143,-1.8417,-1.8628,-1.9394,-2.1662,-2.3787,-2.4621,-2.7812,-3.0338,-3.0888,-3.2063,-3.29,-3.3193,-3.334,-3.3418,-3.3418,-3.3418,-3.3545,-3.3838,-3.3867,-3.3994,-3.4277,-3.4424,-3.4502,-3.4502,-3.4629,-3.4697,-3.4697,-3.4697,-3.4697,-3.4707,-3.6344,-3.7888,-3.9466,-4.1437,-4.2799,-4.3701,-4.4099,-4.4251,-4.4082,-4.4082,-4.3986,-4.3806,-4.3421,-4.3277,-4.3228,-4.2892,-4.2986,-4.3199,-4.346,-4.3826,-4.4153,-4.4211,-4.4001,-4.3765,-4.3589,-4.3275,-4.2974,-4.2974,-4.2974,-4.2974,-4.2974,-4.2974,-4.3184,-4.3932,-4.4466,-4.5208,-4.7074,-4.7717,-4.8338,-4.9473,-4.9669,-4.9669,-4.9669,-4.9669,-4.9669,-4.9669,-4.9669,-4.9669,-4.9669,-4.9669,-4.9669,-4.9669,-4.999,-5.0294,-5.0501,-5.0742,-5.1011,-5.1214,-5.1214,-5.1214,-5.1214,-5.1214,-5.1214,-5.1214,-5.1214,-5.1214,-5.1214,-5.1214,-5.1214,-5.1214,-5.1819,-5.2858,-0.9132,-1.0097,-1.1244,-1.2024,-1.2906,-1.4062,-1.622,-1.6425,-1.6977,-1.9621,-2.0227,-2.0495,-2.1473,-2.3068,-2.4586,-2.5767,-2.8637,-3.0547,-3.0556,-3.188,-3.2783,-3.2793,-3.3164,-3.3418,-3.3418,-3.3418,-3.3418,-3.3418,-3.3418,-3.3418,-3.3418,-3.3828,-3.4062,-3.4062,-3.4473,-3.4687,-3.4687,-3.4687,-3.4687,-3.4687,-3.4687,-3.5701,-3.7587,-4.0757,-4.227,-4.2408,-4.3689,-4.401,-4.3505,-4.3505,-4.3216,-4.276,-4.2747,-4.2747,-4.2747,-4.2747,-4.2962,-4.3175,-4.3175,-4.3671,-4.4091,-4.3544,-4.3587,-4.3689,-4.315,-4.2974,-4.2974,-4.2974,-4.2974,-4.2974,-4.2974,-4.2974,-4.2974,-4.2974,-4.3823,-4.4993,-4.6018,-4.7177,-4.8338,-4.9473,-4.9669,-4.9669,-4.9669,-4.9669,-4.9669,-4.9669,-4.9669,-4.9669,-4.9669,-4.9669,-4.9669,-4.9669,-5.0183,-5.0501,-5.0501,-5.0947,-5.1214,-5.1214,-5.1214,-5.1214,-5.1214,-5.1214,-5.1214,-5.1214,-5.1214,-5.1214,-5.1214,-5.1214,-5.1214,-5.1214,-5.1214,-5.217,-0.8957,-1.0103,-1.1534,-1.2146,-1.3597,-1.527,-1.648,-1.6643,-1.7207,-1.9129,-1.9801,-2.0312,-2.172,-2.3112,-2.4549,-2.6125,-2.8228,-2.9865,-3.0471,-3.1378,-3.2012,-3.2314,-3.2725,-3.2978,-3.2978,-3.3252,-3.3418,-3.3418,-3.3418,-3.3418,-3.3418,-3.3545,-3.3613,-3.3613,-3.373,-3.3799,-3.3799,-3.3799,-3.3799,-3.3809,-3.4111,-3.5737,-3.8315,-3.8465,-3.9933,-4.2599,-4.2075,-4.2237,-4.2988,-4.2988,-4.2892,-4.2723,-4.2351,-4.2206,-4.2158,-4.1786,-4.1757,-4.1873,-4.1965,-4.2196,-4.2414,-4.2507,-4.2673,-4.2849,-4.2687,-4.2862,-4.2974,-4.2974,-4.2974,-4.2974,-4.2974,-4.2974,-4.2974,-4.2974,-4.3308,-4.3823,-4.4872,-4.6018,-4.7163,-4.8324,-4.9164,-4.9669,-4.9669,-4.9669,-4.9669,-4.9669,-4.9669,-4.9669,-4.9669,-4.9669,-4.9669,-4.9669,-5.0183,-5.0501,-5.0501,-5.0947,-5.1214,-5.1214,-5.1214,-5.1214,-5.1214,-5.1214,-5.1214,-5.1214,-5.1214,-5.1214,-5.1214,-5.1214,-5.1214,-5.1214,-5.1214,-5.1819,-0.9946,-1.1135,-1.2499,-1.3242,-1.4522,-1.5959,-1.6895,-1.741,-1.8021,-1.8925,-1.9992,-2.1194,-2.2669,-2.4118,-2.5477,-2.7029,-2.8489,-2.9596,-3.0234,-3.0921,-3.1482,-3.1875,-3.2285,-3.2549,-3.2549,-3.2773,-3.2998,-3.3164,-3.3174,-3.3242,-3.3408,-3.3418,-3.3418,-3.3418,-3.3418,-3.3418,-3.3418,-3.3418,-3.3418,-3.3428,-3.3691,-3.5053,-3.7427,-3.755,-3.8843,-4.1231,-4.1275,-4.1697,-4.2435,-4.2218,-4.2134,-4.2098,-4.1786,-4.1653,-4.1617,-4.1305,-4.1184,-4.1184,-4.139,-4.1492,-4.1606,-4.1859,-4.2187,-4.2525,-4.2525,-4.275,-4.2974,-4.2974,-4.2974,-4.2974,-4.2974,-4.2974,-4.2974,-4.2974,-4.2974,-4.3295,-4.4466,-4.5502,-4.6646,-4.7819,-4.8951,-4.9669,-4.9669,-4.9669,-4.9669,-4.9669,-4.9669,-4.9669,-4.9669,-4.9669,-4.9669,-4.9669,-5.0086,-5.039,-5.0501,-5.0837,-5.112,-5.1214,-5.1214,-5.1214,-5.1214,-5.1214,-5.1214,-5.1214,-5.1214,-5.1214,-5.1214,-5.1214,-5.1214,-5.1214,-5.1214,-5.1742,-1.1449,-1.259,-1.3713,-1.4829,-1.5572,-1.629,-1.7261,-1.8376,-1.9153,-1.8954,-2.0578,-2.2565,-2.3803,-2.5384,-2.6955,-2.8201,-2.909,-2.9558,-2.9804,-3.0472,-3.1078,-3.1465,-3.1846,-3.2109,-3.2109,-3.2148,-3.2324,-3.2715,-3.2744,-3.29,-3.3281,-3.331,-3.333,-3.3359,-3.3369,-3.3379,-3.3418,-3.3418,-3.3418,-3.3418,-3.3418,-3.4037,-3.5284,-3.7324,-3.8336,-3.8689,-4.0854,-4.1777,-4.1858,-4.1377,-4.1184,-4.1184,-4.1184,-4.1184,-4.1184,-4.1184,-4.1184,-4.1184,-4.1184,-4.1402,-4.1606,-4.1606,-4.1948,-4.24,-4.2413,-4.2638,-4.2974,-4.2974,-4.2974,-4.2974,-4.2974,-4.2974,-4.2974,-4.2974,-4.2974,-4.3295,-4.4357,-4.5502,-4.6646,-4.7601,-4.8852,-4.9669,-4.9669,-4.9669,-4.9669,-4.9669,-4.9669,-4.9669,-4.9669,-4.9669,-4.9669,-4.9669,-4.9975,-5.0198,-5.0405,-5.0647,-5.0902,-5.112,-5.1214,-5.1214,-5.1214,-5.1214,-5.1214,-5.1214,-5.1214,-5.1214,-5.1214,-5.1214,-5.1214,-5.1214,-5.1214,-5.1742,-1.0592,-1.1751,-1.3236,-1.4733,-1.6133,-1.7201,-1.743,-1.8114,-1.8685,-1.8915,-2.0413,-2.2253,-2.4086,-2.555,-2.7016,-2.8564,-2.9275,-2.9558,-2.9804,-3.0233,-3.0644,-3.1025,-3.1406,-3.166,-3.166,-3.1963,-3.2207,-3.2295,-3.2305,-3.2344,-3.2432,-3.2441,-3.2588,-3.292,-3.293,-3.3086,-3.3418,-3.3418,-3.3418,-3.3418,-3.3418,-3.3544,-3.3796,-3.4342,-3.5656,-3.7714,-3.9186,-4.0376,-4.1341,-4.1232,-4.1184,-4.1184,-4.1184,-4.1184,-4.1184,-4.1184,-4.1184,-4.1184,-4.1184,-4.1299,-4.1287,-4.1287,-4.1504,-4.1834,-4.2086,-4.2425,-4.2638,-4.2974,-4.2974,-4.2974,-4.2974,-4.2974,-4.2974,-4.2974,-4.2974,-4.3085,-4.3295,-4.4859,-4.6319,-4.6646,-4.8324,-4.9669,-4.9669,-4.9669,-4.9669,-4.9669,-4.9669,-4.9669,-4.9669,-4.9669,-4.9669,-4.9669,-4.9975,-5.0086,-5.0183,-5.0537,-5.0807,-5.0902,-5.112,-5.1214,-5.1214,-5.1214,-5.1214,-5.1214,-5.1214,-5.1214,-5.1214,-5.1214,-5.1214,-5.1214,-5.1214,-5.1742,-1.0816,-1.2071,-1.3538,-1.5403,-1.6682,-1.7485,-1.7485,-1.7948,-1.8459,-1.8606,-2.0723,-2.2906,-2.3967,-2.5704,-2.749,-2.8509,-2.8818,-2.9118,-2.9658,-2.9804,-3.0157,-3.0635,-3.0839,-3.1083,-3.1221,-3.1426,-3.1641,-3.1846,-3.1855,-3.1953,-3.2158,-3.2168,-3.2275,-3.249,-3.249,-3.2598,-3.2822,-3.3027,-3.3115,-3.3125,-3.333,-3.3418,-3.3418,-3.4027,-3.5725,-3.8257,-3.8862,-3.9954,-4.1184,-4.1184,-4.1184,-4.1184,-4.1184,-4.1184,-4.1184,-4.1184,-4.1184,-4.1184,-4.1184,-4.1184,-4.1184,-4.1184,-4.139,-4.1606,-4.1846,-4.2187,-4.2525,-4.275,-4.2862,-4.2974,-4.2974,-4.2974,-4.2974,-4.2974,-4.2974,-4.2974,-4.2974,-4.4765,-4.6333,-4.6333,-4.8108,-4.9669,-4.9669,-4.9669,-4.9669,-4.9669,-4.9669,-4.9669,-4.9669,-4.9669,-4.9669,-4.9669,-4.9878,-4.9975,-5.0086,-5.0361,-5.0537,-5.0807,-5.0917,-5.1105,-5.1214,-5.1214,-5.1214,-5.1214,-5.1214,-5.1214,-5.1214,-5.1214,-5.1214,-5.1214,-5.1214,-5.1742,-1.0876,-1.2421,-1.4008,-1.6048,-1.699,-1.7424,-1.7473,-1.7948,-1.8421,-1.8421,-2.1133,-2.3534,-2.359,-2.5812,-2.7801,-2.8214,-2.8287,-2.8514,-2.9189,-2.9235,-2.947,-3.0054,-3.0238,-3.0403,-3.0771,-3.084,-3.1035,-3.1377,-3.1406,-3.1572,-3.1934,-3.1953,-3.1982,-3.206,-3.206,-3.209,-3.2168,-3.2519,-3.2685,-3.2695,-3.3037,-3.3203,-3.3213,-3.4614,-3.6496,-3.8495,-3.8653,-3.9464,-4.0671,-4.0829,-4.0968,-4.1052,-4.1052,-4.11,-4.1184,-4.1184,-4.1184,-4.1184,-4.1184,-4.1184,-4.1184,-4.1184,-4.139,-4.1594,-4.172,-4.2061,-4.2525,-4.2525,-4.275,-4.2974,-4.2974,-4.2974,-4.2974,-4.2974,-4.2974,-4.3085,-4.3295,-4.4859,-4.6333,-4.6542,-4.831,-4.9669,-4.9669,-4.9669,-4.9669,-4.9669,-4.9582,-4.9509,-4.9509,-4.9422,-4.9349,-4.9349,-4.9451,-4.9621,-4.9814,-5.0028,-5.0279,-5.0728,-5.0807,-5.0917,-5.1214,-5.1214,-5.1214,-5.1214,-5.1214,-5.1214,-5.1214,-5.1214,-5.1214,-5.1214,-5.1214,-5.1819,-0.8962,-1.1292,-1.3912,-1.5584,-1.6573,-1.7201,-1.743,-1.7948,-1.8421,-1.8421,-2.0845,-2.3133,-2.355,-2.5596,-2.7389,-2.7783,-2.7847,-2.798,-2.8378,-2.8387,-2.8615,-2.9182,-2.9622,-2.9958,-3.0293,-3.0654,-3.0918,-3.0976,-3.0976,-3.0996,-3.1055,-3.1055,-3.123,-3.1592,-3.1601,-3.1787,-3.2168,-3.2226,-3.2256,-3.2256,-3.2305,-3.2334,-3.2476,-3.4014,-3.5237,-3.596,-3.6622,-3.763,-3.8782,-3.9534,-4.009,-4.0499,-4.0499,-4.0775,-4.1184,-4.1184,-4.1184,-4.1184,-4.1184,-4.1184,-4.1184,-4.1184,-4.139,-4.1606,-4.1972,-4.2199,-4.2525,-4.2862,-4.2974,-4.2974,-4.2974,-4.2974,-4.2974,-4.2974,-4.2974,-4.3295,-4.4248,-4.5395,-4.6542,-4.7601,-4.8852,-4.9669,-4.9669,-4.9669,-4.9669,-4.9669,-4.9204,-4.8856,-4.8856,-4.8377,-4.8029,-4.8029,-4.8522,-4.8856,-4.8856,-4.9668,-5.0198,-5.0486,-5.0728,-5.0917,-5.1214,-5.1214,-5.1214,-5.1214,-5.1214,-5.1214,-5.1214,-5.1214,-5.1214,-5.1214,-5.1214,-5.217,-0.9633,-1.1534,-1.3477,-1.5234,-1.6048,-1.6567,-1.7135,-1.7724,-1.8237,-1.8389,-2.0816,-2.3022,-2.3286,-2.525,-2.6976,-2.737,-2.7435,-2.763,-2.7965,-2.7992,-2.8106,-2.8568,-2.8729,-2.907,-2.9514,-3.0025,-3.0402,-3.0508,-3.0742,-3.0889,-3.0889,-3.0889,-3.0976,-3.1162,-3.1162,-3.126,-3.1445,-3.1689,-3.1924,-3.2168,-3.2168,-3.2168,-3.2289,-3.3638,-3.4424,-3.4741,-3.6673,-3.7732,-3.8159,-3.9236,-3.9741,-3.9982,-4.0282,-4.0535,-4.0775,-4.1076,-4.1184,-4.1184,-4.1184,-4.1184,-4.1184,-4.1184,-4.139,-4.1606,-4.1732,-4.2187,-4.2525,-4.2638,-4.2862,-4.2974,-4.2974,-4.2748,-4.2522,-4.2522,-4.2283,-4.2372,-4.349,-4.5128,-4.6854,-4.8639,-4.9072,-4.9146,-4.9146,-4.9146,-4.9016,-4.8667,-4.8377,-4.8203,-4.8203,-4.7941,-4.7782,-4.7782,-4.8348,-4.8725,-4.8725,-4.9403,-4.999,-5.0294,-5.0471,-5.0742,-5.1011,-5.112,-5.1214,-5.1214,-5.1214,-5.1214,-5.1214,-5.1214,-5.1214,-5.1214,-5.1214,-5.217,0.0,-1.1238,-1.2451,-1.4322,-1.5191,-1.5801,-1.6721,-1.7459,-1.7976,-1.8372,-2.0644,-2.2644,-2.2982,-2.5008,-2.6683,-2.6976,-2.7031,-2.7132,-2.7426,-2.7471,-2.7575,-2.7912,-2.8005,-2.8286,-2.8857,-2.9363,-2.9717,-3.0039,-3.0361,-3.0605,-3.0713,-3.0713,-3.0771,-3.0889,-3.0889,-3.0889,-3.0889,-3.1201,-3.1523,-3.1846,-3.1846,-3.1846,-3.1966,-3.3211,-3.3782,-3.3934,-3.6716,-3.7885,-3.7653,-3.8785,-3.9272,-3.9453,-3.9838,-4.0078,-4.0246,-4.0643,-4.0872,-4.0968,-4.0824,-4.0956,-4.1136,-4.0872,-4.1087,-4.1501,-4.1367,-4.1768,-4.2227,-4.2227,-4.2338,-4.2559,-4.2559,-4.2258,-4.1944,-4.1944,-4.1643,-4.1745,-4.3139,-4.494,-4.6911,-4.887,-4.8812,-4.8478,-4.8478,-4.8478,-4.8333,-4.7854,-4.7637,-4.755,-4.755,-4.739,-4.7303,-4.7303,-4.7869,-4.8246,-4.8246,-4.8827,-4.9301,-4.9604,-4.9956,-5.0221,-5.0476,-5.0828,-5.112,-5.112,-5.1214,-5.1214,-5.1214,-5.1214,-5.1214,-5.1214,-5.1214,-5.2078,-0.8413,-0.9394,-1.0526,-1.2385,-1.3821,-1.5087,-1.61,-1.7014,-1.7802,-1.8298,-1.9932,-2.1623,-2.2749,-2.5008,-2.6591,-2.6619,-2.6619,-2.6628,-2.6646,-2.6646,-2.6746,-2.7054,-2.739,-2.7854,-2.8425,-2.892,-2.9273,-2.96,-2.9629,-2.9814,-3.0215,-3.0234,-3.043,-3.0879,-3.0889,-3.0889,-3.0889,-3.0918,-3.0937,-3.0957,-3.0957,-3.0957,-3.0967,-3.2728,-3.3141,-3.2893,-3.5725,-3.6947,-3.7001,-3.7726,-3.8383,-3.8864,-3.8888,-3.92,-3.9645,-3.9681,-4.0006,-4.0367,-3.9862,-4.0343,-4.1016,-4.0018,-4.0476,-4.1238,-4.0734,-4.0889,-4.1322,-4.1322,-4.1417,-4.143,-4.143,-4.1404,-4.1379,-4.1379,-4.1354,-4.1839,-4.405,-4.5396,-4.6543,-4.768,-4.7854,-4.784,-4.784,-4.784,-4.7825,-4.7782,-4.7274,-4.6882,-4.6882,-4.6359,-4.5982,-4.5982,-4.6548,-4.6925,-4.6925,-4.7506,-4.7977,-4.8272,-4.8814,-4.9325,-4.9528,-5.0387,-5.0807,-5.0807,-5.1105,-5.1214,-5.1214,-5.1214,-5.1214,-5.1214,-5.1214,-5.1742,-0.7931,-0.8753,-0.9784,-1.1317,-1.2439,-1.3429,-1.469,-1.5915,-1.697,-1.7456,-1.9355,-2.1197,-2.2418,-2.4166,-2.5688,-2.6473,-2.6591,-2.6591,-2.6591,-2.6591,-2.6691,-2.6682,-2.692,-2.7113,-2.754,-2.7908,-2.8376,-2.8839,-2.909,-2.9414,-2.9785,-2.9795,-2.9873,-3.0039,-3.0039,-3.0312,-3.0889,-3.1162,-3.1299,-3.1299,-3.1299,-3.1152,-3.0898,-3.2286,-3.3277,-3.3909,-3.5645,-3.6397,-3.6495,-3.7619,-3.8106,-3.831,-3.8683,-3.8936,-3.914,-3.9477,-3.9729,-3.9862,-3.9669,-3.985,-4.0102,-3.9939,-4.0269,-4.0746,-4.0755,-4.1018,-4.1342,-4.1342,-4.1342,-4.1342,-4.1342,-4.1078,-4.0727,-4.0362,-4.0287,-4.0679,-4.2137,-4.4595,-4.6792,-4.7601,-4.7448,-4.7172,-4.7172,-4.7172,-4.7042,-4.6621,-4.6374,-4.6229,-4.6229,-4.6026,-4.588,-4.588,-4.6446,-4.6824,-4.6824,-4.7404,-4.7876,-4.7969,-4.8281,-4.8776,-4.9266,-4.9893,-5.0406,-5.0793,-5.1011,-5.1214,-5.1214,-5.1214,-5.1005,-5.0586,-5.0586,-5.0865,-0.7153,-0.7856,0.0,-1.0329,-1.1129,-1.1994,-1.3783,-1.4994,-1.6014,-1.699,-1.8596,-2.0288,-2.2025,-2.3116,-2.4479,-2.6318,-2.6591,-2.6591,-2.6591,-2.6591,-2.6591,-2.6591,-2.6591,-2.6691,-2.7107,-2.7341,-2.7829,-2.8404,-2.8655,-2.8988,-2.9346,-2.9355,-2.9414,-2.957,-2.957,-2.9853,-3.0439,-3.0723,-3.1016,-3.1309,-3.1309,-3.1309,-3.1318,-3.2123,-3.3361,-3.4939,-3.5725,-3.6322,-3.6893,-3.7655,-3.7986,-3.8022,-3.8395,-3.8539,-3.8575,-3.8936,-3.9176,-3.932,-3.9128,-3.9296,-3.9537,-3.9491,-3.9829,-4.0168,-4.0294,-4.0564,-4.0789,-4.0789,-4.0789,-4.0789,-4.0789,-4.0513,-4.0149,-3.9785,-3.9981,-4.0465,-4.1518,-4.3685,-4.5651,-4.6454,-4.6596,-4.6519,-4.6519,-4.6519,-4.6374,-4.5953,-4.588,-4.588,-4.588,-4.588,-4.588,-4.588,-4.6258,-4.6519,-4.6519,-4.6896,-4.7143,-4.7143,-4.7532,-4.8033,-4.8646,-4.9081,-4.9671,-5.0387,-5.0381,-5.0568,-5.0885,-5.0885,-5.0676,-5.0242,-5.0017,-5.0169,0.0,0.0,0.0,-0.9361,-0.9832,-1.0597,-1.3557,-1.4231,-1.4838,-1.6754,-1.7542,-1.869,-2.1355,-2.187,-2.288,-2.5955,-2.6554,-2.6573,-2.6591,-2.6591,-2.6591,-2.6591,-2.6591,-2.68,-2.7323,-2.7431,-2.7647,-2.8184,-2.8291,-2.8467,-2.8877,-2.8896,-2.9092,-2.9521,-2.9541,-2.956,-2.957,-2.958,-3.0019,-3.0869,-3.0869,-3.1299,-3.209,-3.2119,-3.3524,-3.5845,-3.5878,-3.6713,-3.8022,-3.801,-3.7998,-3.7998,-3.7986,-3.7986,-3.7986,-3.7986,-3.8322,-3.8719,-3.8166,-3.8671,-3.9393,-3.8655,-3.8986,-3.9529,-3.9315,-3.9478,-3.9697,-3.9697,-3.9697,-3.9697,-3.9697,-3.9697,-3.9697,-3.9697,-4.0453,-4.1419,-4.2501,-4.2792,-4.3081,-4.4125,-4.5201,-4.588,-4.588,-4.588,-4.588,-4.588,-4.588,-4.588,-4.588,-4.588,-4.588,-4.588,-4.588,-4.588,-4.588,-4.588,-4.588,-4.588,-4.6461,-4.7085,-4.7724,-4.8048,-4.8541,-4.9439,-4.9097,-4.928,-5.0212,-5.0227,-5.0227,-5.0197,-4.9523,-4.9685,-0.6018,0.0,0.0,0.0,0.0,0.0,-1.1112,-1.2056,-1.2998,-1.4581,-1.5571,-1.6821,-1.9052,-1.9985,-2.1274,-2.3826,-2.5315,-2.6243,-2.6545,-2.6591,-2.6591,-2.6591,-2.6591,-2.6691,-2.68,-2.6999,-2.7206,-2.7647,-2.7853,-2.8125,-2.8457,-2.8467,-2.8525,-2.8643,-2.8945,-2.9248,-2.957,-2.9873,-3.0146,-3.0391,-3.0391,-3.0351,-3.0312,-3.0947,-3.215,-3.3654,-3.5248,-3.6666,-3.7868,-3.8406,-3.8587,-3.8551,-3.8142,-3.7986,-3.7986,-3.7986,-3.8082,-3.819,-3.8034,-3.8178,-3.849,-3.8624,-3.8834,-3.9143,-3.9515,-3.9685,-3.9697,-3.9697,-3.9697,-3.9697,-3.9697,-3.9697,-3.9697,-3.9697,-3.9878,-4.0173,-4.0465,-4.173,-4.3368,-4.5095,-4.5685,-4.588,-4.588,-4.588,-4.588,-4.588,-4.588,-4.588,-4.588,-4.588,-4.588,-4.588,-4.588,-4.588,-4.588,-4.588,-4.588,-4.588,-4.6055,-4.6432,-4.7071,-4.7362,-4.7853,-4.8776,-4.8875,-4.9148,-4.9538,-5.0017,-5.0002,-4.9508,-4.8371,-4.8007,-0.5687,-0.6152,-0.6861,-0.7962,0.0,0.0,-1.0742,-1.1352,-1.1981,-1.3712,-1.4689,-1.5773,-1.7538,-1.8429,-1.9497,-2.1712,-2.298,-2.4306,-2.6089,-2.6325,-2.6389,-2.6564,-2.6591,-2.6691,-2.6791,-2.689,-2.7098,-2.7431,-2.7745,-2.8067,-2.8291,-2.8291,-2.8291,-2.8291,-2.8535,-2.8779,-2.9033,-2.9277,-2.958,-2.9932,-2.9932,-3.0,-3.0137,-3.0654,-3.1566,-3.283,-3.4233,-3.5934,-3.7837,-3.8008,-3.8357,-3.8767,-3.8202,-3.7986,-3.7986,-3.7986,-3.7986,-3.7986,-3.7986,-3.7986,-3.8092,-3.8526,-3.8736,-3.8841,-3.9374,-3.9594,-3.9697,-3.9697,-3.9697,-3.9697,-3.9697,-3.9697,-3.9697,-3.9697,-3.9697,-3.9788,-4.0275,-4.1232,-4.2585,-4.4233,-4.5307,-4.588,-4.588,-4.588,-4.588,-4.588,-4.588,-4.588,-4.588,-4.588,-4.588,-4.588,-4.588,-4.588,-4.588,-4.588,-4.588,-4.588,-4.588,-4.6171,-4.6809,-4.6745,-4.7088,-4.793,-4.7938,-4.8208,-4.885,-4.9239,-4.909,-4.8431,-4.7653,-4.7309,-0.5347,-0.6104,-0.7121,-0.8337,-0.855,0.0,-1.1335,-1.1365,-1.1436,-1.3287,-1.4108,-1.4925,-1.6161,-1.6762,-1.7609,-1.9328,-1.9949,-2.1494,-2.5047,-2.5645,-2.5916,-2.629,-2.6345,-2.6553,-2.6751,-2.6896,-2.7032,-2.7257,-2.7726,-2.796,-2.8291,-2.8291,-2.8291,-2.8291,-2.8291,-2.8291,-2.8291,-2.8291,-2.8672,-2.9434,-2.9434,-2.9834,-3.0605,-3.0703,-3.1407,-3.2654,-3.3267,-3.5125,-3.7869,-3.7338,-3.7774,-3.8839,-3.8226,-3.7986,-3.7986,-3.7986,-3.7986,-3.7986,-3.7986,-3.7986,-3.8092,-3.8303,-3.8619,-3.8841,-3.9154,-3.9478,-3.9697,-3.9697,-3.9697,-3.9697,-3.9697,-3.9697,-3.9697,-3.9697,-3.9697,-3.9981,-4.0844,-4.1119,-4.1518,-4.2404,-4.4233,-4.5595,-4.5685,-4.5685,-4.579,-4.588,-4.588,-4.588,-4.588,-4.588,-4.588,-4.588,-4.588,-4.588,-4.588,-4.588,-4.588,-4.588,-4.588,-4.6142,-4.6708,-4.6185,-4.6247,-4.7088,-4.68,-4.714,-4.8177,-4.8252,-4.7982,-4.7414,-4.7339,-4.7309,-0.6183,-0.6744,-0.7434,-0.8072,-0.8918,0.0,-0.9737,-1.0002,-1.0373,-1.1109,-1.1404,-1.172,-1.2709,-1.37,-1.4769,-1.6035,-1.7333,-1.9097,-2.2075,-2.3431,-2.4201,-2.4271,-2.5056,-2.5601,-2.5706,-2.6212,-2.6505,-2.6611,-2.7447,-2.796,-2.796,-2.8184,-2.8291,-2.8291,-2.8291,-2.8291,-2.8291,-2.8291,-2.8379,-2.8545,-2.8545,-2.8633,-2.8828,-2.9512,-3.0478,-3.1598,-3.3428,-3.5312,-3.7115,-3.7581,-3.8431,-3.9357,-3.8371,-3.7986,-3.7986,-3.7986,-3.7986,-3.7986,-3.7986,-3.7986,-3.8092,-3.8303,-3.8619,-3.8841,-3.9154,-3.9478,-3.9697,-3.9697,-3.9697,-3.9697,-3.9697,-3.9697,-3.9697,-3.9697,-3.9697,-3.9788,-3.9981,-4.0655,-4.1219,-4.1518,-4.2488,-4.3654,-4.4513,-4.4606,-4.4897,-4.579,-4.588,-4.588,-4.588,-4.588,-4.588,-4.588,-4.588,-4.588,-4.588,-4.588,-4.588,-4.588,-4.588,-4.5938,-4.6069,-4.5953,-4.6029,-4.6415,-4.6727,-4.7093,-4.7504,-4.8027,-4.8222,-4.8072,-4.7549,-4.7309,-0.6388,-0.7343,-0.8491,-0.8793,0.0,0.0,0.0,-1.0374,-1.04,-1.1242,-1.1196,-1.1216,-1.1951,-1.2572,-1.3223,-1.4071,-1.5255,-1.6521,-1.7867,-2.046,-2.2442,-2.3152,-2.3718,-2.432,-2.506,-2.5365,-2.5767,-2.6076,-2.6892,-2.7439,-2.7545,-2.8067,-2.8291,-2.8291,-2.8291,-2.8291,-2.8291,-2.8291,-2.8291,-2.8291,-2.8291,-2.8291,-2.831,-2.874,-2.9243,-2.9914,-3.1657,-3.3421,-3.505,-3.5991,-3.7263,-3.8743,-3.8202,-3.7986,-3.7986,-3.7986,-3.7986,-3.7986,-3.7986,-3.7986,-3.7974,-3.8198,-3.8526,-3.8841,-3.905,-3.9374,-3.9697,-3.9697,-3.9697,-3.9697,-3.9697,-3.9697,-3.9697,-3.9697,-3.9697,-3.9697,-3.9697,-4.007,-4.0453,-4.0453,-4.0857,-4.173,-4.3259,-4.3937,-4.4312,-4.434,-4.5216,-4.5685,-4.5187,-4.5595,-4.588,-4.588,-4.588,-4.588,-4.588,-4.588,-4.588,-4.588,-4.588,-4.588,-4.588,-4.588,-4.606,-4.6403,-4.6668,-4.6946,-4.7309,-4.7638,-4.7803,-4.7788,-4.7459,-4.7309,-0.662,-0.7893,-0.9309,-0.9356,0.0,-1.0918,0.0,0.0,0.0,-1.1653,-1.1503,-1.1336,-1.187,-1.1971,-1.2131,-1.2619,-1.348,-1.4055,-1.3941,-1.6958,-1.9758,-2.131,-2.1799,-2.2542,-2.3963,-2.3963,-2.4372,-2.5396,-2.5732,-2.6229,-2.6977,-2.768,-2.8164,-2.8174,-2.8252,-2.8291,-2.8291,-2.8291,-2.8291,-2.8291,-2.8291,-2.8291,-2.8291,-2.8291,-2.8388,-2.8717,-3.0113,-3.1784,-3.3371,-3.4336,-3.5944,-3.7685,-3.7793,-3.789,-3.7986,-3.7986,-3.7986,-3.7986,-3.7986,-3.7986,-3.7986,-3.7986,-3.8303,-3.8736,-3.8841,-3.927,-3.9581,-3.9697,-3.9697,-3.9697,-3.9697,-3.9697,-3.9697,-3.9697,-3.9697,-3.9697,-3.9697,-3.9697,-3.9697,-3.9697,-3.9697,-4.0275,-4.2208,-4.3355,-4.3829,-4.3163,-4.4712,-4.5595,-4.4712,-4.5384,-4.588,-4.588,-4.588,-4.588,-4.588,-4.588,-4.588,-4.588,-4.588,-4.588,-4.588,-4.597,-4.615,-4.6594,-4.6683,-4.6858,-4.7309,-4.7309,-4.7309,-4.7309,-4.7309,-4.7309,-0.7362,-0.8116,-0.8757,-0.8203,-0.9328,-1.0267,-0.9357,0.0,-1.0073,-1.0312,0.0,-1.0367,-1.0759,0.0,0.0,-1.0848,-1.181,-1.2371,-1.185,-1.309,-1.488,-1.6988,-1.8645,-1.9994,-2.1327,-2.1028,-2.1832,-2.4152,-2.3222,-2.3546,-2.5724,-2.6872,-2.7524,-2.7734,-2.8096,-2.8291,-2.8291,-2.8291,-2.8291,-2.8291,-2.8291,-2.8291,-2.8291,-2.8291,-2.8804,-2.9828,-3.1013,-3.2439,-3.3925,-3.5076,-3.5949,-3.6627,-3.7096,-3.7565,-3.7986,-3.7986,-3.7986,-3.7986,-3.7986,-3.7986,-3.7986,-3.7986,-3.8198,-3.8526,-3.905,-3.927,-3.9374,-3.9581,-3.9697,-3.9697,-3.9697,-3.9697,-3.9697,-3.9697,-3.9697,-3.9697,-3.9697,-3.9697,-3.9697,-3.9697,-3.9697,-4.0083,-4.1232,-4.2306,-4.3259,-4.4031,-4.511,-4.588,-4.5685,-4.579,-4.588,-4.588,-4.588,-4.588,-4.588,-4.588,-4.588,-4.588,-4.588,-4.588,-4.588,-4.6046,-4.6314,-4.6594,-4.6756,-4.7019,-4.7309,-4.7309,-4.7309,-4.7309,-4.7309,-4.7309,-0.7549,-0.841,-0.9376,-0.8908,-0.9877,-1.0706,-1.013,0.0,-1.0699,-1.1076,0.0,0.0,0.0,0.0,0.0,0.0,-1.1223,-1.1336,-1.0748,-1.1536,-1.2914,-1.4983,-1.6011,-1.7512,-1.9823,-1.979,-2.0437,-2.263,-2.1953,-2.2501,-2.4742,-2.6275,-2.7299,-2.7656,-2.8076,-2.8291,-2.8291,-2.8291,-2.8291,-2.8291,-2.8291,-2.8291,-2.8291,-2.8291,-2.8601,-2.9112,-3.0856,-3.1991,-3.2701,-3.4445,-3.5473,-3.5966,-3.6194,-3.6603,-3.7108,-3.7409,-3.7721,-3.7986,-3.7986,-3.819,-3.8419,-3.8306,-3.8303,-3.8514,-3.9154,-3.9258,-3.9436,-3.9969,-3.9936,-3.9772,-4.0086,-3.9936,-3.9697,-3.9697,-3.9697,-3.9697,-3.9697,-3.9697,-3.9697,-3.9697,-3.9948,-4.0266,-4.0746,-4.1354,-4.1815,-4.1617,-4.3081,-4.4139,-4.4139,-4.462,-4.5201,-4.579,-4.588,-4.588,-4.588,-4.588,-4.588,-4.588,-4.588,-4.588,-4.588,-4.597,-4.6239,-4.6594,-4.6668,-4.6946,-4.7309,-4.7309,-4.7309,-4.7309,-4.7309,-4.7309,-0.7714,-0.8485,-0.9374,-0.9275,-0.9817,-1.0461,-1.0408,-1.0666,-1.1145,0.0,-1.1724,0.0,0.0,0.0,-1.1029,-1.0995,0.0,-1.0708,-0.9873,-1.0441,-1.1512,-1.3042,-1.4029,-1.5443,-1.7754,-1.7573,-1.8221,-2.0589,-2.003,-2.0765,-2.3682,-2.5381,-2.6637,-2.7295,-2.7842,-2.8174,-2.8291,-2.8291,-2.8291,-2.8291,-2.8291,-2.8291,-2.8291,-2.8291,-2.8291,-2.8398,-3.0338,-3.1268,-3.1779,-3.361,-3.4745,-3.54,-3.54,-3.5629,-3.605,-3.6723,-3.7216,-3.7565,-3.7709,-3.8226,-3.8755,-3.856,-3.8534,-3.8615,-3.8995,-3.9265,-3.9581,-4.0295,-4.0337,-4.0237,-4.0639,-4.0438,-4.0149,-4.0149,-4.0036,-3.9923,-3.9923,-3.9923,-3.9923,-3.9923,-4.0362,-4.0739,-4.0739,-4.1299,-4.136,-4.053,-4.1868,-4.2982,-4.2806,-4.345,-4.4219,-4.5003,-4.5307,-4.5489,-4.5489,-4.5685,-4.588,-4.588,-4.588,-4.588,-4.588,-4.597,-4.615,-4.6594,-4.6683,-4.6858,-4.7309,-4.7309,-4.7309,-4.7309,-4.7309,-4.7309,-0.8,-0.8029,-0.8098,-0.8475,-0.848,-0.8665,-0.9386,-1.0208,-1.1041,-1.1721,0.0,0.0,-1.316,-1.2665,-1.1971,-1.1129,-1.0995,0.0,0.0,-0.9365,-1.002,-1.0624,-1.2798,-1.4276,-1.4389,-1.3377,-1.4335,-1.8134,-1.6563,-1.7567,-2.2337,-2.3784,-2.5043,-2.6406,-2.7246,-2.7881,-2.8291,-2.8291,-2.8291,-2.8291,-2.8291,-2.8291,-2.8291,-2.8291,-2.8291,-2.8398,-2.9523,-3.0546,-3.1677,-3.2789,-3.3819,-3.4859,-3.4859,-3.4871,-3.5004,-3.605,-3.6447,-3.6531,-3.7048,-3.7926,-3.8815,-3.8791,-3.8791,-3.8803,-3.8802,-3.9222,-3.9771,-4.0302,-4.089,-4.1291,-4.1304,-4.1304,-4.1291,-4.1291,-4.0877,-4.0488,-4.0488,-4.0488,-4.0488,-4.0488,-4.094,-4.1317,-4.1317,-4.2118,-4.2632,-4.2084,-4.2865,-4.3345,-4.286,-4.2792,-4.2889,-4.2889,-4.3735,-4.4312,-4.4312,-4.5293,-4.588,-4.588,-4.588,-4.588,-4.588,-4.6046,-4.6314,-4.6594,-4.6756,-4.7019,-4.7309,-4.7309,-4.7309,-4.7309,-4.7309,-4.7309,-0.7919,-0.8287,-0.8505,-0.8223,-0.8855,-0.9433,-0.9254,-1.052,-1.1748,-1.1587,-1.2599,-1.338,-1.2973,-1.2572,-1.2011,-1.1136,-1.0668,-0.9967,0.0,-0.8858,-0.9245,-0.9639,-1.1632,-1.293,-1.293,-1.3003,-1.4187,-1.7055,-1.648,-1.78,-2.1873,-2.34,-2.4899,-2.6348,-2.7217,-2.7861,-2.8291,-2.8291,-2.8291,-2.8291,-2.8291,-2.8291,-2.8291,-2.8291,-2.8291,-2.8398,-2.9408,-3.013,-3.065,-3.2488,-3.34,-3.3808,-3.4519,-3.4823,-3.4919,-3.5629,-3.611,-3.6483,-3.7012,-3.7204,-3.7216,-3.7216,-3.7332,-3.7576,-3.8172,-3.8551,-3.9042,-4.0195,-4.0388,-4.0413,-4.1153,-4.0802,-4.0337,-4.0714,-4.0375,-3.9973,-3.9973,-3.9973,-3.9973,-3.9973,-4.0413,-4.0802,-4.0802,-4.1398,-4.1788,-4.1597,-4.1555,-4.1736,-4.2237,-4.1968,-4.1999,-4.2695,-4.3735,-4.4312,-4.4312,-4.5293,-4.588,-4.588,-4.588,-4.588,-4.588,-4.6135,-4.6314,-4.6594,-4.6756,-4.7019,-4.7309,-4.7309,-4.7309,-4.7309,-4.7309,-4.7309,-0.8069,-0.8787,-0.9378,-0.9061,-1.005,-1.0847,-1.0317,-1.1527,-1.2639,-1.2164,-1.2906,-1.3451,-1.3121,-1.2621,-1.1939,-1.0923,-1.0379,-0.9746,0.0,-0.8691,-0.8878,-0.9065,-1.046,-1.1428,-1.1536,-1.1615,-1.2853,-1.563,-1.5653,-1.718,-2.1002,-2.2754,-2.4316,-2.5654,-2.6816,-2.7637,-2.8066,-2.8223,-2.8291,-2.8291,-2.8291,-2.8291,-2.8291,-2.8291,-2.8291,-2.8291,-2.9006,-2.9513,-3.0026,-3.1869,-3.2901,-3.3312,-3.4421,-3.4823,-3.4871,-3.5208,-3.5665,-3.6194,-3.6723,-3.6807,-3.6687,-3.6687,-3.6892,-3.7132,-3.7621,-3.8086,-3.8562,-3.9619,-3.9961,-4.0149,-4.0865,-4.0664,-4.0375,-4.0727,-4.0388,-3.9986,-3.9986,-3.9986,-3.9986,-3.9986,-4.0438,-4.0814,-4.0814,-4.1103,-4.1342,-4.1342,-4.104,-4.1001,-4.1723,-4.1479,-4.1644,-4.2724,-4.3601,-4.4352,-4.5131,-4.5821,-4.6229,-4.6229,-4.6229,-4.6113,-4.5895,-4.6135,-4.6314,-4.6594,-4.6756,-4.7019,-4.7309,-4.7309,-4.7309,-4.7309,-4.7309,-4.7309]},{"header":{"parameterUnit":"m.s-1","parameterCategory":1,"la1":30.6,"la2":29.2853,"lo1":-89.7004,"lo2":-87.6739,"dy":0.0162,"dx":0.0183,"nx":112,"ny":82,"refTime":"2024-09-11T18:00:00:Z","depth":0,"parameterNumber":3,"parameterNumberName":"V-component_of_WINDS"},"data":[0.0,0.0,0.0,0.0,0.0,0.0,0.0,0.0,0.0,0.0,0.0,0.0,0.0,0.0,0.0,0.0,0.0,0.0,0.0,0.0,0.0,0.0,0.0,0.0,0.0,0.0,0.0,0.0,0.0,0.0,0.0,0.0,0.0,0.0,0.0,0.0,0.0,0.0,0.0,0.0,0.0,0.0,0.0,0.0,0.0,0.0,0.0,0.0,0.0,0.0,0.0,0.0,0.0,0.0,0.0,0.0,0.0,0.0,0.0,0.0,0.0,0.0,0.0,0.0,0.0,0.0,0.0,0.0,0.0,0.0,0.0,0.0,0.0,0.0,0.0,0.0,0.0,0.0,0.0,0.0,0.0,0.0,0.0,0.0,0.0,0.0,0.0,0.0,0.0,0.0,-1.9677,-2.1289,-2.2372,-2.2631,-2.1473,-2.1955,-2.0726,-1.7041,0.0,0.0,0.0,0.0,0.0,0.0,0.0,0.0,0.0,0.0,0.0,0.0,0.0,0.0,0.0,0.0,0.0,0.0,0.0,0.0,0.0,0.0,0.0,0.0,0.0,0.0,0.0,0.0,0.0,0.0,0.0,0.0,0.0,0.0,0.0,0.0,0.0,0.0,0.0,0.0,0.0,0.0,0.0,0.0,0.0,0.0,0.0,0.0,0.0,0.0,0.0,0.0,0.0,0.0,0.0,0.0,0.0,0.0,0.0,0.0,0.0,0.0,0.0,0.0,0.0,0.0,0.0,0.0,0.0,0.0,0.0,0.0,0.0,0.0,0.0,0.0,0.0,0.0,0.0,0.0,0.0,0.0,0.0,0.0,0.0,0.0,0.0,0.0,0.0,0.0,0.0,0.0,0.0,0.0,0.0,0.0,0.0,0.0,0.0,0.0,0.0,0.0,0.0,0.0,-2.0261,-2.3895,-2.3703,-2.359,-2.4097,-2.3243,-2.1527,-1.8664,0.0,0.0,0.0,0.0,0.0,0.0,0.0,0.0,0.0,0.0,0.0,0.0,0.0,0.0,0.0,0.0,0.0,0.0,0.0,0.0,0.0,0.0,0.0,0.0,0.0,0.0,0.0,0.0,0.0,0.0,0.0,0.0,0.0,0.0,0.0,0.0,0.0,0.0,0.0,0.0,0.0,0.0,0.0,0.0,0.0,0.0,0.0,0.0,0.0,0.0,0.0,0.0,0.0,0.0,0.0,0.0,0.0,0.0,0.0,0.0,0.0,0.0,0.0,0.0,0.0,0.0,0.0,0.0,0.0,0.0,0.0,0.0,0.0,0.0,0.0,0.0,0.0,0.0,0.0,0.0,0.0,0.0,0.0,0.0,0.0,0.0,0.0,0.0,0.0,0.0,0.0,0.0,0.0,0.0,0.0,0.0,0.0,0.0,0.0,0.0,0.0,0.0,0.0,-2.0972,-2.265,-2.5769,-2.5586,-2.516,-2.4956,-2.4421,-2.2672,-1.9455,-1.8431,0.0,0.0,0.0,0.0,0.0,0.0,0.0,0.0,0.0,0.0,0.0,0.0,0.0,0.0,0.0,0.0,0.0,0.0,0.0,0.0,0.0,0.0,0.0,0.0,0.0,0.0,0.0,0.0,0.0,0.0,0.0,0.0,0.0,0.0,0.0,0.0,0.0,0.0,0.0,0.0,0.0,0.0,0.0,0.0,0.0,0.0,0.0,0.0,0.0,0.0,0.0,0.0,0.0,0.0,0.0,0.0,0.0,0.0,0.0,0.0,0.0,0.0,0.0,0.0,0.0,0.0,0.0,0.0,0.0,0.0,0.0,0.0,0.0,0.0,0.0,0.0,0.0,0.0,0.0,0.0,0.0,0.0,0.0,0.0,0.0,0.0,0.0,0.0,0.0,0.0,0.0,0.0,0.0,0.0,0.0,0.0,0.0,0.0,0.0,0.0,0.0,0.0,-2.4386,-2.5543,-2.75,-2.7273,-2.6717,-2.6063,-2.5013,-2.3187,-2.0175,-1.8725,0.0,0.0,0.0,0.0,0.0,0.0,0.0,0.0,0.0,0.0,0.0,0.0,0.0,0.0,0.0,0.0,0.0,0.0,0.0,0.0,0.0,0.0,0.0,0.0,0.0,0.0,0.0,0.0,0.0,0.0,0.0,0.0,0.0,0.0,0.0,0.0,0.0,0.0,0.0,0.0,0.0,0.0,0.0,0.0,0.0,0.0,0.0,0.0,0.0,0.0,0.0,0.0,0.0,0.0,0.0,0.0,0.0,0.0,0.0,0.0,0.0,0.0,0.0,0.0,0.0,0.0,0.0,0.0,0.0,0.0,0.0,0.0,0.0,0.0,0.0,0.0,0.0,0.0,0.0,0.0,0.0,0.0,0.0,0.0,0.0,0.0,0.0,0.0,0.0,0.0,0.0,0.0,0.0,0.0,0.0,0.0,0.0,0.0,0.0,0.0,0.0,0.0,-2.59,-2.8572,-2.939,-2.8232,-2.7609,-2.8398,-2.466,-2.1917,-2.1327,-1.7962,0.0,0.0,0.0,0.0,0.0,0.0,0.0,0.0,0.0,0.0,0.0,0.0,0.0,0.0,0.0,0.0,0.0,0.0,0.0,0.0,0.0,0.0,0.0,0.0,0.0,0.0,0.0,0.0,0.0,0.0,0.0,0.0,0.0,0.0,0.0,0.0,0.0,0.0,0.0,0.0,0.0,0.0,0.0,0.0,0.0,0.0,0.0,0.0,0.0,0.0,0.0,0.0,0.0,0.0,0.0,0.0,0.0,0.0,0.0,0.0,0.0,0.0,0.0,0.0,0.0,0.0,0.0,0.0,0.0,0.0,0.0,0.0,0.0,0.0,0.0,0.0,0.0,0.0,0.0,0.0,0.0,0.0,0.0,0.0,0.0,0.0,0.0,0.0,0.0,0.0,0.0,0.0,0.0,0.0,0.0,0.0,0.0,0.0,0.0,0.0,0.0,0.0,-2.5093,-2.7593,-2.926,-2.9066,-2.8694,-2.855,-2.6582,-2.4227,-2.1451,0.0,0.0,0.0,0.0,0.0,0.0,0.0,0.0,0.0,0.0,0.0,0.0,0.0,0.0,0.0,0.0,0.0,0.0,0.0,0.0,0.0,0.0,0.0,0.0,0.0,0.0,0.0,0.0,0.0,0.0,0.0,0.0,0.0,0.0,0.0,0.0,0.0,0.0,0.0,0.0,0.0,0.0,0.0,0.0,0.0,0.0,0.0,0.0,0.0,0.0,0.0,0.0,0.0,0.0,0.0,0.0,0.0,0.0,0.0,0.0,0.0,0.0,0.0,0.0,0.0,0.0,0.0,0.0,0.0,0.0,0.0,0.0,0.0,0.0,0.0,0.0,0.0,0.0,0.0,0.0,0.0,0.0,0.0,0.0,0.0,0.0,0.0,0.0,0.0,0.0,0.0,0.0,0.0,0.0,0.0,0.0,0.0,0.0,0.0,0.0,0.0,0.0,-2.2168,-2.4937,-2.7241,-2.9104,-2.9497,-2.938,-2.8632,-2.7192,-2.4832,-2.1497,0.0,0.0,0.0,0.0,0.0,0.0,0.0,0.0,0.0,0.0,0.0,0.0,0.0,0.0,0.0,0.0,0.0,0.0,0.0,0.0,0.0,0.0,0.0,0.0,0.0,0.0,0.0,0.0,0.0,0.0,0.0,0.0,0.0,0.0,0.0,0.0,0.0,0.0,0.0,0.0,0.0,0.0,0.0,0.0,0.0,0.0,0.0,0.0,0.0,0.0,0.0,0.0,0.0,0.0,0.0,0.0,0.0,0.0,0.0,0.0,0.0,0.0,0.0,0.0,0.0,0.0,0.0,0.0,0.0,0.0,0.0,0.0,0.0,0.0,0.0,0.0,0.0,0.0,0.0,0.0,0.0,0.0,0.0,0.0,0.0,0.0,0.0,0.0,0.0,0.0,0.0,0.0,0.0,0.0,0.0,0.0,0.0,0.0,0.0,0.0,0.0,0.0,-2.2513,-2.5847,-2.8286,-2.9208,-2.9497,-2.938,-2.8941,-2.5837,-2.3277,0.0,0.0,0.0,0.0,0.0,0.0,0.0,0.0,0.0,0.0,0.0,0.0,0.0,0.0,0.0,0.0,0.0,0.0,0.0,0.0,0.0,0.0,0.0,0.0,0.0,0.0,0.0,0.0,0.0,0.0,0.0,0.0,0.0,0.0,0.0,0.0,0.0,0.0,0.0,0.0,0.0,0.0,0.0,0.0,0.0,0.0,0.0,0.0,0.0,0.0,0.0,0.0,0.0,0.0,0.0,0.0,0.0,0.0,0.0,0.0,0.0,0.0,0.0,0.0,0.0,0.0,0.0,0.0,0.0,0.0,0.0,0.0,0.0,0.0,0.0,0.0,0.0,0.0,0.0,0.0,0.0,0.0,0.0,0.0,0.0,0.0,0.0,0.0,0.0,0.0,0.0,0.0,0.0,0.0,0.0,0.0,0.0,0.0,0.0,0.0,0.0,0.0,0.0,-2.3154,-2.6689,-2.9037,-2.9239,-2.9611,-2.9466,-2.8472,-2.7258,-2.4844,-2.1068,0.0,0.0,0.0,0.0,0.0,0.0,0.0,0.0,0.0,0.0,0.0,0.0,0.0,0.0,0.0,0.0,0.0,0.0,0.0,0.0,0.0,0.0,0.0,0.0,0.0,0.0,0.0,0.0,0.0,0.0,0.0,0.0,0.0,0.0,0.0,0.0,0.0,0.0,0.0,0.0,0.0,0.0,0.0,0.0,0.0,0.0,0.0,0.0,0.0,0.0,0.0,0.0,0.0,0.0,0.0,0.0,0.0,0.0,0.0,0.0,0.0,0.0,0.0,0.0,0.0,0.0,0.0,0.0,0.0,0.0,0.0,0.0,0.0,0.0,0.0,0.0,0.0,0.0,0.0,0.0,0.0,0.0,0.0,0.0,0.0,0.0,0.0,0.0,0.0,0.0,0.0,0.0,0.0,0.0,0.0,0.0,0.0,0.0,0.0,0.0,0.0,0.0,-2.3313,-2.6806,-2.9183,-2.9341,-2.9715,-2.9518,-2.8479,-2.7986,-2.5931,-2.1724,0.0,0.0,0.0,0.0,0.0,0.0,0.0,0.0,0.0,0.0,0.0,0.0,0.0,0.0,0.0,0.0,0.0,0.0,0.0,0.0,0.0,0.0,0.0,0.0,0.0,0.0,0.0,0.0,0.0,0.0,0.0,0.0,0.0,0.0,0.0,0.0,0.0,0.0,0.0,0.0,0.0,0.0,0.0,0.0,0.0,0.0,0.0,0.0,0.0,0.0,0.0,0.0,0.0,0.0,0.0,0.0,0.0,0.0,0.0,0.0,0.0,0.0,0.0,0.0,0.0,0.0,0.0,0.0,0.0,0.0,0.0,0.0,0.0,0.0,0.0,0.0,0.0,0.0,0.0,0.0,0.0,0.0,0.0,0.0,0.0,0.0,0.0,0.0,0.0,0.0,0.0,0.0,0.0,0.0,0.0,0.0,0.0,0.0,0.0,0.0,0.0,0.0,-2.3471,-2.6764,-2.9125,-2.9463,-2.985,-2.9622,-2.869,-2.8183,-2.6465,-2.3115,0.0,0.0,0.0,0.0,0.0,0.0,0.0,0.0,0.0,0.0,0.0,0.0,0.0,0.0,0.0,0.0,0.0,0.0,0.0,0.0,0.0,0.0,0.0,0.0,0.0,0.0,0.0,0.0,0.0,0.0,0.0,0.0,0.0,0.0,0.0,0.0,0.0,0.0,0.0,0.0,0.0,0.0,0.0,0.0,0.0,0.0,0.0,0.0,0.0,0.0,0.0,0.0,0.0,0.0,0.0,0.0,0.0,0.0,0.0,0.0,-2.7846,-2.5701,0.0,0.0,0.0,0.0,0.0,0.0,0.0,0.0,0.0,0.0,0.0,0.0,0.0,0.0,0.0,0.0,0.0,0.0,0.0,0.0,0.0,0.0,0.0,0.0,0.0,0.0,0.0,0.0,0.0,0.0,0.0,0.0,0.0,0.0,0.0,0.0,0.0,0.0,0.0,0.0,-2.6357,-2.8981,-3.0863,-3.1323,-3.0525,-2.9622,-2.869,-2.8183,-2.6568,-2.3381,-2.2051,0.0,0.0,0.0,0.0,0.0,0.0,0.0,0.0,0.0,0.0,0.0,0.0,0.0,0.0,0.0,0.0,0.0,0.0,0.0,0.0,0.0,0.0,0.0,0.0,0.0,0.0,0.0,0.0,0.0,0.0,0.0,0.0,0.0,0.0,0.0,0.0,0.0,0.0,0.0,0.0,0.0,0.0,0.0,0.0,0.0,0.0,0.0,0.0,0.0,0.0,0.0,0.0,0.0,0.0,0.0,0.0,0.0,0.0,0.0,-3.3325,-3.1027,0.0,0.0,0.0,0.0,0.0,0.0,0.0,0.0,0.0,0.0,0.0,0.0,0.0,0.0,0.0,0.0,0.0,0.0,0.0,0.0,0.0,0.0,0.0,0.0,0.0,0.0,0.0,0.0,0.0,0.0,0.0,0.0,0.0,0.0,0.0,0.0,0.0,0.0,0.0,0.0,-2.7601,-3.0414,-3.2245,-3.2753,-3.1677,-3.0504,-2.9444,-2.8676,-2.7179,-2.4643,-2.3536,0.0,0.0,0.0,0.0,0.0,0.0,0.0,0.0,0.0,0.0,0.0,0.0,0.0,0.0,0.0,0.0,0.0,0.0,0.0,0.0,0.0,0.0,0.0,0.0,0.0,0.0,0.0,0.0,0.0,0.0,0.0,0.0,0.0,0.0,0.0,0.0,0.0,0.0,0.0,0.0,0.0,0.0,0.0,0.0,0.0,0.0,0.0,0.0,0.0,0.0,0.0,0.0,0.0,-3.885,-3.9787,-4.1595,-4.1107,-4.2213,-4.4233,-3.9281,-3.7472,-3.7828,-3.4738,0.0,0.0,0.0,0.0,0.0,0.0,0.0,0.0,0.0,0.0,0.0,0.0,0.0,0.0,0.0,0.0,0.0,0.0,0.0,0.0,0.0,0.0,-3.0855,-3.0753,-3.1988,-3.1806,-2.7031,0.0,0.0,0.0,0.0,0.0,0.0,0.0,0.0,0.0,0.0,0.0,-2.8797,-3.162,-3.3563,-3.3938,-3.2755,-3.1573,-3.0394,-2.9271,-2.7862,-2.6113,-2.5135,-2.3854,0.0,0.0,0.0,0.0,0.0,0.0,0.0,0.0,0.0,0.0,0.0,0.0,0.0,0.0,0.0,0.0,0.0,0.0,0.0,0.0,0.0,0.0,0.0,0.0,0.0,0.0,0.0,0.0,0.0,0.0,0.0,0.0,-2.4813,-2.6337,0.0,0.0,0.0,0.0,0.0,0.0,0.0,0.0,0.0,0.0,0.0,0.0,0.0,-3.78,-4.0408,-4.3243,-4.4954,-4.5386,-4.718,-4.7757,-4.7502,-4.7421,-4.7895,-4.8806,-4.807,0.0,-4.2493,-3.9688,0.0,0.0,0.0,0.0,0.0,0.0,0.0,0.0,0.0,0.0,0.0,0.0,0.0,0.0,0.0,0.0,0.0,0.0,0.0,0.0,0.0,0.0,-3.6009,-3.5996,-3.6582,-3.6648,-3.4829,-3.0458,-2.6458,-2.5197,-2.4167,-2.299,0.0,0.0,0.0,0.0,0.0,0.0,-3.1983,-3.372,-3.5009,-3.5519,-3.3441,-3.1573,-3.0674,-2.937,-2.7997,-2.6568,-2.5989,-2.5244,-2.4134,-2.2755,0.0,0.0,0.0,0.0,0.0,0.0,0.0,0.0,0.0,0.0,0.0,0.0,0.0,0.0,0.0,0.0,0.0,0.0,0.0,0.0,0.0,0.0,0.0,0.0,0.0,0.0,0.0,0.0,0.0,-2.5081,-2.7471,-2.882,-2.8824,-2.8132,0.0,0.0,0.0,0.0,0.0,0.0,0.0,0.0,0.0,-4.0355,-4.1423,-4.3098,-4.5511,-4.7323,-4.8444,-4.8912,-5.0205,-5.0651,-5.0374,-5.0743,-5.1097,-5.1374,-5.099,-4.9805,-4.7865,-4.4372,-4.1571,-3.9277,0.0,0.0,0.0,0.0,-3.5983,-3.5657,-3.8009,-3.8017,-3.6809,-3.6149,0.0,0.0,0.0,0.0,0.0,0.0,0.0,-3.1666,-3.3705,-3.5861,-3.7586,-3.7887,-3.8423,-3.8723,-3.8187,-3.5755,-3.2692,-2.9648,-2.8988,-2.7816,-2.4506,-2.4525,0.0,0.0,0.0,-3.1485,-3.3856,-3.5326,-3.6259,-3.6726,-3.5126,-3.3652,-3.2816,-3.1603,-3.0057,-2.8325,-2.8068,-2.714,-2.5337,-2.4392,-2.3093,0.0,0.0,0.0,0.0,0.0,0.0,0.0,0.0,0.0,0.0,0.0,0.0,0.0,0.0,0.0,0.0,0.0,0.0,0.0,0.0,0.0,0.0,0.0,0.0,0.0,0.0,0.0,0.0,-2.8057,-3.012,-3.132,-3.2336,-3.2167,0.0,0.0,0.0,0.0,0.0,0.0,-3.9185,-4.0432,-4.2325,-4.5049,-4.628,-4.7696,-4.9389,-5.0112,-5.0713,-5.1221,-5.1728,-5.1959,-5.1975,-5.2483,-5.2713,-5.2683,-5.2175,-5.1959,-5.1682,-4.7912,-4.5495,-4.3956,-4.2063,-4.0946,-4.06,-4.2134,-4.1866,-4.1124,-4.4033,-4.4146,-4.2754,-4.1344,-4.0349,-3.9046,-3.5616,0.0,0.0,0.0,0.0,-3.4489,-3.6488,-3.7769,-3.8684,-3.9246,-3.9716,-4.0004,-3.9847,-3.9468,-3.8044,-3.4319,-3.3587,-3.2437,-2.8869,-2.836,0.0,-2.9196,-3.0882,-3.2973,-3.5417,-3.6606,-3.7313,-3.7559,-3.632,-3.5218,-3.4597,-3.3172,-3.1581,-2.9953,-2.9786,-2.8768,-2.6715,-2.6162,-2.5016,-2.3049,0.0,0.0,0.0,0.0,0.0,0.0,0.0,0.0,0.0,0.0,0.0,0.0,0.0,0.0,0.0,0.0,0.0,0.0,0.0,0.0,0.0,0.0,0.0,0.0,0.0,0.0,0.0,0.0,0.0,-3.4183,-3.5999,0.0,0.0,0.0,0.0,-3.7046,-3.8462,-4.0724,-4.4048,-4.4895,-4.6542,-4.9297,-5.0066,-5.079,-5.1544,-5.2221,-5.2575,-5.2606,-5.2652,-5.2667,-5.2667,-5.2698,-5.2713,-5.2713,-5.2667,-5.2667,-5.2436,-4.962,-4.8404,-4.8173,-4.6788,-4.6219,-4.6203,-4.6311,-4.6437,-4.6516,-4.6097,-4.5559,-4.5191,-4.5729,-4.4264,-4.2078,-4.1192,-3.8856,0.0,0.0,-3.7491,-3.7913,-3.9115,-3.986,-4.0448,-4.105,-4.1206,-4.1076,-4.0501,-4.0357,-3.9939,-3.8619,-3.705,-3.5691,-3.4946,0.0,-3.343,-3.3966,-3.4633,-3.5521,-3.6763,-3.7469,-3.7874,-3.79,-3.6427,-3.5313,-3.4854,-3.2936,-3.149,-3.095,-3.0468,-2.9726,-2.8555,-2.8087,-2.6807,-2.4457,-2.3049,0.0,0.0,0.0,0.0,0.0,0.0,0.0,0.0,0.0,0.0,0.0,0.0,0.0,0.0,0.0,0.0,0.0,0.0,0.0,0.0,0.0,0.0,0.0,0.0,0.0,0.0,0.0,0.0,-3.8185,-3.9801,0.0,-3.8523,-3.94,-4.0616,-4.1955,-4.371,-4.5634,-4.7758,-4.8512,-4.9312,-5.0297,-5.099,-5.1467,-5.1698,-5.2375,-5.2713,-5.2713,-5.316,-5.336,-5.336,-5.336,-5.336,-5.3345,-5.2898,-5.2713,-5.2637,-5.1652,-5.099,-5.0513,-4.9589,-4.9235,-4.9235,-4.9235,-4.9151,-4.8905,-4.8663,-4.8298,-4.7758,-4.716,-4.5789,-4.4266,-4.3284,-4.1782,-4.0433,-4.0314,-3.9907,-3.9703,-4.0501,-4.0853,-4.105,-4.1259,-4.1311,-4.1259,-4.105,-4.0997,-4.088,-4.0461,-3.8985,-3.7482,-3.6554,-3.6057,-3.5717,-3.5521,-3.6005,-3.6684,-3.7482,-3.7769,-3.79,-3.79,-3.7214,-3.6633,-3.6337,-3.5133,-3.3837,-3.2566,-3.1644,-3.0419,-2.8788,-2.7888,-2.6824,-2.5369,-2.3801,-2.1725,0.0,0.0,0.0,0.0,0.0,0.0,0.0,0.0,0.0,0.0,0.0,0.0,0.0,0.0,0.0,0.0,0.0,0.0,0.0,0.0,0.0,0.0,0.0,0.0,0.0,-3.6569,-3.9385,-4.0724,-4.2709,-4.3417,-4.2032,-4.3556,-4.5095,-4.6219,-4.7758,-4.905,-4.9974,-5.0667,-5.1036,-5.1036,-5.1913,-5.2375,-5.2375,-5.3052,-5.3391,-5.3391,-5.3852,-5.4068,-5.4068,-5.4068,-5.4068,-5.4037,-5.3591,-5.3391,-5.3375,-5.3144,-5.279,-5.2313,-5.1548,-5.1271,-5.1271,-5.1199,-5.0845,-5.0456,-5.014,-4.9584,-4.879,-4.7923,-4.6961,-4.5948,-4.4792,-4.381,-4.2992,-4.2276,-4.1466,-4.0814,-4.1206,-4.1311,-4.1311,-4.1311,-4.1311,-4.1311,-4.1311,-4.1311,-4.1311,-4.1311,-4.0213,-3.9037,-3.8292,-3.8004,-3.7743,-3.7351,-3.7625,-3.7952,-3.8148,-3.8174,-3.8109,-3.7926,-3.7703,-3.7335,-3.6839,-3.5953,-3.4801,-3.3612,-3.2223,-3.0757,-2.9017,-2.7981,-2.6832,-2.5359,-2.3654,-2.1973,-2.0441,0.0,0.0,0.0,0.0,0.0,0.0,0.0,0.0,0.0,0.0,0.0,0.0,0.0,0.0,0.0,0.0,0.0,0.0,0.0,0.0,0.0,0.0,0.0,-3.5782,-3.917,-4.174,-4.1786,-4.4679,-4.6188,-4.4864,-4.7127,-4.8974,-4.9697,-5.0328,-5.0713,-5.0759,-5.1374,-5.1728,-5.1728,-5.3052,-5.3745,-5.3729,-5.4391,-5.473,-5.473,-5.4745,-5.476,-5.476,-5.476,-5.476,-5.476,-5.4745,-5.473,-5.4684,-5.4022,-5.376,-5.3591,-5.2672,-5.2306,-5.2306,-5.2063,-5.188,-5.1497,-5.0573,-4.9419,-4.8341,-4.8341,-4.7893,-4.7135,-4.6106,-4.5144,-4.4125,-4.3081,-4.2052,-4.1311,-4.1311,-4.1311,-4.1311,-4.1311,-4.1311,-4.1311,-4.1311,-4.1311,-4.1311,-4.1311,-4.084,-4.0448,-4.0448,-3.9991,-3.9638,-3.9638,-3.9625,0.0,-3.8789,-3.871,-3.8501,-3.7965,-3.7703,-3.718,-3.6431,-3.5099,-3.4199,-3.3897,-3.2315,-3.0854,-2.9542,-2.8533,-2.6863,-2.4571,-2.2791,-2.1859,-2.1849,0.0,0.0,0.0,0.0,0.0,0.0,0.0,0.0,0.0,0.0,0.0,0.0,0.0,0.0,0.0,0.0,0.0,0.0,0.0,0.0,0.0,-3.9201,-4.1087,-4.0044,-4.2556,-4.4849,-4.5834,-4.7665,-4.8681,-4.8312,-4.9404,-5.0405,-5.1097,-5.0867,-5.1113,-5.2113,-5.2329,-5.2436,-5.2436,-5.3745,-5.4222,-5.3729,-5.4391,-5.473,-5.473,-5.5207,-5.5438,-5.5438,-5.5438,-5.5438,-5.5407,-5.493,-5.473,-5.4714,-5.453,-5.4344,-5.402,-5.2963,-5.2608,-5.2608,-5.2322,-5.1956,-5.1557,-5.1098,-5.0406,-4.9703,-4.9703,-4.894,-4.7836,-4.6792,-4.5516,-4.4125,-4.3081,-4.2052,-4.1311,-4.1311,-4.1311,-4.1311,-4.1311,-4.1311,-4.1311,-4.1311,-4.1311,-4.1311,-4.1311,-4.118,-4.1076,-4.1076,-4.0579,-4.0187,-4.0187,-3.986,-3.939,-3.8789,-3.871,-3.8501,-3.7965,-3.7808,-3.7638,-3.7193,-3.6032,-3.502,-3.4199,-3.2579,-3.1121,-2.9903,-2.8603,-2.6934,-2.5047,-2.3898,-2.3143,0.0,0.0,0.0,0.0,0.0,0.0,0.0,0.0,0.0,0.0,0.0,0.0,0.0,0.0,0.0,0.0,0.0,0.0,0.0,0.0,0.0,0.0,-4.3567,-4.5546,-4.5183,-4.5879,-4.6942,-4.8312,-4.9189,-4.9912,-5.0482,-5.0636,-5.1097,-5.2052,-5.2166,-5.2275,-5.2667,-5.3582,-5.3843,-5.3144,-5.4437,-5.4945,-5.4545,-5.5238,-5.5576,-5.5576,-5.5961,-5.6146,-5.6146,-5.6146,-5.6146,-5.6115,-5.5745,-5.5576,-5.5561,-5.5268,-5.5036,-5.4788,0.0,0.0,0.0,0.0,-5.168,-5.1401,-5.1214,-5.0795,-5.0242,-5.0242,-4.9538,-4.8507,-4.7556,-4.6046,-4.4503,-4.3464,-4.2252,-4.1311,-4.1311,-4.1311,-4.1311,-4.1311,-4.1311,-4.1311,-4.1311,-4.1311,-4.1311,-4.1311,-4.1311,0.0,-4.1311,-4.1023,-4.0788,-4.0788,-4.0527,-4.0109,-3.9494,-3.9233,-3.8867,-3.8305,-3.8031,-3.7704,-3.7182,-3.6302,0.0,0.0,0.0,-3.1278,-2.9224,-2.7764,0.0,0.0,0.0,-2.5347,0.0,-2.5306,0.0,0.0,-2.4676,-2.4351,0.0,0.0,0.0,0.0,0.0,0.0,0.0,0.0,0.0,0.0,0.0,0.0,0.0,0.0,0.0,0.0,-4.7438,-4.9434,-5.0294,-4.9093,-4.8608,-4.9848,-5.0058,-5.0584,-5.1713,-5.1506,-5.1738,-5.2858,-5.3679,-5.3829,-5.3093,-5.4836,0.0,0.0,0.0,-5.5592,-5.5592,-5.6284,-5.6638,-5.6638,-5.673,-5.6761,-5.6761,-5.6761,-5.6761,-5.6761,-5.6761,-5.6761,-5.6715,-5.6069,-5.5761,-5.5481,-5.3769,-5.2955,-5.2552,-5.1653,-5.1289,-5.1214,-5.1214,0.0,0.0,-5.0346,-4.9912,-4.9268,-4.8322,-4.6893,-4.5419,-4.4414,-4.2856,-4.1589,-4.1524,-4.1411,-4.1311,-4.1311,-4.1311,-4.1311,-4.1311,-4.1311,-4.1311,-4.1311,-4.1311,-4.1311,-4.1311,-4.1311,-4.1311,-4.1311,-4.1311,-4.1102,-4.0501,-3.9991,-3.9468,-3.888,-3.8318,0.0,-3.6988,-3.6339,-3.5554,-3.4563,-3.3348,-3.1353,-2.8637,-2.7225,-2.642,-2.6358,-2.7191,-2.7966,-2.8773,-2.9653,-3.0129,-3.0149,-2.6566,-2.601,0.0,0.0,0.0,0.0,0.0,0.0,0.0,0.0,0.0,0.0,0.0,0.0,0.0,0.0,0.0,-4.8596,-4.9943,-5.1161,-5.2577,-5.1961,-5.1446,-5.1658,-5.212,-5.2543,-5.2877,-5.3824,-5.453,-5.4803,-5.4317,-5.4396,-5.5354,-5.4644,-5.4267,-5.453,-5.4776,-5.4914,-5.4914,-5.5561,-5.5899,-5.5899,-5.6484,0.0,-5.6761,-5.6761,-5.6761,-5.6761,-5.6761,-5.6761,-5.6746,-5.6623,-5.6142,-5.5367,-5.4446,-5.3444,-5.2597,-5.2382,-5.1882,-5.1214,-5.1214,-5.1139,-5.1035,-5.1035,-5.0586,-4.9955,-4.9756,-4.862,0.0,-4.6447,-4.4787,-4.3148,-4.2649,-4.1868,-4.1311,-4.1311,-4.1311,-4.1311,-4.1311,-4.1311,-4.1311,-4.1311,-4.1311,-4.1311,-4.1311,-4.1311,-4.1311,-4.1311,-4.1311,-4.1102,-4.0501,-4.0331,-4.0043,-3.9494,-3.8906,-3.8501,-3.8303,-3.7339,-3.6402,-3.5554,-3.3784,-3.243,-3.1591,-3.0532,-2.9775,-2.9384,-2.9474,-2.9549,-2.9735,-3.0284,-3.0926,-3.1619,-3.0202,-2.9581,0.0,0.0,0.0,0.0,0.0,0.0,0.0,0.0,0.0,0.0,0.0,-4.1682,-4.3861,0.0,-4.9311,-5.1437,-5.2354,-5.3238,-5.4376,-5.4138,-5.3733,-5.3269,-5.3198,-5.3375,-5.4147,-5.4567,-5.5053,-5.5766,-5.5822,-5.5825,-5.6119,-5.5662,-5.5146,-5.473,-5.5053,-5.5207,-5.5207,-5.5884,-5.6223,-5.6223,-5.6592,-5.6761,-5.6761,-5.6761,-5.6761,-5.6761,-5.6761,-5.6761,-5.6761,-5.6761,-5.6368,-5.5628,-5.5277,-5.4355,-5.3064,-5.2718,-5.2197,-5.1663,-5.1334,-5.1214,-5.1214,-5.1214,-5.099,-5.0735,-5.0735,-4.9592,-4.8225,-4.7919,-4.6196,-4.4401,-4.353,-4.2646,-4.1954,-4.1411,-4.1311,-4.1311,-4.1311,-4.1311,-4.1311,-4.1311,-4.1311,-4.1311,-4.1311,-4.1311,-4.1311,-4.1311,-4.1311,-4.1206,-4.0906,-4.0605,-4.0305,-4.0043,-3.9494,-3.9155,-3.9155,-3.799,-3.7014,-3.6457,-3.4691,-3.3389,-3.2794,-3.2072,-3.1262,-3.0434,-3.0862,-3.1019,-3.1019,-3.1485,-3.194,-3.2375,-3.1799,-3.134,0.0,0.0,0.0,0.0,0.0,0.0,0.0,-3.7851,-3.8665,-4.2638,-4.4126,-4.5559,-4.826,-4.9966,-5.1566,-5.3399,-5.4211,-5.4905,-5.5801,-5.5799,-5.557,-5.507,-5.4232,-5.417,-5.5469,-5.527,-5.5532,-5.6824,-5.7263,-5.7211,-5.6606,-5.6588,-5.6059,-5.4745,-5.5238,-5.5499,-5.5499,-5.6192,-5.6561,-5.6561,-5.67,-5.6761,-5.6761,-5.6761,-5.6761,-5.6761,-5.6761,-5.6761,-5.6761,-5.6761,-5.6567,-5.6176,-5.6176,-5.5326,-5.4005,-5.3215,-5.2617,-5.2127,-5.1588,-5.1334,-5.1214,-5.1214,-5.1214,-5.1214,-5.1214,-5.0248,-4.9223,-4.9106,-4.7439,-4.5453,-4.4496,-4.343,-4.2494,-4.1668,-4.1402,-4.1311,-4.1311,-4.1311,-4.1311,-4.1311,-4.1311,-4.1311,-4.1311,-4.1311,-4.1311,-4.1311,-4.1311,-4.1311,-4.1311,-4.0893,-4.0592,-4.0592,-4.0095,-3.973,-3.9625,-3.8535,-3.7803,-3.7429,-3.6138,-3.5016,-3.4176,-3.3344,-3.2579,-3.1667,-3.1881,-3.2085,-3.2178,-3.2457,-3.2644,-3.2737,-3.2455,-3.2214,-3.3197,-3.3524,-3.4525,-3.7956,-3.8439,-4.0014,0.0,-4.7545,-4.6863,-4.8941,-5.056,-5.156,-5.1184,-5.2244,-5.3416,-5.4329,-5.4532,-5.5091,-5.6478,-5.666,-5.6875,-5.7442,-5.6154,-5.5622,-5.6505,-5.719,-5.7864,-5.8631,-5.7919,-5.7676,-5.8238,-5.6144,-5.49,-5.473,-5.4791,-5.4837,-5.4837,-5.5484,-5.5807,-5.5822,-5.6453,-5.6761,-5.6761,-5.6761,-5.6761,-5.6761,-5.6761,-5.6761,-5.6761,-5.6761,-5.6761,-5.6664,-5.6664,-5.628,-5.5577,-5.4419,-5.3234,-5.2187,-5.2112,-5.1708,-5.1214,-5.1214,-5.1214,-5.1214,-5.1214,-5.1075,-5.0788,-5.0206,-4.8537,-4.6729,-4.5986,-4.404,-4.2259,-4.2171,-4.169,-4.1311,-4.1311,-4.1311,-4.1311,-4.1311,-4.1311,-4.1311,-4.1311,-4.1311,-4.1311,-4.1311,-4.1311,-4.1311,-4.1311,-4.1259,-4.1219,-4.1219,-4.0684,-4.0135,-3.9651,-3.9481,-3.9116,-3.8595,-3.8434,-3.8032,-3.7506,-3.5942,-3.5055,-3.4842,-3.2937,-3.224,-3.2654,-3.2292,-3.2333,-3.2737,-3.2772,-3.2509,-3.7991,-3.9336,-4.0509,-4.2427,-4.4096,-4.604,-4.9222,-4.9675,-4.9889,-5.1332,-5.2622,-5.3352,-5.2753,-5.326,-5.4142,-5.5057,-5.5312,-5.5907,-5.7222,-5.707,-5.6917,-5.7222,-5.5905,-5.5631,-5.7306,-5.8118,-5.8863,-5.959,-5.8658,-5.8194,-5.8588,-5.6129,-5.473,-5.473,-5.5499,-5.5915,-5.5915,-5.6961,-5.7485,-5.75,-5.7792,-5.7931,-5.7931,-5.7931,-5.7931,-5.7916,-5.7515,-5.7346,-5.7315,-5.6931,-5.6664,-5.6567,-5.6567,-5.6274,-5.5705,-5.4941,-5.4142,-5.3249,-5.2471,-5.2022,-5.1723,-5.1349,-5.1214,-5.1214,-5.1214,-5.1214,-5.1154,-5.0885,-4.9843,-4.858,-4.7037,-4.5536,-4.4117,-4.2953,-4.2226,-4.1808,-4.1808,-4.1546,-4.1311,-4.1311,-4.1311,-4.1311,-4.1311,-4.1311,-4.1311,-4.1311,-4.1311,-4.1311,-4.1311,-4.1311,-4.1311,-4.1311,-4.1089,-4.071,-4.0122,-4.0082,-3.9875,-3.9274,-3.9274,-3.8918,-3.8001,-3.7271,-3.6209,-3.4921,-3.3953,-3.3187,-3.2727,-3.254,-3.2675,-3.311,-3.3179,-3.2952,-4.1302,-4.3423,-4.5112,-4.5915,-4.834,-5.0488,-5.0298,-5.1035,-5.1953,-5.2745,-5.354,-5.398,-5.3685,-5.38,-5.436,-5.5619,-5.5873,-5.6297,-5.7408,-5.7137,-5.6731,-5.6528,-5.5547,-5.5615,-5.7408,-5.7898,-5.8575,-5.9725,-5.872,-5.8157,-5.8572,-5.6383,-5.5163,-5.5268,-5.6423,-5.7131,-5.7315,-5.8285,-5.8777,-5.8777,-5.8777,-5.8777,-5.8777,-5.8777,-5.8777,-5.8747,-5.8069,-5.7777,-5.7715,-5.7038,-5.6664,-5.647,-5.647,-5.6176,-5.5735,-5.5334,-5.485,-5.4072,-5.3099,-5.2516,-5.2127,-5.1648,-5.1364,-5.1214,-5.1214,-5.1214,-5.1214,-5.1214,-5.0372,-4.9216,-4.7702,-4.6459,-4.5116,-4.3649,-4.2814,-4.2409,-4.2409,-4.1951,-4.1546,-4.1546,-4.1415,-4.1311,-4.1311,-4.1311,-4.1311,-4.1311,-4.1311,-4.1311,-4.1311,-4.1311,-4.1311,-4.1311,-4.1311,-4.1141,-4.071,-4.0671,-4.046,-3.9863,-3.9863,-3.9424,-3.8477,-3.7725,-3.663,-3.5013,-3.4238,-3.354,-3.2913,-3.2789,-3.3016,-3.3575,-3.3699,-3.3581,-4.2164,-4.4216,-4.6835,-4.8203,-5.0223,-5.2049,-5.2405,-5.3331,-5.4008,-5.3732,-5.3963,-5.4175,-5.398,-5.3849,-5.421,-5.5757,-5.5856,-5.597,-5.6731,-5.6816,-5.6545,-5.5835,-5.57,-5.5987,-5.6765,-5.6224,-5.6714,-5.8879,-5.759,-5.7228,-5.8458,-5.6854,-5.6166,-5.675,-5.7377,-5.8054,-5.8716,-5.8762,-5.8777,-5.8777,-5.8777,-5.8777,-5.8777,-5.8777,-5.8777,-5.8747,-5.8069,-5.7777,-5.7715,-5.7038,-5.6761,-5.6761,-5.6761,-5.647,-5.5979,-5.5948,-5.5243,-5.4206,-5.4162,-5.3294,-5.2202,-5.2172,-5.1738,-5.1214,-5.1214,-5.1214,-5.1214,-5.1214,-4.9679,-4.8052,-4.7951,-4.5989,-4.3952,-4.3846,-4.3415,-4.2997,-4.2997,-4.2539,-4.2134,-4.2134,-4.169,-4.1311,-4.1311,-4.1311,-4.1311,-4.1311,-4.1311,-4.1311,-4.1311,-4.1311,-4.1311,-4.1311,-4.1311,-4.1311,-4.1285,-4.1285,-4.1084,-4.0478,-4.0478,-4.0173,-3.9697,-3.7501,-3.6185,-3.6185,-3.3469,-3.2489,-3.3358,-3.2934,-3.3182,-3.4051,-3.4507,-3.436,-4.4561,-4.7269,-4.978,-5.0463,-5.2038,-5.3425,-5.326,-5.3547,-5.3696,-5.3088,-5.266,-5.2294,-5.1845,-5.2089,-5.269,-5.3581,-5.45,-5.55,-5.663,-5.6393,-5.5987,-5.575,-5.5716,-5.5615,-5.5361,-5.6444,-5.7865,-5.9607,-5.8091,-5.7769,-5.9134,-5.7503,-5.6852,-5.7392,-5.8531,-5.9224,-5.9455,-5.9886,-6.0116,-6.0116,-6.0116,-6.0116,-6.0116,-6.0116,-6.0116,-6.0086,-5.9408,-5.9116,-5.9024,-5.79,-5.7423,-5.7392,-5.6931,-5.6567,-5.6274,-5.6077,-5.5357,-5.4404,-5.4306,-5.3907,-5.3384,-5.2486,-5.2052,-5.1783,-5.1349,-5.1214,-5.1214,-5.1214,-5.0713,-4.9999,-4.9205,-4.7825,-4.6463,-4.5775,-4.4507,-4.3585,-4.3585,-4.284,-4.216,-4.216,-4.1703,-4.1311,-4.1311,-4.1311,-4.1311,-4.1311,-4.1311,-4.1311,-4.1311,-4.1311,-4.1311,-4.1311,-4.1311,-4.1311,-4.1311,-4.1311,-4.111,-4.0504,-4.0504,-4.03,-3.9697,-3.8161,-3.6954,-3.6185,-3.4527,-3.3554,-3.3379,-3.3234,-3.3627,-3.4527,-3.4683,-3.4544,-4.6993,-4.9424,-5.1365,-5.233,-5.3374,-5.411,-5.3751,-5.3579,-5.3198,-5.2192,-5.1407,-5.0649,-4.9744,-5.0095,-5.0895,-5.2081,-5.3224,-5.4398,-5.5801,-5.5615,-5.531,-5.531,-5.531,-5.5327,-5.5378,-5.6664,-5.8118,-5.9607,-5.8042,-5.7948,-5.9862,-5.8229,-5.7657,-5.8454,-5.9332,-5.9901,-6.0147,-6.0578,-6.0794,-6.0794,-6.0794,-6.0794,-6.0794,-6.0794,-6.0794,-6.0763,-6.0086,-5.9793,-5.9701,-5.8593,-5.7993,-5.7731,-5.73,-5.6879,-5.6372,-5.6176,-5.5607,-5.4948,-5.465,-5.4236,-5.3698,-5.283,-5.2396,-5.2067,-5.1409,-5.1214,-5.1169,-5.093,-5.0738,-5.0309,-4.8754,-4.7857,-4.7108,-4.5802,-4.4811,-4.4186,-4.4186,-4.3441,-4.2722,-4.2513,-4.2017,-4.1546,-4.135,-4.1311,-4.1311,-4.1311,-4.1311,-4.1311,-4.1311,-4.1311,-4.1311,-4.1311,-4.1311,-4.1311,-4.1311,-4.1311,-4.111,-4.0694,-4.0504,-4.03,-3.989,-3.8149,-3.6954,-3.6185,-3.4845,-3.3957,-3.3627,-3.3793,-3.4258,-3.4993,-3.4993,-3.4769,-4.9252,-5.0666,-5.1744,-5.369,-5.4222,-5.4158,-5.3994,-5.3425,-5.254,-5.0961,-5.0169,-4.9286,-4.7717,-4.7974,-4.9078,-5.1117,-5.197,-5.2892,-5.4431,-5.4651,-5.4668,-5.4702,-5.4735,-5.5294,-5.6664,-5.6867,-5.7509,-5.8964,-5.7547,-5.774,-6.0477,-5.9115,-5.8701,-5.9732,-5.9824,-6.0147,-6.0794,-6.0794,-6.0794,-6.0794,-6.0794,-6.0794,-6.0794,-6.0794,-6.0794,-6.0763,-6.0116,-5.9839,-5.9793,-5.9116,-5.8439,-5.7823,-5.7777,-5.7264,-5.6372,-5.6372,-5.6062,-5.5536,-5.528,-5.4356,-5.3279,-5.3234,-5.2785,-5.2127,-5.1468,-5.1244,-5.1094,-5.0466,-4.9926,-4.9097,-4.6825,-4.6366,-4.5948,-4.4441,-4.4304,-4.4696,-4.4722,-4.4278,-4.3716,-4.3167,-4.2579,-4.199,-4.1442,-4.1363,-4.135,-4.1311,-4.135,-4.135,-4.1311,-4.1311,-4.1311,-4.1311,-4.1311,-4.1311,-4.1311,-4.1311,-4.1211,-4.0883,-4.0694,-4.0402,-4.007,-3.7701,-3.6317,-3.622,-3.4382,-3.3734,-3.4103,-3.4548,-3.4993,-3.5418,-3.5418,-3.5046,-5.0304,-5.2218,-5.3708,-5.4085,-5.4222,-5.4021,-5.3246,-5.2118,-5.0642,-4.8672,-4.7271,-4.5797,-4.3837,-4.6117,-4.8319,-4.8336,-5.1087,-5.3721,-5.5226,-5.5429,-5.5632,-5.6173,-5.6714,-5.6985,-5.6816,-5.7797,-5.8829,-5.9759,-5.8558,-5.862,-6.0469,-5.9853,-5.9541,-5.9778,-6.027,-6.0624,-6.0794,-6.0794,-6.0794,-6.0794,-6.0794,-6.0794,-6.0794,-6.0794,-6.0794,-6.0794,-6.0624,-6.0547,-6.0486,-5.9809,-5.9131,-5.8485,-5.7977,-5.7264,-5.6372,-5.6176,-5.566,-5.5115,-5.5215,-5.497,-5.4596,-5.4102,-5.3488,-5.2815,-5.2157,-5.1618,-5.1184,-5.1005,-5.0534,-4.9828,-4.8992,-4.7475,-4.6117,-4.5876,-4.4904,-4.4199,-4.463,-4.4278,-4.382,-4.3689,-4.2853,-4.2121,-4.1977,-4.1951,-4.1808,-4.1376,-4.1677,-4.1794,-4.1376,-4.1311,-4.1311,-4.1311,-4.1311,-4.1311,-4.1311,-4.1311,-4.1211,-4.0883,-4.0694,-4.0402,-4.007,-3.836,-3.7249,-3.6748,-3.5329,-3.4689,-3.4579,-3.4703,-3.4993,-3.5418,-3.5418,-3.5046,-5.1701,-5.3287,-5.4448,-5.4239,-5.3982,-5.3444,-5.1799,-5.0326,-4.8295,-4.4749,-4.3615,-4.2324,-3.9129,-4.2585,-4.5904,-4.5742,-4.962,-5.3212,-5.4955,-5.5513,-5.5987,-5.6714,-5.7171,-5.7509,-5.7746,-5.8524,-5.9607,-6.0994,-5.9679,-5.9499,-6.0954,-6.0239,-5.9916,-6.0224,-6.0594,-6.0794,-6.0794,-6.0794,-6.0794,-6.0794,-6.0794,-6.0794,-6.0794,-6.0794,-6.0794,-6.0794,-6.0794,-6.0794,-6.0763,-6.0393,-5.9655,-5.8747,-5.8362,-5.7525,-5.6372,-5.6274,-5.5736,-5.5281,-5.5361,-5.51,-5.47,-5.4326,-5.3743,-5.3054,-5.2396,-5.1947,-5.1528,-5.0945,-5.0526,-4.9798,-4.812,-4.6949,-4.586,-4.4805,-4.4243,-4.3964,-4.4278,-4.4304,-4.4173,-4.3925,-4.3154,-4.2539,-4.2539,-4.2539,-4.2435,-4.2108,-4.233,-4.2422,-4.2108,-4.1625,-4.1311,-4.1311,-4.1311,-4.1311,-4.1311,-4.1311,-4.1211,-4.1097,-4.104,-4.0862,-4.03,-3.934,-3.8202,-3.6955,-3.6156,-3.5382,-3.4755,-3.4952,-3.518,-3.5418,-3.5418,-3.5067,-5.3166,-5.4011,-5.4448,-5.4303,-5.3731,-5.2588,-5.0145,-4.8208,-4.5527,-4.044,-3.9715,-3.8767,-3.4818,-3.8763,-4.286,-4.3814,-4.8116,-5.2089,-5.4262,-5.5243,-5.5987,-5.6714,-5.6968,-5.7594,-5.8896,-5.9201,-6.0182,-6.2229,-6.0901,-6.0534,-6.1682,-6.0584,-6.0193,-6.0778,-6.0794,-6.0794,-6.0794,-6.0794,-6.0794,-6.0794,-6.0794,-6.0794,-6.0794,-6.0794,-6.0794,-6.0794,-6.0794,-6.0794,-6.0794,-6.0794,-6.0055,-5.8901,-5.8824,-5.781,-5.6494,-5.6305,-5.5979,-5.5581,-5.5581,-5.496,-5.4221,-5.4311,-5.3817,-5.3069,-5.2501,-5.2276,-5.1947,-5.072,-5.0301,-4.9512,-4.6624,-4.5898,-4.5442,-4.315,-4.3127,-4.3663,-4.3742,-4.4212,-4.4487,-4.4068,-4.3533,-4.3141,-4.3141,-4.3141,-4.3101,-4.3036,-4.3088,-4.3101,-4.3036,-4.216,-4.1546,-4.1546,-4.1546,-4.1546,-4.1546,-4.1546,-4.1546,-4.1546,-4.171,-4.1557,-4.0747,-4.0207,-3.9065,-3.7384,-3.6883,-3.6069,-3.5081,-3.5354,-3.5418,-3.5418,-3.5366,-3.5005,-5.408,-5.4408,-5.4512,-5.4448,-5.3397,-5.1821,-4.947,-4.5889,-4.2009,-3.8577,-3.6473,-3.5025,-3.4231,-3.7875,-4.1816,-4.4309,-4.7997,-5.1447,-5.4177,-5.5243,-5.5987,-5.6714,-5.7881,-5.8727,-5.8998,-6.0165,-6.1315,-6.2313,-6.2449,-6.2497,-6.2534,-6.1289,-6.0671,-6.0794,-6.0794,-6.0794,-6.0794,-6.0794,-6.0794,-6.0794,-6.0794,-6.0794,-6.0794,-6.0794,-6.0794,-6.0794,-6.0794,-6.0794,-6.0794,-6.0794,-6.0332,-5.9562,-5.8791,-5.7785,-5.6822,-5.5977,-5.5681,-5.5581,-5.5396,-5.496,-5.4593,-5.495,-5.4192,-5.3159,-5.3039,-5.2636,-5.2037,-5.1274,-5.0661,-5.0009,-4.9045,-4.7142,-4.533,-4.4976,-4.3708,-4.2592,-4.3062,-4.3611,-4.4134,-4.45,-4.4121,-4.3716,-4.3716,-4.3716,-4.3559,-4.3101,-4.3415,-4.3546,-4.3075,-4.2853,-4.2722,-4.2722,-4.2722,-4.2722,-4.2722,-4.2722,-4.2722,-4.2722,-4.2293,-4.2096,-4.1888,-4.0387,-3.9546,-3.9682,-3.7578,-3.6579,-3.6827,-3.5848,-3.5418,-3.5418,-3.5045,-3.4706,-5.4305,-5.4512,-5.4362,-5.384,-5.2354,-5.009,-4.6447,-4.284,-3.9026,-3.4818,-3.3386,-3.2421,-3.0834,-3.5191,-3.9392,-4.0705,-4.4613,-4.8848,-5.2578,-5.3551,-5.4651,-5.6721,-5.8191,-5.9167,-5.9539,-6.0622,-6.1924,-6.3429,-6.3283,-6.3002,-6.2712,-6.1461,-6.0794,-6.0794,-6.0794,-6.0794,-6.0794,-6.0794,-6.0794,-6.0794,-6.0794,-6.0794,-6.0794,-6.0794,-6.0794,-6.0794,-6.0794,-6.0794,-6.0794,-6.0794,-6.0393,-5.9716,-5.8938,-5.7962,-5.6889,-5.6122,-5.5581,-5.5381,-5.528,-5.486,-5.4449,-5.4581,-5.3997,-5.3174,-5.3174,-5.2725,-5.2127,-5.1813,-5.1005,-5.0024,-4.9347,-4.7506,-4.5483,-4.4802,-4.3344,-4.2409,-4.3271,-4.3689,-4.4042,-4.4617,-4.45,-4.4317,-4.4317,-4.4317,-4.4225,-4.3951,-4.4147,-4.4225,-4.3951,-4.3912,-4.3676,-4.3088,-4.3023,-4.3023,-4.3023,-4.3023,-4.3023,-4.3023,-4.2876,-4.269,-4.2195,-4.1722,-4.1114,-4.0306,-3.8723,-3.7688,-3.7298,-3.6002,-3.5418,-3.5407,-3.4962,-3.4631,-5.4063,-5.4391,-5.4259,-5.3266,-5.1382,-4.8488,-4.3648,-4.0096,-3.6456,-3.1472,-3.0644,-3.0248,-2.8368,-3.2541,-3.6586,-3.7545,-4.1543,-4.6122,-5.0509,-5.1987,-5.3619,-5.6469,-5.8225,-5.9471,-6.0047,-6.0977,-6.2398,-6.4444,-6.3781,-6.3024,-6.2676,-6.1455,-6.0794,-6.0794,-6.0794,-6.0794,-6.0794,-6.0794,-6.0794,-6.0794,-6.0794,-6.0794,-6.0794,-6.0794,-6.0794,-6.0794,-6.0794,-6.0794,-6.0794,-6.0794,-6.0486,-5.9916,-5.9,-5.8053,-5.7087,-5.6183,-5.5581,-5.5194,-5.5194,-5.485,-5.4401,-5.4266,-5.3743,-5.3159,-5.301,-5.2606,-5.2172,-5.2037,-5.1244,-5.0251,-4.9472,-4.7995,-4.6153,-4.4272,-4.2851,-4.2265,-4.3284,-4.3611,-4.3859,-4.4434,-4.4552,-4.4591,-4.4709,-4.4617,-4.4591,-4.4709,-4.4722,-4.4722,-4.4722,-4.4722,-4.4382,-4.348,-4.3389,-4.3389,-4.3389,-4.3389,-4.3389,-4.3389,-4.3475,-4.3312,-4.2567,-4.2701,-4.209,-4.0767,-3.9452,-3.8426,-3.735,-3.6072,-3.5373,-3.5117,-3.4672,-3.4269,-5.3287,-5.3994,-5.4339,-5.3535,-5.1089,-4.7734,-4.308,-3.8681,-3.4387,-3.0437,-2.8592,-2.8247,-3.0058,-3.1438,-3.3864,-3.8523,-4.1454,-4.4588,-4.8838,-5.1817,-5.411,-5.5632,-5.8287,-6.003,-6.0097,-6.1417,-6.2939,-6.4478,-6.4068,-6.3353,-6.2405,-6.1332,-6.0794,-6.0794,-6.0794,-6.0794,-6.0794,-6.0794,-6.0794,-6.0794,-6.0794,-6.0794,-6.0794,-6.0794,-6.0794,-6.0794,-6.0794,-6.0794,-6.0794,-6.0794,-6.0763,-6.0578,-5.8777,-5.8039,-5.7724,-5.5947,-5.5194,-5.5194,-5.5194,-5.5149,-5.4999,-5.4401,-5.3743,-5.3069,-5.2471,-5.2247,-5.2067,-5.1468,-5.1214,-5.1124,-5.1031,-4.9757,-4.7784,-4.4565,-4.2545,-4.1559,-4.2186,-4.2735,-4.3271,-4.3833,-4.3951,-4.4121,-4.4643,-4.4304,-4.4134,-4.4657,-4.4722,-4.4722,-4.4722,-4.4722,-4.4696,-4.4578,-4.4565,-4.4565,-4.4565,-4.4565,-4.4565,-4.4565,-4.4305,-4.41,-4.3746,-4.1929,-4.125,-4.2035,-3.9202,-3.7736,-3.7611,-3.6369,-3.5232,-3.4176,-3.372,-3.3482,-5.1821,-5.3235,-5.4218,-5.2871,-5.0349,-4.6904,-4.2205,-3.7696,-3.3576,-3.0196,-2.8334,-2.7713,-2.9058,-3.03,-3.2421,-3.6285,-3.803,-4.0456,-4.4969,-4.7544,-5.0096,-5.2952,-5.6568,-5.9116,-6.0013,-6.1484,-6.3007,-6.4495,-6.4657,-6.4538,-6.4093,-6.2022,-6.0794,-6.0794,-6.0794,-6.0794,-6.0794,-6.0794,-6.0794,-6.0794,-6.0794,-6.0794,-6.0794,-6.0794,-6.0794,-6.0794,-6.0794,-6.0794,-6.0794,-6.0794,-6.0794,-6.0671,-5.8894,-5.8171,-5.78,-5.6063,-5.5295,-5.5194,-5.5194,-5.5194,-5.5089,-5.4416,-5.4027,-5.3668,-5.2995,-5.2232,-5.1723,-5.2247,-5.1828,-5.1304,-5.1708,-4.9823,-4.715,-4.482,-4.3011,-4.1886,-4.2121,-4.2343,-4.267,-4.3245,-4.3363,-4.3428,-4.3663,-4.3794,-4.3951,-4.4186,-4.4212,-4.4343,-4.4683,-4.4121,-4.3964,-4.4657,-4.4722,-4.4722,-4.4722,-4.4722,-4.4578,-4.4238,-4.389,-4.3519,-4.2874,-4.1839,-4.1401,-4.1656,-3.9066,-3.7712,-3.7701,-3.5783,-3.4526,-3.4051,-3.3596,-3.3524,-4.9924,-5.1787,-5.2863,-5.1718,-4.9401,-4.6008,-4.0865,-3.6784,-3.3093,-2.9575,-2.8023,-2.7538,-2.8377,-2.9523,-3.1284,-3.4216,-3.5542,-3.7851,-4.246,-4.5001,-4.7663,-5.1225,-5.4873,-5.7722,-5.9268,-6.1434,-6.3243,-6.4512,-6.4836,-6.5078,-6.5293,-6.268,-6.1277,-6.1277,-6.1,-6.0794,-6.0794,-6.0794,-6.0794,-6.0794,-6.0794,-6.0794,-6.0794,-6.0794,-6.0794,-6.0794,-6.0794,-6.0794,-6.0778,-6.0594,-6.0501,-6.0363,-5.8604,-5.7882,-5.7542,-5.6003,-5.5396,-5.5194,-5.5194,-5.5194,-5.5119,-5.4655,-5.4371,-5.4087,-5.3384,-5.2396,-5.1663,-5.2396,-5.1932,-5.1334,-5.1798,-4.9563,-4.6841,-4.5613,-4.3768,-4.216,-4.216,-4.216,-4.2291,-4.2683,-4.2762,-4.2827,-4.2997,-4.3219,-4.3428,-4.3598,-4.3611,-4.3768,-4.4173,-4.352,-4.3323,-4.4134,-4.4225,-4.4356,-4.4696,-4.4722,-4.4487,-4.3912,-4.3646,-4.308,-4.2195,-4.1699,-4.1291,-4.1091,-3.9249,-3.8003,-3.7483,-3.5797,-3.4614,-3.4062,-3.3731,-3.3834,-4.7614,-4.9441,-5.0045,-5.0045,-4.8303,-4.5027,-3.8905,-3.5732,-3.28,-2.8247,-2.7299,-2.7601,-2.8592,-2.9204,-3.037,-3.2983,-3.5057,-3.7861,-4.231,-4.55,-4.8419,-5.1167,-5.3645,-5.5894,-5.7768,-6.1298,-6.3818,-6.4546,-6.4385,-6.4548,-6.526,-6.334,-6.2319,-6.2319,-6.1277,-6.0794,-6.0794,-6.0794,-6.0794,-6.0794,-6.0794,-6.0794,-6.0794,-6.0794,-6.0794,-6.0794,-6.0794,-6.0794,-6.0747,-6.007,-5.9793,-5.967,-5.7699,-5.698,-5.6889,-5.5636,-5.5194,-5.5194,-5.5194,-5.5194,-5.5194,-5.5179,-5.4745,-5.4087,-5.3384,-5.271,-5.2052,-5.1409,-5.1229,-5.1214,-5.1229,-4.9132,-4.7052,-4.7052,-4.4556,-4.216,-4.216,-4.216,-4.216,-4.2173,-4.2173,-4.2356,-4.2931,-4.2552,-4.2369,-4.2944,-4.3036,-4.3036,-4.3036,-4.3036,-4.3023,-4.3036,-4.3036,-4.3493,-4.463,-4.4722,-4.4487,-4.3912,-4.3672,-4.3093,-4.2208,-4.1317,-4.0816,-4.0526,-3.9986,-3.877,-3.6966,-3.6844,-3.5876,-3.4072,-3.4062,-3.431,-4.0819,-4.3164,-4.4958,-4.3354,-4.2423,-4.0716,-3.618,-3.418,-3.234,-2.9007,-2.7768,-2.7695,-2.8912,-2.9333,-3.12,-3.6387,-3.8001,-4.0043,-4.4027,-4.7489,-4.9898,-5.0731,-5.5332,-5.918,-6.0791,-6.2516,-6.3616,-6.3835,-6.4267,-6.4589,-6.4825,-6.3556,-6.2717,-6.2288,-6.1364,-6.0794,-6.0794,-6.0794,-6.0794,-6.0794,-6.0794,-6.0794,-6.0794,-6.0794,-6.0547,-6.0116,-6.0116,-5.9855,-5.9408,-5.9178,-5.9101,-5.9008,-5.7717,-5.7166,-5.6889,-5.5822,-5.5396,-5.5194,-5.5194,-5.5194,-5.5194,-5.5194,-5.5059,-5.467,-5.3518,-5.2725,-5.2067,-5.1409,-5.1543,-5.1783,-5.1334,-4.9451,-4.7572,-4.7164,-4.518,-4.3114,-4.233,-4.216,-4.2056,-4.1651,-4.1585,-4.1638,-4.1821,-4.203,-4.2226,-4.2409,-4.2435,-4.2579,-4.2971,-4.2343,-4.216,-4.2944,-4.267,-4.2748,-4.3506,-4.3559,-4.3323,-4.2735,-4.2515,-4.1944,-4.1055,-4.0644,-4.0246,-3.9948,-3.8234,-3.7643,-3.8164,-3.6632,-3.5659,-3.5349,-3.4861,-3.4621,-3.617,-3.856,-4.0302,-3.9146,-3.8629,-3.7508,-3.4007,-3.2628,-3.1373,-2.8889,-2.7901,-2.7787,-2.8836,-2.9404,-3.1185,-3.5864,-3.7391,-3.9422,-4.3544,-4.6945,-4.9778,-5.197,-5.6418,-5.9759,-6.107,-6.2391,-6.321,-6.3497,-6.3937,-6.4309,-6.4597,-6.3684,-6.2923,-6.2614,-6.1503,-6.0787,-6.0424,-6.0424,-6.0424,-6.0424,-6.0163,-6.004,-6.004,-6.004,-5.9809,-5.9408,-5.9408,-5.9178,0.0,-5.85,-5.8393,-5.8331,-5.7358,-5.69,-5.654,-5.5832,-5.5381,-5.5194,-5.5194,-5.5194,-5.5194,-5.5194,-5.5029,-5.461,-5.3518,-5.2546,-5.1753,-5.1334,-5.1513,-5.1738,-5.1334,-4.9596,-4.7881,-4.7502,-4.5628,-4.3676,-4.2958,-4.2474,-4.2121,-4.199,-4.1781,-4.1638,-4.1638,-4.1925,-4.2095,-4.1873,-4.1847,-4.1977,-4.233,-4.1755,-4.1585,-4.2304,-4.2056,-4.199,-4.2343,-4.2775,-4.2788,-4.211,-4.1763,-4.1299,-4.0415,-4.0083,-3.989,-3.9697,-3.8461,-3.8263,-3.9008,-3.7507,-3.6722,-3.6446,-3.5926,-3.5481,0.0,-3.5048,-3.5818,-3.6508,-3.6239,-3.5031,-3.2165,-3.1095,0.0,-2.8175,-2.776,-2.7986,-2.8815,-2.959,-3.0818,-3.3006,-3.4731,-3.7344,-4.1767,-4.4989,-4.8932,-5.4683,-5.6961,-5.8412,-5.9338,-6.1206,-6.2668,-6.3379,-6.3429,-6.3734,-6.441,-6.3534,-6.2991,-6.2974,-6.1858,-6.0776,-5.9803,-5.9803,-5.9803,-5.9716,-5.9085,-5.8777,-5.8777,-5.8777,-5.8747,-5.8701,-5.8701,-5.8685,-5.8593,-5.7962,-5.77,-5.7639,-5.6813,-5.6274,-5.5979,-5.5681,-5.5496,-5.5194,-5.5194,-5.5194,-5.5194,-5.5194,-5.4745,-5.4087,-5.3443,-5.2336,-5.1274,-5.1229,-5.1214,-5.1214,-5.1214,-4.9596,-4.7979,-4.7979,-4.594,-4.3925,-4.3885,-4.3036,-4.2435,-4.2931,-4.2592,-4.2226,-4.2226,-4.2226,-4.2043,-4.152,-4.1442,-4.1442,-4.1442,-4.1402,-4.1389,-4.1428,-4.1402,-4.1389,-4.1428,-4.233,-4.258,-4.1737,-4.1492,-4.0952,-4.0146,-3.9954,-3.9772,-3.981,-4.0362,-4.0199,-3.9438,-3.9429,-3.8732,-3.7418,-3.7298,-3.6613,-2.671,0.0,-2.9317,-2.8885,-2.9692,-3.0223,0.0,-2.9607,-3.0064,-2.8676,-2.8174,-2.8945,-3.2009,-3.1885,-3.3179,-3.8869,-4.0866,-4.2793,-4.5925,-4.9683,-5.3594,-5.7603,-5.9004,-5.9894,-6.0766,-6.1755,-6.2465,-6.2651,-6.2651,-6.2719,-6.2905,-6.2712,-6.2211,-6.15,-6.1665,-6.131,-6.0101,-6.0116,-5.9742,-5.9008,-5.8854,-5.8777,-5.8777,-5.8777,-5.85,-5.8008,-5.8008,-5.7715,-5.7223,-5.7069,-5.7008,-5.6977,-5.6823,-5.6567,-5.6274,-5.5979,-5.578,-5.5481,-5.5295,-5.5194,-5.5194,-5.5194,-5.4745,-5.4177,-5.4012,-5.3025,-5.1872,-5.1364,-5.1214,-5.1214,-5.1214,-4.9596,-4.7979,-4.7979,-4.6238,-4.4408,-4.3964,-4.3663,-4.3376,-4.3088,-4.2918,-4.2814,-4.2814,-4.2814,-4.2775,-4.2644,-4.2618,-4.2618,-4.2618,-4.2239,-4.2134,-4.2579,-4.2226,-4.2147,-4.2592,-4.1852,-4.1334,-4.1103,-4.0683,-4.0503,-4.0692,-4.0417,-4.0526,-4.094,-4.1492,-4.1248,-4.0226,-4.0535,-4.0036,-3.8744,-3.7779,-3.6796,-2.4075,-2.6348,-2.8618,-2.8018,-2.9018,-3.0039,-2.94,-2.9283,-2.9193,-2.8688,-2.8745,-2.9782,-3.27,-3.3214,-3.4903,-4.0095,-4.2043,-4.4505,-4.9074,-5.2432,-5.5621,-5.8756,-5.9733,-6.0419,-6.1214,-6.1958,-6.2381,-6.2381,-6.2381,-6.2381,-6.2381,-6.2381,-6.2127,-6.1692,-6.1979,-6.1558,-6.04,-5.9949,-5.949,-5.8958,-5.8288,-5.7854,-5.7854,-5.7854,-5.7654,-5.73,-5.73,-5.71,-5.6761,-5.6761,-5.6761,-5.6761,-5.6761,-5.6664,-5.6372,-5.6274,-5.5979,-5.5581,-5.5381,-5.528,-5.5194,-5.5194,-5.494,-5.4596,-5.4296,-5.3698,-5.292,-5.1947,-5.1678,-5.1603,-5.1289,-4.9999,-4.8596,-4.808,-4.666,-4.5262,-4.4424,-4.4055,-4.3859,-4.382,-4.3585,-4.3415,-4.3415,-4.3415,-4.3323,-4.3062,-4.3023,-4.3023,-4.3023,-4.2748,-4.2683,-4.2984,-4.2748,-4.2683,-4.2997,-4.2035,-4.1351,-4.1093,-4.0517,-4.0337,-4.0686,-4.0618,-4.089,-4.1693,-4.1995,-4.2038,-4.1594,-4.1889,-4.0985,-3.9216,-3.8495,-3.734,-2.4204,-2.7571,-3.0742,-2.9708,-3.0663,-3.1762,-3.137,-3.0083,-2.9035,-2.9352,-3.0031,-3.1237,-3.3331,-3.5046,-3.7077,-4.0117,-4.209,-4.5405,-5.1586,-5.4097,-5.6184,-5.8817,-5.9665,-6.0368,-6.1044,-6.189,-6.2381,-6.2381,-6.2381,-6.2381,-6.2381,-6.2381,-6.2381,-6.2381,-6.2381,-6.1896,-6.0847,-5.9938,-5.9328,-5.8986,-5.7681,-5.6939,-5.6761,-5.6761,-5.6761,-5.6761,-5.6761,-5.6761,-5.6761,-5.6761,-5.6761,-5.6761,-5.6761,-5.6664,-5.647,-5.6372,-5.6077,-5.5681,-5.5581,-5.5381,-5.5194,-5.5194,-5.5194,-5.5089,-5.4521,-5.4281,-5.3952,-5.2695,-5.2276,-5.2052,-5.1394,-5.0412,-4.9317,-4.8282,-4.7177,-4.6072,-4.4938,-4.4343,-4.4147,-4.463,-4.433,-4.4003,-4.4003,-4.4003,-4.3846,-4.3363,-4.3284,-4.3284,-4.3284,-4.3206,-4.3193,-4.3271,-4.3206,-4.3193,-4.3271,-4.2667,-4.2106,-4.1619,-4.0745,-4.0383,-4.0739,-4.0852,-4.1329,-4.2258,-4.2283,-4.2509,-4.2974,-4.2974,-4.1797,-3.9463,-3.9334,-3.7954,-2.7475,-3.0711,-3.2365,-2.8425,-2.9854,-3.219,-3.2058,-3.2492,-3.293,-3.3002,-3.3643,-3.5145,-3.8212,-4.0079,-4.196,-4.4389,-4.7052,-5.0152,-5.408,-5.5449,-5.6559,-5.7937,-5.9268,-6.0148,-6.0266,-6.1569,-6.2381,-6.2381,-6.2381,-6.2381,-6.2381,-6.2381,-6.2381,-6.2381,-6.2381,-6.2274,-6.2119,-6.1152,-5.994,-5.8369,-5.8073,-5.7574,-5.6761,-5.6761,-5.6761,-5.6761,-5.6761,-5.6761,-5.6761,-5.6761,-5.6761,-5.6761,-5.6761,-5.6761,-5.6664,-5.647,-5.6161,-5.588,-5.5396,-5.5194,-5.5194,-5.5194,-5.5194,-5.5164,-5.5074,-5.4655,-5.4042,-5.3249,-5.2636,-5.2052,-5.1394,-5.0412,-4.9317,-4.8282,-4.7177,-4.6072,-4.4938,-4.4657,-4.4617,-4.4709,-4.4657,-4.4604,-4.4604,-4.4604,-4.4565,-4.4474,-4.446,-4.446,-4.446,-4.4042,-4.3925,-4.4408,-4.4029,-4.3938,-4.4421,-4.348,-4.2849,-4.2759,-4.1701,-4.1329,-4.1882,-4.2346,-4.2685,-4.2848,-4.2848,-4.2898,-4.2974,-4.2974,-4.2275,-4.0743,-3.9686,-3.8612,-2.6604,-2.9471,-3.1623,-3.0396,-3.3268,-3.6206,-3.5507,-3.5246,-3.5147,-3.5147,-3.5789,-3.7221,0.0,-4.2024,-4.4382,-4.7908,-5.0606,-5.2997,-5.4967,-5.6048,-5.7034,-5.798,-5.8937,-5.9522,-5.9522,-6.0503,-6.1332,-6.1772,-6.1806,-6.1975,-6.2364,-6.2381,-6.2381,-6.2381,-6.2381,-6.2381,-6.2381,-6.1951,-6.1086,-5.9691,-5.8637,-5.7933,-5.7574,-5.7035,-5.6761,-5.6761,-5.6761,-5.6761,-5.6761,-5.6761,-5.6761,-5.6761,-5.6761,-5.6761,-5.6761,-5.647,-5.6274,-5.5979,-5.5581,-5.5295,-5.5194,-5.5194,-5.494,-5.4655,-5.4655,-5.4192,-5.3518,-5.2845,-5.2441,-5.2052,-5.1394,-5.0822,-5.0013,-4.8382,-4.7573,-4.6764,-4.5033,-4.4722,-4.4722,-4.4722,-4.4722,-4.4722,-4.4722,-4.4722,-4.4722,-4.4722,-4.4722,-4.4722,-4.4722,-4.45,-4.4434,-4.4696,-4.4487,-4.4447,-4.4709,-4.3958,-4.3112,-4.2176,-4.1864,-4.1894,-4.2145,-4.2685,-4.2974,-4.2974,-4.2974,-4.2974,-4.2974,-4.2974,-4.2388,-4.11,-3.9803,-3.863,-2.5999,-2.8448,-3.1041,-3.287,-3.6195,-3.9048,-3.8997,-3.8177,-3.7698,-3.8634,-3.9313,-4.0359,-4.2415,-4.4393,-4.708,-5.1158,-5.348,-5.4912,-5.5512,-5.6611,-5.7559,-5.8048,-5.8632,-5.9015,-5.9015,-5.9674,-6.0368,-6.0977,-6.1028,-6.1264,-6.1823,-6.2026,-6.2127,-6.2127,-6.2296,-6.2381,-6.2381,-6.2381,-6.1951,-6.0986,-5.9339,-5.8379,-5.8211,-5.7211,-5.6761,-5.6761,-5.6761,-5.6761,-5.6761,-5.6761,-5.6761,-5.6761,-5.6761,-5.6761,-5.6761,-5.647,-5.6274,-5.5979,-5.5681,-5.5381,-5.5164,-5.5014,-5.4625,-5.4177,-5.4012,-5.3488,-5.2845,-5.2336,-5.2097,-5.1858,-5.1349,-5.1214,-5.0713,-4.8795,-4.8181,-4.7471,-4.5542,-4.4938,-4.4722,-4.4722,-4.4722,-4.4722,-4.4722,-4.4722,-4.4722,-4.4722,-4.4722,-4.4722,-4.4722,-4.4722,-4.4722,-4.4722,-4.4722,-4.4626,-4.4518,-4.4094,-4.3187,-4.1781,-4.212,-4.2346,-4.2346,-4.2748,-4.2974,-4.2974,-4.2974,-4.2974,-4.2974,-4.2974,-4.25,-4.1558,-4.0268,-3.898,-2.8149,-3.0235,-3.209,-3.4507,-3.5846,-3.7514,-4.117,-4.1335,-4.1827,-4.5571,-4.6379,-4.6709,-4.7609,-4.9442,-5.1732,-5.4332,-5.5637,-5.6301,-5.6133,-5.7291,-5.8048,-5.7954,-5.8558,-5.9015,-5.9015,-5.9674,-6.0114,-6.0182,-6.0182,-6.0216,-6.0266,-6.0977,-6.1383,-6.1383,-6.2042,-6.2381,-6.2381,-6.2381,-6.1951,-6.0986,-5.9952,-5.9072,-5.8211,-5.7211,-5.6761,-5.6761,-5.6761,-5.6761,-5.6761,-5.6761,-5.6761,-5.6761,-5.6761,-5.6761,-5.6761,-5.647,-5.6274,-5.5979,-5.5681,-5.5381,-5.5089,-5.4476,-5.4251,-5.4087,-5.3443,-5.28,-5.2261,-5.2217,-5.1753,-5.1274,-5.1229,-5.1214,-5.0917,-4.9722,-4.8696,-4.7675,-4.6583,-4.5449,-4.4722,-4.4722,-4.4722,-4.4722,-4.4722,-4.4722,-4.4722,-4.4722,-4.4722,-4.4722,-4.4722,-4.4722,-4.4722,-4.4722,-4.4722,-4.4518,-4.3997,-4.364,-4.3257,-4.2861,-4.2898,-4.2924,-4.2924,-4.2949,-4.2974,-4.2974,-4.2974,-4.2974,-4.2974,-4.2974,-4.2974,-4.2849,-4.157,-4.028,-2.6504,-2.965,-3.2736,-3.4197,-3.6583,-3.9228,-4.1717,-4.2871,-4.4265,-4.7223,-4.7865,-4.8269,-4.9609,-5.0751,-5.207,-5.3993,-5.4652,-5.5243,-5.6099,-5.6845,-5.7463,-5.7831,-5.8152,-5.8321,-5.8321,-5.8558,-5.8913,-5.9387,-5.9438,-5.9624,-6.008,-6.0385,-6.0554,-6.0554,-6.0825,-6.096,-6.096,-6.096,-6.0789,-6.046,-6.0457,-5.9952,-5.9072,-5.8119,-5.7401,-5.6761,-5.6761,-5.6761,-5.6761,-5.6761,-5.6761,-5.6715,-5.6269,-5.6099,-5.6038,-5.5543,-5.5199,-5.4896,-5.4637,-5.4443,-5.4119,-5.3751,-5.3294,-5.2905,-5.265,-5.2112,-5.1588,-5.1588,-5.1409,-5.1214,-5.1214,-5.1214,-5.0917,-4.982,-4.9317,-4.8496,-4.6777,-4.6072,-4.5555,-4.483,-4.4722,-4.4722,-4.4722,-4.4722,-4.4722,-4.4722,-4.4722,-4.4722,-4.4722,-4.4722,-4.4722,-4.4722,-4.4518,-4.4313,-4.3899,-4.364,-4.3295,-4.2974,-4.2974,-4.2974,-4.2974,-4.2974,-4.2974,-4.2974,-4.2974,-4.2974,-4.2974,-4.2974,-4.2974,-4.2974,-4.1684,-4.0396,-2.6227,-2.9768,-3.3549,-3.4636,-3.7729,-4.1095,-4.3345,-4.4575,-4.6231,-4.9848,-5.06,-5.0835,-5.153,-5.1975,-5.2499,-5.3407,-5.4001,-5.4732,-5.5723,-5.6384,-5.6985,-5.7492,-5.7746,-5.7881,-5.7881,-5.7881,-5.8101,-5.8609,-5.866,-5.8879,-5.937,-5.9624,-5.9759,-5.9759,-5.9979,-6.0097,-6.0097,-6.0097,-6.0097,-6.0114,-6.0487,-6.0341,-5.9626,-5.8632,-5.784,-5.7211,-5.6954,-5.6638,-5.6423,-5.6423,-5.63,-5.6069,-5.5576,-5.5391,-5.533,-5.4899,-5.4527,-5.4309,-5.415,-5.388,-5.3561,-5.3158,-5.2672,-5.2157,-5.1947,-5.1573,-5.1214,-5.1214,-5.1214,-5.1214,-5.1214,-5.1214,-5.1011,-5.0316,-4.982,-4.912,-4.728,-4.6687,-4.6072,-4.4938,-4.4722,-4.4722,-4.4722,-4.4722,-4.4722,-4.4722,-4.4722,-4.4722,-4.4722,-4.4722,-4.4722,-4.4722,-4.4422,-4.4107,-4.3899,-4.353,-4.3184,-4.2974,-4.2974,-4.2974,-4.2974,-4.2974,-4.2974,-4.2974,-4.2974,-4.2974,-4.2974,-4.2974,-4.2974,-4.2974,-4.215,-4.0743,-2.8104,-3.1076,-3.4606,-3.62,-3.9138,-4.2644,-4.6448,-4.6708,-4.7942,-5.4277,-5.5574,-5.5184,-5.3824,-5.3692,-5.3638,-5.3124,-5.4143,-5.5108,-5.5125,-5.6062,-5.6782,-5.6799,-5.7442,-5.7881,-5.7881,-5.7881,-5.7881,-5.7881,-5.7881,-5.7881,-5.7881,-5.8592,-5.8998,-5.8998,-5.9708,-6.008,-6.008,-6.008,-6.008,-6.008,-6.008,-6.0007,-5.9861,-5.8751,-5.818,-5.8103,-5.7195,-5.633,-5.5684,-5.5684,-5.5315,-5.473,-5.4714,-5.4714,-5.4714,-5.4714,-5.4497,-5.4278,-5.4278,-5.393,-5.3486,-5.2823,-5.2407,-5.2067,-5.1424,-5.1214,-5.1214,-5.1214,-5.1214,-5.1214,-5.1214,-5.1214,-5.1214,-5.1214,-5.0412,-4.9317,-4.8282,-4.7177,-4.6072,-4.4938,-4.4722,-4.4722,-4.4722,-4.4722,-4.4722,-4.4722,-4.4722,-4.4722,-4.4722,-4.4722,-4.4722,-4.4722,-4.4203,-4.3899,-4.3899,-4.3321,-4.2974,-4.2974,-4.2974,-4.2974,-4.2974,-4.2974,-4.2974,-4.2974,-4.2974,-4.2974,-4.2974,-4.2974,-4.2974,-4.2974,-4.2974,-4.1684,-2.7566,-3.1095,-3.5497,-3.7106,-4.1234,-4.5638,-4.8549,-4.9029,-4.9972,-5.4018,-5.4773,-5.469,-5.444,-5.4119,-5.3869,-5.3862,-5.3652,-5.3878,-5.4971,-5.5179,-5.5446,-5.597,-5.6681,-5.712,-5.712,-5.7594,-5.7881,-5.7881,-5.7881,-5.7881,-5.7881,-5.8101,-5.822,-5.822,-5.8423,-5.8541,-5.8541,-5.8541,-5.8541,-5.8558,-5.9082,-5.8892,-5.8162,-5.8391,-5.7563,-5.5767,-5.609,-5.5797,-5.5022,-5.5022,-5.4899,-5.4684,-5.4206,-5.4022,-5.396,-5.3483,-5.3207,-5.3116,-5.2994,-5.281,-5.2611,-5.2258,-5.1997,-5.175,-5.1554,-5.1308,-5.1214,-5.1214,-5.1214,-5.1214,-5.1214,-5.1214,-5.1214,-5.1214,-5.0932,-5.0412,-4.9401,-4.8282,-4.7163,-4.6058,-4.5248,-4.4722,-4.4722,-4.4722,-4.4722,-4.4722,-4.4722,-4.4722,-4.4722,-4.4722,-4.4722,-4.4722,-4.4203,-4.3899,-4.3899,-4.3321,-4.2974,-4.2974,-4.2974,-4.2974,-4.2974,-4.2974,-4.2974,-4.2974,-4.2974,-4.2974,-4.2974,-4.2974,-4.2974,-4.2974,-4.2974,-4.215,-3.0612,-3.4271,-3.8469,-4.0754,-4.4363,-4.8044,-5.0861,-5.1657,-5.2336,-5.4193,-5.4558,-5.45,-5.4391,-5.417,-5.402,-5.3917,-5.358,-5.3669,-5.4544,-5.4652,-5.4804,-5.5209,-5.5919,-5.6376,-5.6376,-5.6765,-5.7154,-5.7442,-5.7459,-5.7577,-5.7865,-5.7881,-5.7881,-5.7881,-5.7881,-5.7881,-5.7881,-5.7881,-5.7881,-5.7898,-5.8355,-5.805,-5.7086,-5.7822,-5.7316,-5.572,-5.5274,-5.4834,-5.4314,-5.4037,-5.3929,-5.3883,-5.3483,-5.3314,-5.3268,-5.2867,-5.2713,-5.2713,-5.2503,-5.2397,-5.2306,-5.2155,-5.1864,-5.1587,-5.1587,-5.1401,-5.1214,-5.1214,-5.1214,-5.1214,-5.1214,-5.1214,-5.1214,-5.1214,-5.1214,-5.0917,-4.982,-4.8795,-4.7675,-4.6583,-4.5449,-4.4722,-4.4722,-4.4722,-4.4722,-4.4722,-4.4722,-4.4722,-4.4722,-4.4722,-4.4722,-4.4722,-4.4313,-4.3997,-4.3899,-4.3419,-4.3085,-4.2974,-4.2974,-4.2974,-4.2974,-4.2974,-4.2974,-4.2974,-4.2974,-4.2974,-4.2974,-4.2974,-4.2974,-4.2974,-4.2974,-4.2275,-3.5237,-3.8748,-4.2203,-4.5639,-4.7924,-5.0135,-5.3125,-5.4134,-5.4465,-5.4658,-5.4674,-5.4476,-5.4096,-5.4128,-5.4063,-5.36,-5.3857,-5.4158,-5.4045,-5.4412,-5.4652,-5.4499,-5.5158,-5.5615,-5.5615,-5.5683,-5.5987,-5.6664,-5.6714,-5.6985,-5.7645,-5.7695,-5.7729,-5.778,-5.7797,-5.7814,-5.7881,-5.7881,-5.7881,-5.7881,-5.7881,-5.7497,-5.6741,-5.72,-5.7375,-5.709,-5.471,-5.3713,-5.3575,-5.296,-5.2713,-5.2713,-5.2713,-5.2713,-5.2713,-5.2713,-5.2713,-5.2713,-5.2713,-5.2518,-5.2306,-5.2306,-5.2033,-5.1665,-5.168,-5.1494,-5.1214,-5.1214,-5.1214,-5.1214,-5.1214,-5.1214,-5.1214,-5.1214,-5.1214,-5.0917,-4.9917,-4.8795,-4.7675,-4.6777,-4.5555,-4.4722,-4.4722,-4.4722,-4.4722,-4.4722,-4.4722,-4.4722,-4.4722,-4.4722,-4.4722,-4.4722,-4.4409,-4.4216,-4.401,-4.364,-4.3283,-4.3085,-4.2974,-4.2974,-4.2974,-4.2974,-4.2974,-4.2974,-4.2974,-4.2974,-4.2974,-4.2974,-4.2974,-4.2974,-4.2974,-4.2275,-3.26,-3.6166,-4.0736,-4.5342,-4.9652,-5.294,-5.3645,-5.3748,-5.3883,-5.4548,-5.4235,-5.4056,-5.474,-5.4482,-5.4185,-5.4292,-5.42,-5.4158,-5.4045,-5.3986,-5.3888,-5.3737,-5.4397,-5.4837,-5.4837,-5.5361,-5.5784,-5.5936,-5.5953,-5.6021,-5.6173,-5.619,-5.6444,-5.7019,-5.7036,-5.7306,-5.7881,-5.7881,-5.7881,-5.7881,-5.7881,-5.7808,-5.7662,-5.7724,-5.7061,-5.5651,-5.4432,-5.358,-5.2914,-5.2775,-5.2713,-5.2713,-5.2713,-5.2713,-5.2713,-5.2713,-5.2713,-5.2713,-5.2713,-5.2624,-5.2608,-5.2608,-5.2412,-5.2124,-5.1972,-5.1695,-5.1494,-5.1214,-5.1214,-5.1214,-5.1214,-5.1214,-5.1214,-5.1214,-5.1214,-5.112,-5.0917,-4.9386,-4.7965,-4.7675,-4.6058,-4.4722,-4.4722,-4.4722,-4.4722,-4.4722,-4.4722,-4.4722,-4.4722,-4.4722,-4.4722,-4.4722,-4.4409,-4.4313,-4.4203,-4.3738,-4.3394,-4.3283,-4.3085,-4.2974,-4.2974,-4.2974,-4.2974,-4.2974,-4.2974,-4.2974,-4.2974,-4.2974,-4.2974,-4.2974,-4.2974,-4.2275,-3.3287,-3.7151,-4.1664,-4.7404,-5.1342,-5.3813,-5.3813,-5.3639,-5.361,-5.4035,-5.3636,-5.3315,-5.3831,-5.3588,-5.3376,-5.3901,-5.3914,-5.3908,-5.4059,-5.4045,-5.3849,-5.3601,-5.3957,-5.411,-5.4076,-5.4431,-5.4803,-5.5158,-5.5175,-5.5344,-5.57,-5.5716,-5.5902,-5.6275,-5.6275,-5.6461,-5.685,-5.7205,-5.7357,-5.7374,-5.7729,-5.7881,-5.7881,-5.748,-5.6348,-5.4637,-5.4232,-5.3505,-5.2713,-5.2713,-5.2713,-5.2713,-5.2713,-5.2713,-5.2713,-5.2713,-5.2713,-5.2713,-5.2713,-5.2713,-5.2713,-5.2713,-5.2503,-5.2306,-5.2139,-5.1864,-5.1587,-5.1401,-5.1308,-5.1214,-5.1214,-5.1214,-5.1214,-5.1214,-5.1214,-5.1214,-5.1214,-4.9499,-4.7979,-4.7979,-4.6255,-4.4722,-4.4722,-4.4722,-4.4722,-4.4722,-4.4722,-4.4722,-4.4722,-4.4722,-4.4722,-4.4722,-4.4518,-4.4409,-4.4313,-4.3971,-4.3738,-4.3394,-4.3295,-4.3073,-4.2974,-4.2974,-4.2974,-4.2974,-4.2974,-4.2974,-4.2974,-4.2974,-4.2974,-4.2974,-4.2974,-4.2275,-3.3473,-3.8228,-4.3113,-4.9392,-5.2289,-5.3627,-5.3775,-5.3639,-5.3499,-5.3499,-5.2971,-5.2549,-5.2674,-5.2341,-5.2287,-5.3063,-5.3201,-5.3346,-5.3759,-5.3845,-5.3717,-5.3392,-5.3445,-5.3464,-5.3298,-5.3416,-5.3754,-5.4346,-5.4397,-5.4685,-5.531,-5.5344,-5.5395,-5.553,-5.553,-5.5581,-5.5716,-5.6325,-5.6613,-5.663,-5.7222,-5.7509,-5.7526,-5.6763,-5.5665,-5.4469,-5.4189,-5.3577,-5.2765,-5.2495,-5.2436,-5.2544,-5.2544,-5.2606,-5.2713,-5.2713,-5.2713,-5.2713,-5.2713,-5.2713,-5.2713,-5.2713,-5.2503,-5.2291,-5.2215,-5.1941,-5.1587,-5.1587,-5.1401,-5.1214,-5.1214,-5.1214,-5.1214,-5.1214,-5.1214,-5.112,-5.0917,-4.9386,-4.7979,-4.7777,-4.6045,-4.4722,-4.4722,-4.4722,-4.4722,-4.4722,-4.4643,-4.4578,-4.4578,-4.45,-4.4434,-4.4434,-4.4526,-4.4483,-4.4266,-4.4261,-4.4094,-4.3517,-4.3394,-4.3295,-4.2974,-4.2974,-4.2974,-4.2974,-4.2974,-4.2974,-4.2974,-4.2974,-4.2974,-4.2974,-4.2974,-4.215,-2.779,-3.4754,-4.2816,-4.7961,-5.1008,-5.294,-5.3645,-5.3639,-5.3499,-5.3499,-5.2581,-5.1958,-5.2585,-5.1903,-5.1511,-5.2252,-5.2373,-5.2347,-5.2265,-5.2283,-5.2158,-5.1843,-5.2357,-5.2683,-5.2469,-5.3095,-5.3551,-5.3653,-5.3653,-5.3687,-5.3788,-5.3788,-5.4093,-5.4718,-5.4735,-5.5057,-5.5716,-5.5818,-5.5869,-5.5869,-5.5953,-5.6004,-5.5967,-5.5779,-5.5848,-5.6175,-5.4809,-5.3741,-5.2891,-5.1521,-5.1313,-5.1836,-5.1836,-5.219,-5.2713,-5.2713,-5.2713,-5.2713,-5.2713,-5.2713,-5.2713,-5.2713,-5.2503,-5.2306,-5.2063,-5.188,-5.1587,-5.1308,-5.1214,-5.1214,-5.1214,-5.1214,-5.1214,-5.1214,-5.1214,-5.0917,-5.0013,-4.8894,-4.7777,-4.6777,-4.5555,-4.4722,-4.4722,-4.4722,-4.4722,-4.4722,-4.4304,-4.399,-4.399,-4.3559,-4.3245,-4.3245,-4.3689,-4.399,-4.399,-4.4136,-4.4216,-4.3887,-4.3517,-4.3295,-4.2974,-4.2974,-4.2974,-4.2974,-4.2974,-4.2974,-4.2974,-4.2974,-4.2974,-4.2974,-4.2974,-4.1684,-2.9646,-3.5497,-4.1479,-4.6884,-4.9392,-5.0989,-5.2735,-5.2973,-5.2964,-5.3407,-5.2509,-5.1708,-5.1996,-5.1202,-5.0735,-5.1476,-5.1597,-5.1692,-5.2045,-5.2096,-5.2035,-5.1805,-5.2096,-5.2175,-5.1902,-5.2533,-5.2924,-5.2841,-5.3247,-5.3501,-5.3501,-5.3501,-5.3653,-5.3974,-5.3974,-5.4143,-5.4465,-5.4888,-5.5294,-5.5716,-5.5716,-5.5716,-5.5646,-5.5162,-5.509,-5.5329,-5.4115,-5.3143,-5.2282,-5.1134,-5.0867,-5.1174,-5.1559,-5.1882,-5.219,-5.2575,-5.2713,-5.2713,-5.2713,-5.2713,-5.2713,-5.2713,-5.2503,-5.2306,-5.2231,-5.1864,-5.1587,-5.1494,-5.1308,-5.1214,-5.1214,-5.0945,-5.0676,-5.0676,-5.0391,-4.9831,-4.8727,-4.8182,-4.7471,-4.5755,-4.477,-4.4251,-4.4251,-4.4251,-4.4134,-4.382,-4.3559,-4.3402,-4.3402,-4.3167,-4.3023,-4.3023,-4.3533,-4.3872,-4.3872,-4.4287,-4.4422,-4.4107,-4.3874,-4.353,-4.3184,-4.3085,-4.2974,-4.2974,-4.2974,-4.2974,-4.2974,-4.2974,-4.2974,-4.2974,-4.2974,-4.1684,0.0,-3.4587,-3.8321,-4.4079,-4.6754,-4.863,-5.1083,-5.1805,-5.2207,-5.2979,-5.2409,-5.1768,-5.1619,-5.0712,-5.0183,-5.0735,-5.0838,-5.1028,-5.158,-5.1666,-5.1589,-5.1407,-5.1579,-5.1559,-5.1264,-5.1898,-5.2259,-5.2029,-5.2587,-5.301,-5.3196,-5.3196,-5.3298,-5.3501,-5.3501,-5.3501,-5.3501,-5.4042,-5.46,-5.5158,-5.5158,-5.5158,-5.5089,-5.4462,-5.4063,-5.3783,-5.2925,-5.2144,-5.1587,-5.0545,-5.0266,-5.0497,-5.099,-5.1298,-5.1513,-5.2021,-5.2313,-5.2436,-5.2252,-5.2421,-5.2652,-5.2313,-5.2119,-5.1941,-5.1773,-5.1349,-5.0998,-5.0998,-5.0906,-5.072,-5.072,-5.0361,-4.9987,-4.9987,-4.9628,-4.8877,-4.7492,-4.715,-4.6503,-4.4585,-4.3951,-4.365,-4.365,-4.365,-4.352,-4.3088,-4.2892,-4.2814,-4.2814,-4.267,-4.2592,-4.2592,-4.3101,-4.3441,-4.3441,-4.3964,-4.4196,-4.3886,-4.381,-4.3656,-4.3301,-4.3219,-4.3085,-4.3085,-4.2974,-4.2974,-4.2974,-4.2974,-4.2974,-4.2974,-4.2974,-4.1797,-2.5894,-2.9128,-3.2395,-3.8116,-4.2537,-4.609,-4.847,-5.0121,-5.1337,-5.2032,-5.2266,-5.2203,-5.1701,-5.0712,-5.0011,-5.0062,-5.0062,-5.008,-5.0114,-5.0114,-5.0039,-4.9828,-5.0446,-5.0771,-5.0498,-5.1116,-5.1478,-5.1268,-5.1319,-5.164,-5.2334,-5.2367,-5.2706,-5.3484,-5.3501,-5.3501,-5.3501,-5.3551,-5.3585,-5.3619,-5.3619,-5.3619,-5.3636,-5.3406,-5.3036,-5.2385,-5.1497,-5.1087,-5.0927,-4.9388,-4.9127,-4.9743,-4.9774,-5.0174,-5.0743,-5.079,-5.1205,-5.1667,-5.1021,-5.1636,-5.2498,-5.1221,-5.0885,-5.0924,-5.0302,-4.9823,-4.9464,-4.9464,-4.9359,-4.9374,-4.9374,-4.9344,-4.9314,-4.9314,-4.9284,-4.8771,-4.6622,-4.5396,-4.4361,-4.331,-4.3088,-4.3075,-4.3075,-4.3075,-4.3062,-4.3023,-4.2565,-4.2213,-4.2213,-4.1742,-4.1402,-4.1402,-4.1912,-4.2252,-4.2252,-4.2775,-4.301,-4.2708,-4.3187,-4.3257,-4.3054,-4.3225,-4.3394,-4.3394,-4.3073,-4.2974,-4.2974,-4.2974,-4.2974,-4.2974,-4.2974,-4.2275,-2.4592,-2.7139,-3.0111,-3.4829,-3.8284,-4.133,-4.4225,-4.6884,-4.8938,-4.9637,-5.0751,-5.1491,-5.095,-5.0665,-5.0415,-5.0051,-5.0011,-5.0011,-5.0011,-5.0011,-4.9935,-4.9918,-5.0101,-5.0196,-4.9941,-5.0608,-5.0929,-5.0714,-5.1155,-5.1464,-5.1589,-5.1606,-5.1742,-5.2029,-5.2029,-5.2503,-5.3501,-5.3974,-5.4211,-5.4211,-5.4211,-5.3957,-5.3518,-5.2944,-5.2234,-5.1475,-5.0671,-5.0327,-5.0232,-4.9027,-4.8773,-4.9035,-4.9512,-4.9835,-5.0097,-5.0528,-5.0851,-5.1021,-5.0774,-5.1005,-5.1328,-5.0662,-5.04,-5.0317,-4.9882,-4.9539,-4.9269,-4.9269,-4.9269,-4.9269,-4.9269,-4.8955,-4.8536,-4.8102,-4.8012,-4.7629,-4.6186,-4.4401,-4.3065,-4.3048,-4.2722,-4.2474,-4.2474,-4.2474,-4.2356,-4.1977,-4.1755,-4.1625,-4.1625,-4.1442,-4.1311,-4.1311,-4.1821,-4.216,-4.216,-4.2683,-4.2919,-4.2814,-4.2904,-4.2964,-4.3205,-4.299,-4.3051,-4.3381,-4.3184,-4.2974,-4.2974,-4.2974,-4.2798,-4.2446,-4.2446,-4.1558,-2.3036,-2.5108,0.0,-3.2028,-3.4253,-3.6642,-4.1193,-4.3855,-4.5858,-4.7647,-4.9409,-5.0532,-5.0056,-5.0143,-5.0188,-5.0022,-5.0011,-5.0011,-5.0011,-5.0011,-5.0011,-5.0011,-5.0011,-4.9935,-4.9666,-5.0095,-5.0205,-4.9949,-5.0391,-5.0718,-5.0828,-5.0845,-5.0947,-5.1217,-5.1217,-5.1708,-5.2723,-5.3213,-5.3721,-5.4228,-5.4228,-5.4228,-5.4245,-5.3727,-5.2874,-5.1799,-5.1259,-5.0454,-4.9405,-4.8852,-4.862,-4.8666,-4.9143,-4.9328,-4.9374,-4.9835,-5.0143,-5.0328,-5.0082,-5.0297,-5.0605,-4.987,-4.9626,-4.9604,-4.9098,-4.8773,-4.8611,-4.8611,-4.8611,-4.8611,-4.8611,-4.8282,-4.7848,-4.7414,-4.7019,-4.655,-4.5508,-4.4067,-4.2944,-4.2942,-4.2325,-4.1886,-4.1886,-4.1886,-4.1755,-4.1376,-4.1311,-4.1311,-4.1311,-4.1311,-4.1311,-4.1311,-4.1651,-4.1886,-4.1886,-4.2226,-4.2448,-4.2448,-4.2424,-4.2683,-4.3228,-4.2853,-4.2799,-4.3225,-4.284,-4.262,-4.2698,-4.2698,-4.2522,-4.2158,-4.1969,-4.099,0.0,0.0,0.0,-2.9467,-3.0485,-3.2372,-3.9372,-4.104,-4.2193,-4.603,-4.8196,-4.9332,-4.9113,-4.9121,-4.9348,-4.986,-4.9942,-4.9976,-5.0011,-5.0011,-5.0011,-5.0011,-5.0011,-4.9877,-4.9547,-4.9488,-4.9367,-4.9063,-4.9001,-4.9306,-5.0016,-5.005,-5.0388,-5.1133,-5.1166,-5.12,-5.1217,-5.1234,-5.1995,-5.3467,-5.3467,-5.4211,-5.5581,-5.5632,-5.4705,-5.3142,-5.3191,-5.147,-4.8666,-4.865,-4.8635,-4.8635,-4.862,-4.862,-4.862,-4.862,-4.905,-4.9558,-4.885,-4.9497,-5.042,-4.8814,-4.8575,-4.8814,-4.7905,-4.7467,-4.7309,-4.7309,-4.7309,-4.7309,-4.7309,-4.7309,-4.7309,-4.7309,-4.6535,-4.5598,-4.4591,-4.4312,-4.4031,-4.2985,-4.1967,-4.1311,-4.1311,-4.1311,-4.1311,-4.1311,-4.1311,-4.1311,-4.1311,-4.1311,-4.1311,-4.1311,-4.1311,-4.1311,-4.1311,-4.1311,-4.1311,-4.1311,-4.1834,-4.2396,-4.2971,-4.2696,-4.2757,-4.2977,-4.2118,-4.1904,-4.2133,-4.2145,-4.2145,-4.212,-4.1555,-4.0594,-2.1518,0.0,0.0,0.0,0.0,0.0,-3.2736,-3.4766,-3.6961,-4.0336,-4.2782,-4.4693,-4.5995,-4.7659,-4.8637,-4.805,-4.863,-4.9355,-4.9924,-5.0011,-5.0011,-5.0011,-5.0011,-4.9935,-4.9877,-4.9725,-4.959,-4.9367,-4.9229,-4.9209,-4.9289,-4.9306,-4.9407,-4.961,-5.0135,-5.0659,-5.1217,-5.1742,-5.2215,-5.2638,-5.2638,-5.257,-5.2503,-5.3602,-5.3506,-5.2573,-5.3002,-5.2365,-5.0943,-4.9826,-4.9389,-4.9343,-4.882,-4.862,-4.862,-4.862,-4.8743,-4.8881,-4.8681,-4.8866,-4.9044,-4.834,-4.8171,-4.8122,-4.7512,-4.7294,-4.7309,-4.7309,-4.7309,-4.7309,-4.7309,-4.7309,-4.7309,-4.7309,-4.7106,-4.6829,-4.655,-4.5341,-4.3748,-4.2052,-4.1498,-4.1311,-4.1311,-4.1311,-4.1311,-4.1311,-4.1311,-4.1311,-4.1311,-4.1311,-4.1311,-4.1311,-4.1311,-4.1311,-4.1311,-4.1311,-4.1311,-4.1311,-4.1468,-4.1808,-4.2383,-4.2087,-4.2151,-4.24,-4.1928,-4.1607,-4.1568,-4.1969,-4.1957,-4.1543,-4.0588,-3.9927,-2.3461,-2.4674,-2.6771,-2.7097,0.0,0.0,-3.1644,-3.2736,-3.4068,-3.793,-4.0359,-4.2187,-4.3407,-4.5048,-4.6212,-4.6035,-4.6856,-4.7962,-4.9326,-4.951,-4.9631,-4.9959,-5.0011,-4.9935,-4.986,-4.9784,-4.9649,-4.9488,-4.929,-4.9107,-4.9001,-4.9001,-4.9001,-4.9001,-4.9424,-4.9847,-5.0287,-5.071,-5.1234,-5.1843,-5.1843,-5.1961,-5.2198,-5.3095,-5.3058,-5.2285,-5.2967,-5.2776,-5.184,-5.0668,-4.9987,-4.962,-4.8897,-4.862,-4.862,-4.862,-4.862,-4.862,-4.862,-4.862,-4.8537,-4.8218,-4.8049,-4.7964,-4.7553,-4.7396,-4.7309,-4.7309,-4.7309,-4.7309,-4.7309,-4.7309,-4.7309,-4.7309,-4.7309,-4.7207,-4.6741,-4.5793,-4.4485,-4.2902,-4.1881,-4.1311,-4.1311,-4.1311,-4.1311,-4.1311,-4.1311,-4.1311,-4.1311,-4.1311,-4.1311,-4.1311,-4.1311,-4.1311,-4.1311,-4.1311,-4.1311,-4.1311,-4.1311,-4.1572,-4.2147,-4.1722,-4.166,-4.2033,-4.1489,-4.1174,-4.099,-4.1317,-4.1191,-4.0639,-3.9986,-3.9697,-2.6577,-2.6974,-2.8559,-3.032,-2.8634,0.0,-3.3155,-3.2773,-3.252,-3.6754,-3.8762,-3.9918,-4.0508,-4.1488,-4.2513,-4.3411,-4.4545,-4.6094,-4.8372,-4.8743,-4.8998,-4.9706,-4.981,-4.9677,-4.9526,-4.9536,-4.9529,-4.9428,-4.9256,-4.9168,-4.9001,-4.9001,-4.9001,-4.9001,-4.9001,-4.9001,-4.9001,-4.9001,-4.9661,-5.098,-5.098,-5.1674,-5.301,-5.3179,-5.279,-5.2004,-5.2726,-5.2568,-5.1647,-5.0922,-5.0356,-4.9712,-4.8927,-4.862,-4.862,-4.862,-4.862,-4.862,-4.862,-4.862,-4.8537,-4.837,-4.8118,-4.7964,-4.7709,-4.7467,-4.7309,-4.7309,-4.7309,-4.7309,-4.7309,-4.7309,-4.7309,-4.7309,-4.7309,-4.7019,-4.6166,-4.5869,-4.5508,-4.4684,-4.2902,-4.1597,-4.1498,-4.1498,-4.1411,-4.1311,-4.1311,-4.1311,-4.1311,-4.1311,-4.1311,-4.1311,-4.1311,-4.1311,-4.1311,-4.1311,-4.1311,-4.1311,-4.1311,-4.1546,-4.2056,-4.1585,-4.1458,-4.166,-4.0862,-4.044,-4.0425,-4.0488,-4.0262,-3.9785,-3.9722,-3.9697,-3.0732,-3.1393,-3.22,-3.0391,-3.0846,0.0,-2.8892,-2.9049,-2.9913,-3.0729,-3.1121,-3.1983,-3.3991,-3.6644,-3.8474,-3.8239,-4.1083,-4.445,-4.7612,-4.8309,-4.854,-4.8679,-4.839,-4.8148,-4.8092,-4.8529,-4.8815,-4.8757,-4.901,-4.9168,-4.9168,-4.9063,-4.9001,-4.9001,-4.9001,-4.9001,-4.9001,-4.9001,-4.9154,-4.9441,-4.9441,-4.9593,-4.9932,-5.1116,-5.1229,-5.0568,-5.123,-5.1379,-5.1085,-4.9646,-4.9634,-5.0374,-4.9112,-4.862,-4.862,-4.862,-4.862,-4.862,-4.862,-4.862,-4.8537,-4.837,-4.8118,-4.7964,-4.7709,-4.7467,-4.7309,-4.7309,-4.7309,-4.7309,-4.7309,-4.7309,-4.7309,-4.7309,-4.7309,-4.7207,-4.7019,-4.6358,-4.5779,-4.5508,-4.4577,-4.3464,-4.2612,-4.2514,-4.2235,-4.1411,-4.1311,-4.1311,-4.1311,-4.1311,-4.1311,-4.1311,-4.1311,-4.1311,-4.1311,-4.1311,-4.1311,-4.1311,-4.1311,-4.1363,-4.1481,-4.1376,-4.1263,-4.1064,-4.044,-4.0044,-3.986,-4.03,-4.0463,-4.0337,-3.9898,-3.9697,-3.4054,-3.4181,-3.4699,-3.3696,0.0,0.0,0.0,-2.9706,-2.9572,-3.1097,-3.076,-3.0815,-3.2834,-3.4541,-3.5842,-3.6419,-3.9228,-4.1941,-4.3674,-4.5686,-4.7051,-4.7206,-4.7056,-4.6968,-4.7131,-4.7455,-4.7705,-4.8026,-4.8514,-4.8745,-4.8685,-4.886,-4.9001,-4.9001,-4.9001,-4.9001,-4.9001,-4.9001,-4.9001,-4.9001,-4.9001,-4.9001,-4.9035,-4.9779,-4.9894,-4.954,-4.9931,-5.0018,-4.9825,-4.864,-4.8783,-4.9589,-4.8897,-4.862,-4.862,-4.862,-4.862,-4.862,-4.862,-4.862,-4.8604,-4.8453,-4.8218,-4.7964,-4.7794,-4.7553,-4.7309,-4.7309,-4.7309,-4.7309,-4.7309,-4.7309,-4.7309,-4.7309,-4.7309,-4.7309,-4.7309,-4.6916,-4.6535,-4.6535,-4.6181,-4.5341,-4.3829,-4.3177,-4.2792,-4.2819,-4.198,-4.1498,-4.1954,-4.1597,-4.1311,-4.1311,-4.1311,-4.1311,-4.1311,-4.1311,-4.1311,-4.1311,-4.1311,-4.1311,-4.1311,-4.1311,-4.111,-4.0694,-4.0389,-4.0096,-3.9697,-3.9973,-4.0111,-4.0099,-3.9823,-3.9697,-3.707,-3.674,-3.6991,-3.6838,0.0,-3.311,0.0,0.0,0.0,-3.2236,-3.1604,-3.1146,-3.2614,-3.2889,-3.333,-3.4669,-3.7037,-3.8615,-3.8303,-4.145,-4.4118,-4.4929,-4.5193,-4.546,-4.5788,-4.5546,-4.5837,-4.7017,-4.7146,-4.7318,-4.7682,-4.8429,-4.8781,-4.8798,-4.8934,-4.9001,-4.9001,-4.9001,-4.9001,-4.9001,-4.9001,-4.9001,-4.9001,-4.9001,-4.8923,-4.8753,-4.8663,-4.8478,-4.8329,-4.7696,-4.77,-4.8235,-4.8373,-4.8496,-4.862,-4.862,-4.862,-4.862,-4.862,-4.862,-4.862,-4.862,-4.837,-4.8049,-4.7964,-4.7639,-4.7381,-4.7309,-4.7309,-4.7309,-4.7309,-4.7309,-4.7309,-4.7309,-4.7309,-4.7309,-4.7309,-4.7309,-4.7309,-4.7309,-4.7309,-4.6741,-4.4869,-4.3735,-4.3259,-4.3923,-4.2431,-4.1597,-4.2431,-4.1769,-4.1311,-4.1311,-4.1311,-4.1311,-4.1311,-4.1311,-4.1311,-4.1311,-4.1311,-4.1311,-4.1311,-4.1211,-4.101,-4.0504,-4.0402,-4.0198,-3.9697,-3.9697,-3.9697,-3.9697,-3.9697,-3.9697,-4.021,-4.0344,-3.991,-3.6251,-3.7067,-3.7021,-3.0368,0.0,-3.1002,-2.892,0.0,-2.8484,-2.936,0.0,0.0,-2.9806,-3.2449,-3.399,-3.2559,-3.5245,-3.8263,-4.0762,-4.1877,-4.2634,-4.301,-4.1719,-4.2163,-4.5423,-4.3905,-4.3821,-4.6169,-4.7495,-4.8158,-4.8037,-4.8663,-4.9001,-4.9001,-4.9001,-4.9001,-4.9001,-4.9001,-4.9001,-4.9001,-4.9001,-4.8656,-4.7967,-4.7302,-4.6978,-4.6909,-4.6128,-4.622,-4.688,-4.7481,-4.8081,-4.862,-4.862,-4.862,-4.862,-4.862,-4.862,-4.862,-4.862,-4.8453,-4.8218,-4.7794,-4.7639,-4.7553,-4.7381,-4.7309,-4.7309,-4.7309,-4.7309,-4.7309,-4.7309,-4.7309,-4.7309,-4.7309,-4.7309,-4.7309,-4.7309,-4.7309,-4.6931,-4.5793,-4.4776,-4.3829,-4.3081,-4.2065,-4.1311,-4.1498,-4.1411,-4.1311,-4.1311,-4.1311,-4.1311,-4.1311,-4.1311,-4.1311,-4.1311,-4.1311,-4.1311,-4.1311,-4.1097,-4.0795,-4.0504,-4.0287,-3.9981,-3.9697,-3.9697,-3.9697,-3.9697,-3.9697,-3.9697,-4.0732,-4.0882,-4.0611,-3.7832,-3.7187,-3.6143,-3.1886,0.0,-3.0854,-3.0638,0.0,0.0,0.0,0.0,0.0,0.0,-3.0834,-3.1146,-2.9531,-3.1696,-3.431,-3.6624,-3.7719,-3.8874,-4.042,-3.9477,-3.9894,-4.2561,-4.1505,-4.1877,-4.4636,-4.6442,-4.7522,-4.7902,-4.8629,-4.9001,-4.9001,-4.9001,-4.9001,-4.9001,-4.9001,-4.9001,-4.9001,-4.9001,-4.8798,-4.845,-4.7288,-4.6765,-4.6701,-4.5503,-4.5403,-4.6034,-4.6326,-4.685,-4.7496,-4.7881,-4.8281,-4.862,-4.862,-4.8881,-4.9174,-4.8591,-4.837,-4.8202,-4.7709,-4.7624,-4.7628,-4.7845,-4.7593,-4.7399,-4.7773,-4.7593,-4.7309,-4.7309,-4.7309,-4.7309,-4.7309,-4.7309,-4.7309,-4.7309,-4.7608,-4.7775,-4.7289,-4.613,-4.5235,-4.5417,-4.4031,-4.2999,-4.2999,-4.2528,-4.1967,-4.1411,-4.1311,-4.1311,-4.1311,-4.1311,-4.1311,-4.1311,-4.1311,-4.1311,-4.1311,-4.1211,-4.0909,-4.0504,-4.0389,-4.0096,-3.9697,-3.9697,-3.9697,-3.9697,-3.9697,-3.9697,-4.1119,-4.1246,-4.1013,-3.8267,-3.6637,-3.5034,-3.2515,-3.1422,-3.1256,0.0,-3.221,0.0,0.0,0.0,-3.0301,-3.021,0.0,-2.942,-2.7126,-2.8686,-3.0789,-3.269,-3.4292,-3.5944,-3.7644,-3.6432,-3.6746,-3.9552,-3.8477,-3.9261,-4.2723,-4.4861,-4.637,-4.7276,-4.8223,-4.8798,-4.9001,-4.9001,-4.9001,-4.9001,-4.9001,-4.9001,-4.9001,-4.9001,-4.9001,-4.894,-4.7622,-4.7017,-4.6673,-4.5421,-4.5077,-4.5311,-4.5311,-4.5603,-4.6142,-4.7004,-4.7635,-4.8081,-4.8266,-4.8927,-4.9605,-4.8913,-4.8661,-4.8546,-4.794,-4.7845,-4.8015,-4.8235,-4.8072,-4.7952,-4.8431,-4.8192,-4.7848,-4.7848,-4.7713,-4.7578,-4.7578,-4.7578,-4.7578,-4.7578,-4.8102,-4.8551,-4.8551,-4.73,-4.6544,-4.7037,-4.5691,-4.4509,-4.4326,-4.364,-4.2889,-4.215,-4.1881,-4.1683,-4.1683,-4.1498,-4.1311,-4.1311,-4.1311,-4.1311,-4.1311,-4.1211,-4.101,-4.0504,-4.0402,-4.0198,-3.9697,-3.9697,-3.9697,-3.9697,-3.9697,-3.9697,-4.2138,-4.2291,-4.1662,-3.6349,-3.5666,-3.5078,-3.0462,-3.1184,-3.276,-3.2647,0.0,0.0,-3.6156,-3.4798,-3.2889,-3.0577,-3.021,0.0,0.0,-2.5731,-2.7343,-2.8994,-3.2282,-3.4465,-3.4524,-3.1708,-3.1823,-3.6571,-3.4339,-3.5042,-4.0297,-4.2688,-4.449,-4.5737,-4.7192,-4.8291,-4.9001,-4.9001,-4.9001,-4.9001,-4.9001,-4.9001,-4.9001,-4.9001,-4.9001,-4.894,-4.8177,-4.7489,-4.6742,-4.5969,-4.529,-4.4618,-4.4618,-4.4633,-4.4803,-4.6142,-4.665,-4.6757,-4.7419,-4.8543,-4.9682,-4.9651,-4.9651,-4.9443,-4.8347,-4.8435,-4.8895,-4.8458,-4.873,-4.9209,-4.9224,-4.9224,-4.9209,-4.9209,-4.8716,-4.8252,-4.8252,-4.8252,-4.8252,-4.8252,-4.879,-4.9239,-4.9239,-4.8452,-4.7556,-4.6945,-4.5967,-4.5081,-4.4383,-4.4312,-4.4219,-4.4219,-4.3355,-4.2792,-4.2792,-4.1868,-4.1311,-4.1311,-4.1311,-4.1311,-4.1311,-4.1097,-4.0795,-4.0504,-4.0287,-3.9981,-3.9697,-3.9697,-3.9697,-3.9697,-3.9697,-3.9697,-4.2729,-4.3137,-4.2756,-3.8686,-3.7243,-3.583,-3.2009,-3.2377,-3.3176,-3.2052,-3.4614,-3.6762,-3.5642,-3.4541,-3.2999,-3.0595,-2.931,-2.7383,0.0,-2.4337,-2.5401,-2.6484,-2.9341,-3.1217,-3.1217,-3.0084,-3.0774,-3.4207,-3.3053,-3.4376,-3.946,-4.1784,-4.3786,-4.5635,-4.7141,-4.8257,-4.9001,-4.9001,-4.9001,-4.9001,-4.9001,-4.9001,-4.9001,-4.9001,-4.9001,-4.894,-4.8225,-4.7754,-4.7422,-4.6182,-4.5551,-4.5274,-4.4783,-4.4572,-4.4695,-4.5603,-4.6219,-4.6696,-4.7373,-4.7619,-4.7635,-4.7635,-4.7569,-4.7451,-4.735,-4.7395,-4.7573,-4.8115,-4.8132,-4.8162,-4.9045,-4.8626,-4.8072,-4.8521,-4.8117,-4.7638,-4.7638,-4.7638,-4.7638,-4.7638,-4.8162,-4.8626,-4.8626,-4.8685,-4.8711,-4.8489,-4.7803,-4.6967,-4.6094,-4.5599,-4.5038,-4.4406,-4.3355,-4.2792,-4.2792,-4.1868,-4.1311,-4.1311,-4.1311,-4.1311,-4.1311,-4.0997,-4.0795,-4.0504,-4.0287,-3.9981,-3.9697,-3.9697,-3.9697,-3.9697,-3.9697,-3.9697,-4.3536,-4.3676,-4.3193,-4.0042,-3.8515,-3.6916,-3.3486,-3.3956,-3.4724,-3.3421,-3.5459,-3.7463,-3.7311,-3.5395,-3.3254,-3.15,-2.931,-2.6778,0.0,-2.3878,-2.4392,-2.4905,-2.7073,-2.8644,-2.8916,-2.8041,-2.8869,-3.2404,-3.1567,-3.3003,-3.7889,-4.0423,-4.2545,-4.4434,-4.6447,-4.7868,-4.8612,-4.8883,-4.9001,-4.9001,-4.9001,-4.9001,-4.9001,-4.9001,-4.9001,-4.9001,-4.8513,-4.8161,-4.7819,-4.6588,-4.5913,-4.564,-4.4858,-4.4572,-4.4633,-4.5064,-4.5649,-4.6326,-4.7004,-4.7111,-4.6957,-4.6957,-4.6797,-4.6681,-4.6665,-4.6615,-4.678,-4.7426,-4.7623,-4.7848,-4.8701,-4.8461,-4.8117,-4.8536,-4.8132,-4.7653,-4.7653,-4.7653,-4.7653,-4.7653,-4.8192,-4.8641,-4.8641,-4.8985,-4.9269,-4.9269,-4.891,-4.8432,-4.7786,-4.7298,-4.6658,-4.5616,-4.4369,-4.3395,-4.2641,-4.1987,-4.1625,-4.1625,-4.1625,-4.152,-4.1324,-4.0997,-4.0795,-4.0504,-4.0287,-3.9981,-3.9697,-3.9697,-3.9697,-3.9697,-3.9697,-3.9697]}]]